<?xml version="1.0" encoding="UTF-8" standalone="no" ?>
<gpx xmlns="http://www.topografix.com/GPX/1/1" xmlns:xsi="http://www.w3.org/2001/XMLSchema-instance" xsi:schemaLocation="http://www.topografix.com/GPX/1/1 http://www.topografix.com/GPX/1/1/gpx.xsd" version="1.1" creator="VisuGPX - https://www.visugpx.com">
  <metadata>
    <name>sophie et pierre 2</name>
    <desc><![CDATA[dddddddddddddddddddddddddddddddddddddddddddddddddddddddddddddddd]]></desc>
  </metadata>
  <trk>
    <name><![CDATA[180511141855]]></name>
    <trkseg>
      <trkpt lat="50.60924" lon="3.07398">
        <ele>51.2</ele>
        <time>2018-05-11T12:19:03Z</time>
      </trkpt>
      <trkpt lat="50.60911" lon="3.07384">
        <ele>51.4</ele>
        <time>2018-05-11T12:19:07Z</time>
      </trkpt>
      <trkpt lat="50.60896" lon="3.07369">
        <ele>51.6</ele>
        <time>2018-05-11T12:19:11Z</time>
      </trkpt>
      <trkpt lat="50.60884" lon="3.07357">
        <ele>51.4</ele>
        <time>2018-05-11T12:19:15Z</time>
      </trkpt>
      <trkpt lat="50.6087" lon="3.07343">
        <ele>52</ele>
        <time>2018-05-11T12:19:19Z</time>
      </trkpt>
      <trkpt lat="50.60856" lon="3.07327">
        <ele>52</ele>
        <time>2018-05-11T12:19:23Z</time>
      </trkpt>
      <trkpt lat="50.60839" lon="3.07314">
        <ele>52.4</ele>
        <time>2018-05-11T12:19:27Z</time>
      </trkpt>
      <trkpt lat="50.60823" lon="3.073">
        <ele>52.6</ele>
        <time>2018-05-11T12:19:31Z</time>
      </trkpt>
      <trkpt lat="50.60807" lon="3.0728">
        <ele>52.4</ele>
        <time>2018-05-11T12:19:35Z</time>
      </trkpt>
      <trkpt lat="50.60791" lon="3.07261">
        <ele>52.8</ele>
        <time>2018-05-11T12:19:39Z</time>
      </trkpt>
      <trkpt lat="50.60777" lon="3.07244">
        <ele>52.6</ele>
        <time>2018-05-11T12:19:43Z</time>
      </trkpt>
      <trkpt lat="50.60761" lon="3.07227">
        <ele>53.2</ele>
        <time>2018-05-11T12:19:47Z</time>
      </trkpt>
      <trkpt lat="50.60744" lon="3.07211">
        <ele>52.6</ele>
        <time>2018-05-11T12:19:51Z</time>
      </trkpt>
      <trkpt lat="50.6073" lon="3.07193">
        <ele>53.2</ele>
        <time>2018-05-11T12:19:55Z</time>
      </trkpt>
      <trkpt lat="50.60714" lon="3.07175">
        <ele>53.2</ele>
        <time>2018-05-11T12:19:59Z</time>
      </trkpt>
      <trkpt lat="50.60699" lon="3.07157">
        <ele>54</ele>
        <time>2018-05-11T12:20:03Z</time>
      </trkpt>
      <trkpt lat="50.60691" lon="3.07146">
        <ele>53.8</ele>
        <time>2018-05-11T12:20:07Z</time>
      </trkpt>
      <trkpt lat="50.60688" lon="3.07139">
        <ele>53.6</ele>
        <time>2018-05-11T12:20:11Z</time>
      </trkpt>
      <trkpt lat="50.60687" lon="3.07135">
        <ele>53.8</ele>
        <time>2018-05-11T12:20:15Z</time>
      </trkpt>
      <trkpt lat="50.60686" lon="3.07133">
        <ele>53.4</ele>
        <time>2018-05-11T12:20:23Z</time>
      </trkpt>
      <trkpt lat="50.60681" lon="3.07125">
        <ele>53.6</ele>
        <time>2018-05-11T12:20:27Z</time>
      </trkpt>
      <trkpt lat="50.6067" lon="3.07115">
        <ele>53.6</ele>
        <time>2018-05-11T12:20:31Z</time>
      </trkpt>
      <trkpt lat="50.60657" lon="3.07102">
        <ele>54.2</ele>
        <time>2018-05-11T12:20:35Z</time>
      </trkpt>
      <trkpt lat="50.60642" lon="3.07088">
        <ele>54</ele>
        <time>2018-05-11T12:20:39Z</time>
      </trkpt>
      <trkpt lat="50.60627" lon="3.07073">
        <ele>54.2</ele>
        <time>2018-05-11T12:20:43Z</time>
      </trkpt>
      <trkpt lat="50.60612" lon="3.07058">
        <ele>54.4</ele>
        <time>2018-05-11T12:20:47Z</time>
      </trkpt>
      <trkpt lat="50.60597" lon="3.07044">
        <ele>55.2</ele>
        <time>2018-05-11T12:20:51Z</time>
      </trkpt>
      <trkpt lat="50.6058" lon="3.0703">
        <ele>55.2</ele>
        <time>2018-05-11T12:20:55Z</time>
      </trkpt>
      <trkpt lat="50.60567" lon="3.07015">
        <ele>54.8</ele>
        <time>2018-05-11T12:20:59Z</time>
      </trkpt>
      <trkpt lat="50.60552" lon="3.07">
        <ele>55</ele>
        <time>2018-05-11T12:21:03Z</time>
      </trkpt>
      <trkpt lat="50.60535" lon="3.06983">
        <ele>55.6</ele>
        <time>2018-05-11T12:21:07Z</time>
      </trkpt>
      <trkpt lat="50.60519" lon="3.06967">
        <ele>55.6</ele>
        <time>2018-05-11T12:21:11Z</time>
      </trkpt>
      <trkpt lat="50.60505" lon="3.06951">
        <ele>55.8</ele>
        <time>2018-05-11T12:21:15Z</time>
      </trkpt>
      <trkpt lat="50.6049" lon="3.06937">
        <ele>56</ele>
        <time>2018-05-11T12:21:19Z</time>
      </trkpt>
      <trkpt lat="50.60476" lon="3.06922">
        <ele>56.6</ele>
        <time>2018-05-11T12:21:23Z</time>
      </trkpt>
      <trkpt lat="50.60462" lon="3.06906">
        <ele>57.4</ele>
        <time>2018-05-11T12:21:27Z</time>
      </trkpt>
      <trkpt lat="50.60449" lon="3.06892">
        <ele>57.8</ele>
        <time>2018-05-11T12:21:31Z</time>
      </trkpt>
      <trkpt lat="50.60436" lon="3.06878">
        <ele>57</ele>
        <time>2018-05-11T12:21:35Z</time>
      </trkpt>
      <trkpt lat="50.60429" lon="3.0686">
        <ele>57.2</ele>
        <time>2018-05-11T12:21:39Z</time>
      </trkpt>
      <trkpt lat="50.60425" lon="3.0684">
        <ele>58.4</ele>
        <time>2018-05-11T12:21:43Z</time>
      </trkpt>
      <trkpt lat="50.60423" lon="3.06816">
        <ele>58.4</ele>
        <time>2018-05-11T12:21:47Z</time>
      </trkpt>
      <trkpt lat="50.60421" lon="3.06793">
        <ele>58.6</ele>
        <time>2018-05-11T12:21:51Z</time>
      </trkpt>
      <trkpt lat="50.60422" lon="3.0677">
        <ele>58.6</ele>
        <time>2018-05-11T12:21:55Z</time>
      </trkpt>
      <trkpt lat="50.60433" lon="3.06754">
        <ele>58.4</ele>
        <time>2018-05-11T12:21:59Z</time>
      </trkpt>
      <trkpt lat="50.6044" lon="3.06738">
        <ele>58.8</ele>
        <time>2018-05-11T12:22:03Z</time>
      </trkpt>
      <trkpt lat="50.60429" lon="3.0672">
        <ele>59</ele>
        <time>2018-05-11T12:22:07Z</time>
      </trkpt>
      <trkpt lat="50.60418" lon="3.06699">
        <ele>58.4</ele>
        <time>2018-05-11T12:22:11Z</time>
      </trkpt>
      <trkpt lat="50.60406" lon="3.06684">
        <ele>58.8</ele>
        <time>2018-05-11T12:22:15Z</time>
      </trkpt>
      <trkpt lat="50.60391" lon="3.06678">
        <ele>58.6</ele>
        <time>2018-05-11T12:22:19Z</time>
      </trkpt>
      <trkpt lat="50.60376" lon="3.06684">
        <ele>59.2</ele>
        <time>2018-05-11T12:22:23Z</time>
      </trkpt>
      <trkpt lat="50.6036" lon="3.06692">
        <ele>58.8</ele>
        <time>2018-05-11T12:22:27Z</time>
      </trkpt>
      <trkpt lat="50.60345" lon="3.06701">
        <ele>59</ele>
        <time>2018-05-11T12:22:31Z</time>
      </trkpt>
      <trkpt lat="50.60329" lon="3.06708">
        <ele>59.6</ele>
        <time>2018-05-11T12:22:35Z</time>
      </trkpt>
      <trkpt lat="50.60314" lon="3.06717">
        <ele>59.6</ele>
        <time>2018-05-11T12:22:39Z</time>
      </trkpt>
      <trkpt lat="50.60297" lon="3.06727">
        <ele>59.2</ele>
        <time>2018-05-11T12:22:43Z</time>
      </trkpt>
      <trkpt lat="50.60283" lon="3.06737">
        <ele>59.2</ele>
        <time>2018-05-11T12:22:47Z</time>
      </trkpt>
      <trkpt lat="50.60268" lon="3.0674">
        <ele>59.2</ele>
        <time>2018-05-11T12:22:51Z</time>
      </trkpt>
      <trkpt lat="50.60259" lon="3.06723">
        <ele>59</ele>
        <time>2018-05-11T12:22:55Z</time>
      </trkpt>
      <trkpt lat="50.6025" lon="3.06699">
        <ele>59.6</ele>
        <time>2018-05-11T12:22:59Z</time>
      </trkpt>
      <trkpt lat="50.60243" lon="3.06673">
        <ele>60</ele>
        <time>2018-05-11T12:23:03Z</time>
      </trkpt>
      <trkpt lat="50.60237" lon="3.06648">
        <ele>60.2</ele>
        <time>2018-05-11T12:23:07Z</time>
      </trkpt>
      <trkpt lat="50.6023" lon="3.06622">
        <ele>59.6</ele>
        <time>2018-05-11T12:23:11Z</time>
      </trkpt>
      <trkpt lat="50.60223" lon="3.06596">
        <ele>59.6</ele>
        <time>2018-05-11T12:23:15Z</time>
      </trkpt>
      <trkpt lat="50.60217" lon="3.06572">
        <ele>60</ele>
        <time>2018-05-11T12:23:19Z</time>
      </trkpt>
      <trkpt lat="50.60206" lon="3.06565">
        <ele>60</ele>
        <time>2018-05-11T12:23:23Z</time>
      </trkpt>
      <trkpt lat="50.60193" lon="3.06576">
        <ele>60</ele>
        <time>2018-05-11T12:23:27Z</time>
      </trkpt>
      <trkpt lat="50.60177" lon="3.0659">
        <ele>59.6</ele>
        <time>2018-05-11T12:23:31Z</time>
      </trkpt>
      <trkpt lat="50.6016" lon="3.06604">
        <ele>59.6</ele>
        <time>2018-05-11T12:23:35Z</time>
      </trkpt>
      <trkpt lat="50.60143" lon="3.06617">
        <ele>59.4</ele>
        <time>2018-05-11T12:23:39Z</time>
      </trkpt>
      <trkpt lat="50.60125" lon="3.0663">
        <ele>59.6</ele>
        <time>2018-05-11T12:23:43Z</time>
      </trkpt>
      <trkpt lat="50.60108" lon="3.06642">
        <ele>59.4</ele>
        <time>2018-05-11T12:23:47Z</time>
      </trkpt>
      <trkpt lat="50.60092" lon="3.06655">
        <ele>59.2</ele>
        <time>2018-05-11T12:23:51Z</time>
      </trkpt>
      <trkpt lat="50.60075" lon="3.06667">
        <ele>59.4</ele>
        <time>2018-05-11T12:23:55Z</time>
      </trkpt>
      <trkpt lat="50.60057" lon="3.06679">
        <ele>59.4</ele>
        <time>2018-05-11T12:23:59Z</time>
      </trkpt>
      <trkpt lat="50.60039" lon="3.0669">
        <ele>59.8</ele>
        <time>2018-05-11T12:24:03Z</time>
      </trkpt>
      <trkpt lat="50.60022" lon="3.06701">
        <ele>60</ele>
        <time>2018-05-11T12:24:07Z</time>
      </trkpt>
      <trkpt lat="50.60006" lon="3.06712">
        <ele>60.2</ele>
        <time>2018-05-11T12:24:11Z</time>
      </trkpt>
      <trkpt lat="50.59991" lon="3.06724">
        <ele>60.4</ele>
        <time>2018-05-11T12:24:15Z</time>
      </trkpt>
      <trkpt lat="50.59977" lon="3.06734">
        <ele>61.4</ele>
        <time>2018-05-11T12:24:19Z</time>
      </trkpt>
      <trkpt lat="50.59965" lon="3.06724">
        <ele>61</ele>
        <time>2018-05-11T12:24:23Z</time>
      </trkpt>
      <trkpt lat="50.59957" lon="3.06705">
        <ele>60.6</ele>
        <time>2018-05-11T12:24:27Z</time>
      </trkpt>
      <trkpt lat="50.59951" lon="3.06682">
        <ele>61.2</ele>
        <time>2018-05-11T12:24:31Z</time>
      </trkpt>
      <trkpt lat="50.59943" lon="3.06658">
        <ele>61.4</ele>
        <time>2018-05-11T12:24:35Z</time>
      </trkpt>
      <trkpt lat="50.59936" lon="3.06633">
        <ele>61.4</ele>
        <time>2018-05-11T12:24:39Z</time>
      </trkpt>
      <trkpt lat="50.5993" lon="3.06606">
        <ele>61.6</ele>
        <time>2018-05-11T12:24:43Z</time>
      </trkpt>
      <trkpt lat="50.59924" lon="3.06577">
        <ele>61.8</ele>
        <time>2018-05-11T12:24:47Z</time>
      </trkpt>
      <trkpt lat="50.59918" lon="3.06548">
        <ele>61.2</ele>
        <time>2018-05-11T12:24:51Z</time>
      </trkpt>
      <trkpt lat="50.59913" lon="3.06517">
        <ele>61.4</ele>
        <time>2018-05-11T12:24:55Z</time>
      </trkpt>
      <trkpt lat="50.59908" lon="3.06487">
        <ele>61.4</ele>
        <time>2018-05-11T12:24:59Z</time>
      </trkpt>
      <trkpt lat="50.59902" lon="3.06458">
        <ele>61.8</ele>
        <time>2018-05-11T12:25:03Z</time>
      </trkpt>
      <trkpt lat="50.59898" lon="3.06432">
        <ele>62</ele>
        <time>2018-05-11T12:25:07Z</time>
      </trkpt>
      <trkpt lat="50.59895" lon="3.06413">
        <ele>62</ele>
        <time>2018-05-11T12:25:11Z</time>
      </trkpt>
      <trkpt lat="50.59893" lon="3.06401">
        <ele>62.8</ele>
        <time>2018-05-11T12:25:15Z</time>
      </trkpt>
      <trkpt lat="50.59891" lon="3.06386">
        <ele>61.6</ele>
        <time>2018-05-11T12:25:19Z</time>
      </trkpt>
      <trkpt lat="50.59888" lon="3.06371">
        <ele>62.8</ele>
        <time>2018-05-11T12:25:23Z</time>
      </trkpt>
      <trkpt lat="50.59884" lon="3.06353">
        <ele>61.8</ele>
        <time>2018-05-11T12:25:27Z</time>
      </trkpt>
      <trkpt lat="50.59882" lon="3.06344">
        <ele>62</ele>
        <time>2018-05-11T12:25:31Z</time>
      </trkpt>
      <trkpt lat="50.59882" lon="3.0634">
        <ele>61</ele>
        <time>2018-05-11T12:25:35Z</time>
      </trkpt>
      <trkpt lat="50.59875" lon="3.0634">
        <ele>61.8</ele>
        <time>2018-05-11T12:25:39Z</time>
      </trkpt>
      <trkpt lat="50.59867" lon="3.06342">
        <ele>61.6</ele>
        <time>2018-05-11T12:25:43Z</time>
      </trkpt>
      <trkpt lat="50.59855" lon="3.0634">
        <ele>62.6</ele>
        <time>2018-05-11T12:25:47Z</time>
      </trkpt>
      <trkpt lat="50.59842" lon="3.06333">
        <ele>62.6</ele>
        <time>2018-05-11T12:25:51Z</time>
      </trkpt>
      <trkpt lat="50.5983" lon="3.06322">
        <ele>62.6</ele>
        <time>2018-05-11T12:25:55Z</time>
      </trkpt>
      <trkpt lat="50.59816" lon="3.0631">
        <ele>63.4</ele>
        <time>2018-05-11T12:25:59Z</time>
      </trkpt>
      <trkpt lat="50.59804" lon="3.06298">
        <ele>64.6</ele>
        <time>2018-05-11T12:26:03Z</time>
      </trkpt>
      <trkpt lat="50.59794" lon="3.06285">
        <ele>64.8</ele>
        <time>2018-05-11T12:26:07Z</time>
      </trkpt>
      <trkpt lat="50.59784" lon="3.06272">
        <ele>64</ele>
        <time>2018-05-11T12:26:11Z</time>
      </trkpt>
      <trkpt lat="50.59772" lon="3.06261">
        <ele>65.2</ele>
        <time>2018-05-11T12:26:15Z</time>
      </trkpt>
      <trkpt lat="50.5976" lon="3.06252">
        <ele>65.8</ele>
        <time>2018-05-11T12:26:19Z</time>
      </trkpt>
      <trkpt lat="50.59754" lon="3.06249">
        <ele>66</ele>
        <time>2018-05-11T12:26:27Z</time>
      </trkpt>
      <trkpt lat="50.59752" lon="3.06247">
        <ele>66.4</ele>
        <time>2018-05-11T12:26:35Z</time>
      </trkpt>
      <trkpt lat="50.59751" lon="3.06242">
        <ele>66</ele>
        <time>2018-05-11T12:26:51Z</time>
      </trkpt>
      <trkpt lat="50.59747" lon="3.06237">
        <ele>66</ele>
        <time>2018-05-11T12:26:55Z</time>
      </trkpt>
      <trkpt lat="50.5974" lon="3.06228">
        <ele>66</ele>
        <time>2018-05-11T12:26:59Z</time>
      </trkpt>
      <trkpt lat="50.5973" lon="3.06217">
        <ele>66.2</ele>
        <time>2018-05-11T12:27:03Z</time>
      </trkpt>
      <trkpt lat="50.59719" lon="3.06206">
        <ele>66</ele>
        <time>2018-05-11T12:27:07Z</time>
      </trkpt>
      <trkpt lat="50.59708" lon="3.06196">
        <ele>66.2</ele>
        <time>2018-05-11T12:27:11Z</time>
      </trkpt>
      <trkpt lat="50.59699" lon="3.06189">
        <ele>66.6</ele>
        <time>2018-05-11T12:27:15Z</time>
      </trkpt>
      <trkpt lat="50.59688" lon="3.06183">
        <ele>67.2</ele>
        <time>2018-05-11T12:27:19Z</time>
      </trkpt>
      <trkpt lat="50.59677" lon="3.06181">
        <ele>67.4</ele>
        <time>2018-05-11T12:27:23Z</time>
      </trkpt>
      <trkpt lat="50.59666" lon="3.0618">
        <ele>67</ele>
        <time>2018-05-11T12:27:27Z</time>
      </trkpt>
      <trkpt lat="50.59654" lon="3.06182">
        <ele>67.8</ele>
        <time>2018-05-11T12:27:31Z</time>
      </trkpt>
      <trkpt lat="50.59642" lon="3.06185">
        <ele>67.6</ele>
        <time>2018-05-11T12:27:35Z</time>
      </trkpt>
      <trkpt lat="50.5963" lon="3.06188">
        <ele>68.4</ele>
        <time>2018-05-11T12:27:39Z</time>
      </trkpt>
      <trkpt lat="50.59618" lon="3.06191">
        <ele>68.6</ele>
        <time>2018-05-11T12:27:43Z</time>
      </trkpt>
      <trkpt lat="50.59606" lon="3.06195">
        <ele>68.8</ele>
        <time>2018-05-11T12:27:47Z</time>
      </trkpt>
      <trkpt lat="50.59594" lon="3.06198">
        <ele>69.6</ele>
        <time>2018-05-11T12:27:51Z</time>
      </trkpt>
      <trkpt lat="50.59581" lon="3.06202">
        <ele>69.6</ele>
        <time>2018-05-11T12:27:55Z</time>
      </trkpt>
      <trkpt lat="50.59568" lon="3.06205">
        <ele>69.2</ele>
        <time>2018-05-11T12:27:59Z</time>
      </trkpt>
      <trkpt lat="50.59555" lon="3.0621">
        <ele>70.6</ele>
        <time>2018-05-11T12:28:03Z</time>
      </trkpt>
      <trkpt lat="50.59542" lon="3.06214">
        <ele>69.6</ele>
        <time>2018-05-11T12:28:07Z</time>
      </trkpt>
      <trkpt lat="50.5953" lon="3.0622">
        <ele>70.2</ele>
        <time>2018-05-11T12:28:11Z</time>
      </trkpt>
      <trkpt lat="50.59517" lon="3.06226">
        <ele>70.6</ele>
        <time>2018-05-11T12:28:15Z</time>
      </trkpt>
      <trkpt lat="50.59504" lon="3.06232">
        <ele>70.4</ele>
        <time>2018-05-11T12:28:19Z</time>
      </trkpt>
      <trkpt lat="50.5949" lon="3.06236">
        <ele>71.8</ele>
        <time>2018-05-11T12:28:23Z</time>
      </trkpt>
      <trkpt lat="50.59477" lon="3.06241">
        <ele>71.6</ele>
        <time>2018-05-11T12:28:27Z</time>
      </trkpt>
      <trkpt lat="50.59465" lon="3.06248">
        <ele>72</ele>
        <time>2018-05-11T12:28:31Z</time>
      </trkpt>
      <trkpt lat="50.59451" lon="3.06252">
        <ele>71.8</ele>
        <time>2018-05-11T12:28:35Z</time>
      </trkpt>
      <trkpt lat="50.59439" lon="3.06244">
        <ele>72.2</ele>
        <time>2018-05-11T12:28:39Z</time>
      </trkpt>
      <trkpt lat="50.59427" lon="3.06231">
        <ele>72.2</ele>
        <time>2018-05-11T12:28:43Z</time>
      </trkpt>
      <trkpt lat="50.59415" lon="3.06215">
        <ele>72.2</ele>
        <time>2018-05-11T12:28:47Z</time>
      </trkpt>
      <trkpt lat="50.59402" lon="3.06199">
        <ele>72.4</ele>
        <time>2018-05-11T12:28:51Z</time>
      </trkpt>
      <trkpt lat="50.5939" lon="3.06184">
        <ele>72.6</ele>
        <time>2018-05-11T12:28:55Z</time>
      </trkpt>
      <trkpt lat="50.59377" lon="3.06168">
        <ele>72.8</ele>
        <time>2018-05-11T12:28:59Z</time>
      </trkpt>
      <trkpt lat="50.59366" lon="3.06152">
        <ele>72.8</ele>
        <time>2018-05-11T12:29:03Z</time>
      </trkpt>
      <trkpt lat="50.59355" lon="3.06134">
        <ele>73</ele>
        <time>2018-05-11T12:29:07Z</time>
      </trkpt>
      <trkpt lat="50.59349" lon="3.06112">
        <ele>72.2</ele>
        <time>2018-05-11T12:29:11Z</time>
      </trkpt>
      <trkpt lat="50.59344" lon="3.06086">
        <ele>72</ele>
        <time>2018-05-11T12:29:15Z</time>
      </trkpt>
      <trkpt lat="50.5934" lon="3.06061">
        <ele>72.4</ele>
        <time>2018-05-11T12:29:19Z</time>
      </trkpt>
      <trkpt lat="50.59336" lon="3.06038">
        <ele>72.2</ele>
        <time>2018-05-11T12:29:23Z</time>
      </trkpt>
      <trkpt lat="50.59332" lon="3.06015">
        <ele>72.2</ele>
        <time>2018-05-11T12:29:27Z</time>
      </trkpt>
      <trkpt lat="50.59328" lon="3.05994">
        <ele>71.8</ele>
        <time>2018-05-11T12:29:31Z</time>
      </trkpt>
      <trkpt lat="50.59325" lon="3.05974">
        <ele>71.2</ele>
        <time>2018-05-11T12:29:35Z</time>
      </trkpt>
      <trkpt lat="50.59324" lon="3.05966">
        <ele>70.8</ele>
        <time>2018-05-11T12:29:39Z</time>
      </trkpt>
      <trkpt lat="50.59323" lon="3.05964">
        <ele>70.6</ele>
        <time>2018-05-11T12:29:43Z</time>
      </trkpt>
      <trkpt lat="50.59323" lon="3.0596">
        <ele>70.6</ele>
        <time>2018-05-11T12:29:51Z</time>
      </trkpt>
      <trkpt lat="50.59322" lon="3.05958">
        <ele>70.6</ele>
        <time>2018-05-11T12:29:55Z</time>
      </trkpt>
      <trkpt lat="50.59322" lon="3.05955">
        <ele>70</ele>
        <time>2018-05-11T12:30:19Z</time>
      </trkpt>
      <trkpt lat="50.59323" lon="3.05948">
        <ele>70.2</ele>
        <time>2018-05-11T12:30:23Z</time>
      </trkpt>
      <trkpt lat="50.59332" lon="3.0594">
        <ele>70.2</ele>
        <time>2018-05-11T12:30:27Z</time>
      </trkpt>
      <trkpt lat="50.59343" lon="3.05929">
        <ele>69.8</ele>
        <time>2018-05-11T12:30:31Z</time>
      </trkpt>
      <trkpt lat="50.59353" lon="3.05918">
        <ele>70.2</ele>
        <time>2018-05-11T12:30:35Z</time>
      </trkpt>
      <trkpt lat="50.59364" lon="3.05904">
        <ele>70.2</ele>
        <time>2018-05-11T12:30:39Z</time>
      </trkpt>
      <trkpt lat="50.59377" lon="3.05891">
        <ele>70</ele>
        <time>2018-05-11T12:30:43Z</time>
      </trkpt>
      <trkpt lat="50.59388" lon="3.05873">
        <ele>70.2</ele>
        <time>2018-05-11T12:30:47Z</time>
      </trkpt>
      <trkpt lat="50.59399" lon="3.05858">
        <ele>70.2</ele>
        <time>2018-05-11T12:30:51Z</time>
      </trkpt>
      <trkpt lat="50.5941" lon="3.0584">
        <ele>70.2</ele>
        <time>2018-05-11T12:30:55Z</time>
      </trkpt>
      <trkpt lat="50.5942" lon="3.0582">
        <ele>70</ele>
        <time>2018-05-11T12:30:59Z</time>
      </trkpt>
      <trkpt lat="50.59432" lon="3.058">
        <ele>70</ele>
        <time>2018-05-11T12:31:03Z</time>
      </trkpt>
      <trkpt lat="50.59444" lon="3.0578">
        <ele>69.8</ele>
        <time>2018-05-11T12:31:07Z</time>
      </trkpt>
      <trkpt lat="50.59456" lon="3.05759">
        <ele>70.2</ele>
        <time>2018-05-11T12:31:11Z</time>
      </trkpt>
      <trkpt lat="50.59469" lon="3.05738">
        <ele>70.2</ele>
        <time>2018-05-11T12:31:15Z</time>
      </trkpt>
      <trkpt lat="50.5948" lon="3.05716">
        <ele>70.2</ele>
        <time>2018-05-11T12:31:19Z</time>
      </trkpt>
      <trkpt lat="50.5949" lon="3.05693">
        <ele>70.2</ele>
        <time>2018-05-11T12:31:23Z</time>
      </trkpt>
      <trkpt lat="50.59501" lon="3.05669">
        <ele>70.6</ele>
        <time>2018-05-11T12:31:27Z</time>
      </trkpt>
      <trkpt lat="50.59511" lon="3.05644">
        <ele>70.6</ele>
        <time>2018-05-11T12:31:31Z</time>
      </trkpt>
      <trkpt lat="50.5952" lon="3.05617">
        <ele>70.8</ele>
        <time>2018-05-11T12:31:35Z</time>
      </trkpt>
      <trkpt lat="50.59529" lon="3.0559">
        <ele>70.8</ele>
        <time>2018-05-11T12:31:39Z</time>
      </trkpt>
      <trkpt lat="50.59537" lon="3.05562">
        <ele>71.2</ele>
        <time>2018-05-11T12:31:43Z</time>
      </trkpt>
      <trkpt lat="50.59544" lon="3.05534">
        <ele>71.2</ele>
        <time>2018-05-11T12:31:47Z</time>
      </trkpt>
      <trkpt lat="50.59548" lon="3.05504">
        <ele>71.4</ele>
        <time>2018-05-11T12:31:51Z</time>
      </trkpt>
      <trkpt lat="50.59544" lon="3.05474">
        <ele>72</ele>
        <time>2018-05-11T12:31:55Z</time>
      </trkpt>
      <trkpt lat="50.59535" lon="3.05447">
        <ele>72</ele>
        <time>2018-05-11T12:31:59Z</time>
      </trkpt>
      <trkpt lat="50.59528" lon="3.05421">
        <ele>72.4</ele>
        <time>2018-05-11T12:32:03Z</time>
      </trkpt>
      <trkpt lat="50.59535" lon="3.05395">
        <ele>72.4</ele>
        <time>2018-05-11T12:32:07Z</time>
      </trkpt>
      <trkpt lat="50.59549" lon="3.05376">
        <ele>72.8</ele>
        <time>2018-05-11T12:32:11Z</time>
      </trkpt>
      <trkpt lat="50.59565" lon="3.05361">
        <ele>73</ele>
        <time>2018-05-11T12:32:15Z</time>
      </trkpt>
      <trkpt lat="50.59581" lon="3.05347">
        <ele>73.8</ele>
        <time>2018-05-11T12:32:19Z</time>
      </trkpt>
      <trkpt lat="50.59596" lon="3.05331">
        <ele>74</ele>
        <time>2018-05-11T12:32:23Z</time>
      </trkpt>
      <trkpt lat="50.59609" lon="3.05315">
        <ele>73.2</ele>
        <time>2018-05-11T12:32:27Z</time>
      </trkpt>
      <trkpt lat="50.59621" lon="3.05298">
        <ele>73.6</ele>
        <time>2018-05-11T12:32:31Z</time>
      </trkpt>
      <trkpt lat="50.59635" lon="3.05276">
        <ele>73.4</ele>
        <time>2018-05-11T12:32:35Z</time>
      </trkpt>
      <trkpt lat="50.59648" lon="3.05255">
        <ele>73.4</ele>
        <time>2018-05-11T12:32:39Z</time>
      </trkpt>
      <trkpt lat="50.5966" lon="3.05233">
        <ele>73.4</ele>
        <time>2018-05-11T12:32:43Z</time>
      </trkpt>
      <trkpt lat="50.59673" lon="3.0521">
        <ele>73.4</ele>
        <time>2018-05-11T12:32:47Z</time>
      </trkpt>
      <trkpt lat="50.59685" lon="3.0519">
        <ele>73</ele>
        <time>2018-05-11T12:32:51Z</time>
      </trkpt>
      <trkpt lat="50.59693" lon="3.05174">
        <ele>73.2</ele>
        <time>2018-05-11T12:32:55Z</time>
      </trkpt>
      <trkpt lat="50.597" lon="3.05158">
        <ele>72.8</ele>
        <time>2018-05-11T12:32:59Z</time>
      </trkpt>
      <trkpt lat="50.59708" lon="3.05146">
        <ele>72</ele>
        <time>2018-05-11T12:33:03Z</time>
      </trkpt>
      <trkpt lat="50.59717" lon="3.05128">
        <ele>72.4</ele>
        <time>2018-05-11T12:33:07Z</time>
      </trkpt>
      <trkpt lat="50.59726" lon="3.05102">
        <ele>72.4</ele>
        <time>2018-05-11T12:33:11Z</time>
      </trkpt>
      <trkpt lat="50.59728" lon="3.05073">
        <ele>72.4</ele>
        <time>2018-05-11T12:33:15Z</time>
      </trkpt>
      <trkpt lat="50.59722" lon="3.05047">
        <ele>72.2</ele>
        <time>2018-05-11T12:33:19Z</time>
      </trkpt>
      <trkpt lat="50.59707" lon="3.05033">
        <ele>71.8</ele>
        <time>2018-05-11T12:33:23Z</time>
      </trkpt>
      <trkpt lat="50.59693" lon="3.05016">
        <ele>73</ele>
        <time>2018-05-11T12:33:27Z</time>
      </trkpt>
      <trkpt lat="50.5968" lon="3.04999">
        <ele>72.4</ele>
        <time>2018-05-11T12:33:31Z</time>
      </trkpt>
      <trkpt lat="50.59666" lon="3.04981">
        <ele>72.6</ele>
        <time>2018-05-11T12:33:35Z</time>
      </trkpt>
      <trkpt lat="50.59652" lon="3.04966">
        <ele>73.2</ele>
        <time>2018-05-11T12:33:39Z</time>
      </trkpt>
      <trkpt lat="50.59637" lon="3.0495">
        <ele>73</ele>
        <time>2018-05-11T12:33:43Z</time>
      </trkpt>
      <trkpt lat="50.59622" lon="3.04935">
        <ele>73.4</ele>
        <time>2018-05-11T12:33:47Z</time>
      </trkpt>
      <trkpt lat="50.59606" lon="3.04922">
        <ele>73.8</ele>
        <time>2018-05-11T12:33:51Z</time>
      </trkpt>
      <trkpt lat="50.5959" lon="3.0491">
        <ele>73.8</ele>
        <time>2018-05-11T12:33:55Z</time>
      </trkpt>
      <trkpt lat="50.59573" lon="3.04898">
        <ele>73.8</ele>
        <time>2018-05-11T12:33:59Z</time>
      </trkpt>
      <trkpt lat="50.59555" lon="3.04886">
        <ele>74.4</ele>
        <time>2018-05-11T12:34:03Z</time>
      </trkpt>
      <trkpt lat="50.59537" lon="3.04874">
        <ele>73</ele>
        <time>2018-05-11T12:34:07Z</time>
      </trkpt>
      <trkpt lat="50.5952" lon="3.04861">
        <ele>73.6</ele>
        <time>2018-05-11T12:34:11Z</time>
      </trkpt>
      <trkpt lat="50.59502" lon="3.04849">
        <ele>73</ele>
        <time>2018-05-11T12:34:15Z</time>
      </trkpt>
      <trkpt lat="50.59484" lon="3.04836">
        <ele>73</ele>
        <time>2018-05-11T12:34:19Z</time>
      </trkpt>
      <trkpt lat="50.59467" lon="3.04822">
        <ele>73.2</ele>
        <time>2018-05-11T12:34:23Z</time>
      </trkpt>
      <trkpt lat="50.5945" lon="3.04805">
        <ele>72.6</ele>
        <time>2018-05-11T12:34:27Z</time>
      </trkpt>
      <trkpt lat="50.59434" lon="3.04787">
        <ele>72.8</ele>
        <time>2018-05-11T12:34:31Z</time>
      </trkpt>
      <trkpt lat="50.59417" lon="3.0477">
        <ele>72.8</ele>
        <time>2018-05-11T12:34:35Z</time>
      </trkpt>
      <trkpt lat="50.59402" lon="3.04753">
        <ele>73.4</ele>
        <time>2018-05-11T12:34:39Z</time>
      </trkpt>
      <trkpt lat="50.59388" lon="3.04739">
        <ele>72.8</ele>
        <time>2018-05-11T12:34:43Z</time>
      </trkpt>
      <trkpt lat="50.59375" lon="3.04727">
        <ele>72.4</ele>
        <time>2018-05-11T12:34:47Z</time>
      </trkpt>
      <trkpt lat="50.59362" lon="3.04719">
        <ele>72.4</ele>
        <time>2018-05-11T12:34:51Z</time>
      </trkpt>
      <trkpt lat="50.59349" lon="3.04706">
        <ele>72</ele>
        <time>2018-05-11T12:34:55Z</time>
      </trkpt>
      <trkpt lat="50.59333" lon="3.0469">
        <ele>71.8</ele>
        <time>2018-05-11T12:34:59Z</time>
      </trkpt>
      <trkpt lat="50.59317" lon="3.04669">
        <ele>71.4</ele>
        <time>2018-05-11T12:35:03Z</time>
      </trkpt>
      <trkpt lat="50.59303" lon="3.04654">
        <ele>71.2</ele>
        <time>2018-05-11T12:35:07Z</time>
      </trkpt>
      <trkpt lat="50.59291" lon="3.04634">
        <ele>71.2</ele>
        <time>2018-05-11T12:35:11Z</time>
      </trkpt>
      <trkpt lat="50.59277" lon="3.04614">
        <ele>70.8</ele>
        <time>2018-05-11T12:35:15Z</time>
      </trkpt>
      <trkpt lat="50.59264" lon="3.04596">
        <ele>70.8</ele>
        <time>2018-05-11T12:35:19Z</time>
      </trkpt>
      <trkpt lat="50.5925" lon="3.04577">
        <ele>69.8</ele>
        <time>2018-05-11T12:35:23Z</time>
      </trkpt>
      <trkpt lat="50.59234" lon="3.04559">
        <ele>69.8</ele>
        <time>2018-05-11T12:35:27Z</time>
      </trkpt>
      <trkpt lat="50.5922" lon="3.04545">
        <ele>69.4</ele>
        <time>2018-05-11T12:35:31Z</time>
      </trkpt>
      <trkpt lat="50.59212" lon="3.04534">
        <ele>68.6</ele>
        <time>2018-05-11T12:35:35Z</time>
      </trkpt>
      <trkpt lat="50.59212" lon="3.04517">
        <ele>68.6</ele>
        <time>2018-05-11T12:35:39Z</time>
      </trkpt>
      <trkpt lat="50.59215" lon="3.04499">
        <ele>68.8</ele>
        <time>2018-05-11T12:35:43Z</time>
      </trkpt>
      <trkpt lat="50.59215" lon="3.04485">
        <ele>68</ele>
        <time>2018-05-11T12:35:47Z</time>
      </trkpt>
      <trkpt lat="50.59214" lon="3.04475">
        <ele>67.8</ele>
        <time>2018-05-11T12:35:51Z</time>
      </trkpt>
      <trkpt lat="50.59206" lon="3.04463">
        <ele>68</ele>
        <time>2018-05-11T12:35:55Z</time>
      </trkpt>
      <trkpt lat="50.592" lon="3.04445">
        <ele>67.8</ele>
        <time>2018-05-11T12:35:59Z</time>
      </trkpt>
      <trkpt lat="50.59206" lon="3.04424">
        <ele>68</ele>
        <time>2018-05-11T12:36:03Z</time>
      </trkpt>
      <trkpt lat="50.59212" lon="3.04401">
        <ele>68.4</ele>
        <time>2018-05-11T12:36:07Z</time>
      </trkpt>
      <trkpt lat="50.59212" lon="3.04376">
        <ele>68.4</ele>
        <time>2018-05-11T12:36:11Z</time>
      </trkpt>
      <trkpt lat="50.59209" lon="3.04348">
        <ele>68.2</ele>
        <time>2018-05-11T12:36:15Z</time>
      </trkpt>
      <trkpt lat="50.59206" lon="3.04321">
        <ele>68.4</ele>
        <time>2018-05-11T12:36:19Z</time>
      </trkpt>
      <trkpt lat="50.59203" lon="3.04293">
        <ele>68</ele>
        <time>2018-05-11T12:36:23Z</time>
      </trkpt>
      <trkpt lat="50.59203" lon="3.04263">
        <ele>67.6</ele>
        <time>2018-05-11T12:36:27Z</time>
      </trkpt>
      <trkpt lat="50.59208" lon="3.04233">
        <ele>67.8</ele>
        <time>2018-05-11T12:36:31Z</time>
      </trkpt>
      <trkpt lat="50.59216" lon="3.04203">
        <ele>67.8</ele>
        <time>2018-05-11T12:36:35Z</time>
      </trkpt>
      <trkpt lat="50.59224" lon="3.04175">
        <ele>67.8</ele>
        <time>2018-05-11T12:36:39Z</time>
      </trkpt>
      <trkpt lat="50.59232" lon="3.04145">
        <ele>67.4</ele>
        <time>2018-05-11T12:36:43Z</time>
      </trkpt>
      <trkpt lat="50.5924" lon="3.04114">
        <ele>68</ele>
        <time>2018-05-11T12:36:47Z</time>
      </trkpt>
      <trkpt lat="50.59232" lon="3.04089">
        <ele>68</ele>
        <time>2018-05-11T12:36:51Z</time>
      </trkpt>
      <trkpt lat="50.59215" lon="3.04074">
        <ele>68</ele>
        <time>2018-05-11T12:36:55Z</time>
      </trkpt>
      <trkpt lat="50.59197" lon="3.0406">
        <ele>67.6</ele>
        <time>2018-05-11T12:36:59Z</time>
      </trkpt>
      <trkpt lat="50.59177" lon="3.04053">
        <ele>67.8</ele>
        <time>2018-05-11T12:37:03Z</time>
      </trkpt>
      <trkpt lat="50.59157" lon="3.04053">
        <ele>67.2</ele>
        <time>2018-05-11T12:37:07Z</time>
      </trkpt>
      <trkpt lat="50.59137" lon="3.04055">
        <ele>66.8</ele>
        <time>2018-05-11T12:37:11Z</time>
      </trkpt>
      <trkpt lat="50.59116" lon="3.04058">
        <ele>66.8</ele>
        <time>2018-05-11T12:37:15Z</time>
      </trkpt>
      <trkpt lat="50.59096" lon="3.04062">
        <ele>66</ele>
        <time>2018-05-11T12:37:19Z</time>
      </trkpt>
      <trkpt lat="50.59075" lon="3.04066">
        <ele>65.8</ele>
        <time>2018-05-11T12:37:23Z</time>
      </trkpt>
      <trkpt lat="50.59055" lon="3.04069">
        <ele>65.8</ele>
        <time>2018-05-11T12:37:27Z</time>
      </trkpt>
      <trkpt lat="50.59033" lon="3.04072">
        <ele>65.2</ele>
        <time>2018-05-11T12:37:31Z</time>
      </trkpt>
      <trkpt lat="50.59012" lon="3.04068">
        <ele>65.4</ele>
        <time>2018-05-11T12:37:35Z</time>
      </trkpt>
      <trkpt lat="50.58993" lon="3.04053">
        <ele>64.6</ele>
        <time>2018-05-11T12:37:39Z</time>
      </trkpt>
      <trkpt lat="50.58977" lon="3.04033">
        <ele>65</ele>
        <time>2018-05-11T12:37:43Z</time>
      </trkpt>
      <trkpt lat="50.58959" lon="3.04011">
        <ele>64.8</ele>
        <time>2018-05-11T12:37:47Z</time>
      </trkpt>
      <trkpt lat="50.58942" lon="3.03993">
        <ele>64.4</ele>
        <time>2018-05-11T12:37:51Z</time>
      </trkpt>
      <trkpt lat="50.58926" lon="3.03982">
        <ele>63</ele>
        <time>2018-05-11T12:37:55Z</time>
      </trkpt>
      <trkpt lat="50.58911" lon="3.0397">
        <ele>63</ele>
        <time>2018-05-11T12:37:59Z</time>
      </trkpt>
      <trkpt lat="50.58901" lon="3.03963">
        <ele>62.6</ele>
        <time>2018-05-11T12:38:03Z</time>
      </trkpt>
      <trkpt lat="50.58893" lon="3.03957">
        <ele>63</ele>
        <time>2018-05-11T12:38:07Z</time>
      </trkpt>
      <trkpt lat="50.58882" lon="3.03949">
        <ele>62.6</ele>
        <time>2018-05-11T12:38:11Z</time>
      </trkpt>
      <trkpt lat="50.58866" lon="3.03936">
        <ele>62.2</ele>
        <time>2018-05-11T12:38:15Z</time>
      </trkpt>
      <trkpt lat="50.58849" lon="3.03923">
        <ele>62</ele>
        <time>2018-05-11T12:38:19Z</time>
      </trkpt>
      <trkpt lat="50.58832" lon="3.03911">
        <ele>62.4</ele>
        <time>2018-05-11T12:38:23Z</time>
      </trkpt>
      <trkpt lat="50.58815" lon="3.03898">
        <ele>61.8</ele>
        <time>2018-05-11T12:38:27Z</time>
      </trkpt>
      <trkpt lat="50.58797" lon="3.03885">
        <ele>61.6</ele>
        <time>2018-05-11T12:38:31Z</time>
      </trkpt>
      <trkpt lat="50.58781" lon="3.03869">
        <ele>61.4</ele>
        <time>2018-05-11T12:38:35Z</time>
      </trkpt>
      <trkpt lat="50.58768" lon="3.03847">
        <ele>60.8</ele>
        <time>2018-05-11T12:38:39Z</time>
      </trkpt>
      <trkpt lat="50.58754" lon="3.03832">
        <ele>60.2</ele>
        <time>2018-05-11T12:38:43Z</time>
      </trkpt>
      <trkpt lat="50.58736" lon="3.03834">
        <ele>59.6</ele>
        <time>2018-05-11T12:38:47Z</time>
      </trkpt>
      <trkpt lat="50.58718" lon="3.03823">
        <ele>59.2</ele>
        <time>2018-05-11T12:38:51Z</time>
      </trkpt>
      <trkpt lat="50.587" lon="3.0381">
        <ele>59</ele>
        <time>2018-05-11T12:38:55Z</time>
      </trkpt>
      <trkpt lat="50.58682" lon="3.03795">
        <ele>58.6</ele>
        <time>2018-05-11T12:38:59Z</time>
      </trkpt>
      <trkpt lat="50.5867" lon="3.03771">
        <ele>58.4</ele>
        <time>2018-05-11T12:39:03Z</time>
      </trkpt>
      <trkpt lat="50.58659" lon="3.03748">
        <ele>57.6</ele>
        <time>2018-05-11T12:39:07Z</time>
      </trkpt>
      <trkpt lat="50.5864" lon="3.03742">
        <ele>58.4</ele>
        <time>2018-05-11T12:39:11Z</time>
      </trkpt>
      <trkpt lat="50.5862" lon="3.03745">
        <ele>57.8</ele>
        <time>2018-05-11T12:39:15Z</time>
      </trkpt>
      <trkpt lat="50.58603" lon="3.03742">
        <ele>56.8</ele>
        <time>2018-05-11T12:39:19Z</time>
      </trkpt>
      <trkpt lat="50.58586" lon="3.03729">
        <ele>56</ele>
        <time>2018-05-11T12:39:23Z</time>
      </trkpt>
      <trkpt lat="50.5857" lon="3.03711">
        <ele>55.4</ele>
        <time>2018-05-11T12:39:27Z</time>
      </trkpt>
      <trkpt lat="50.58563" lon="3.03692">
        <ele>55.8</ele>
        <time>2018-05-11T12:39:31Z</time>
      </trkpt>
      <trkpt lat="50.58568" lon="3.0367">
        <ele>55.8</ele>
        <time>2018-05-11T12:39:35Z</time>
      </trkpt>
      <trkpt lat="50.58563" lon="3.03651">
        <ele>56.4</ele>
        <time>2018-05-11T12:39:39Z</time>
      </trkpt>
      <trkpt lat="50.58551" lon="3.03632">
        <ele>56</ele>
        <time>2018-05-11T12:39:43Z</time>
      </trkpt>
      <trkpt lat="50.58536" lon="3.03612">
        <ele>55.8</ele>
        <time>2018-05-11T12:39:47Z</time>
      </trkpt>
      <trkpt lat="50.5852" lon="3.03592">
        <ele>55</ele>
        <time>2018-05-11T12:39:51Z</time>
      </trkpt>
      <trkpt lat="50.58504" lon="3.03571">
        <ele>54.8</ele>
        <time>2018-05-11T12:39:55Z</time>
      </trkpt>
      <trkpt lat="50.58488" lon="3.03553">
        <ele>54</ele>
        <time>2018-05-11T12:39:59Z</time>
      </trkpt>
      <trkpt lat="50.58468" lon="3.03543">
        <ele>54.2</ele>
        <time>2018-05-11T12:40:03Z</time>
      </trkpt>
      <trkpt lat="50.58448" lon="3.03546">
        <ele>53.4</ele>
        <time>2018-05-11T12:40:07Z</time>
      </trkpt>
      <trkpt lat="50.58428" lon="3.03554">
        <ele>53.2</ele>
        <time>2018-05-11T12:40:11Z</time>
      </trkpt>
      <trkpt lat="50.58409" lon="3.03562">
        <ele>53.2</ele>
        <time>2018-05-11T12:40:15Z</time>
      </trkpt>
      <trkpt lat="50.58389" lon="3.03565">
        <ele>52.8</ele>
        <time>2018-05-11T12:40:19Z</time>
      </trkpt>
      <trkpt lat="50.58378" lon="3.03543">
        <ele>51.6</ele>
        <time>2018-05-11T12:40:23Z</time>
      </trkpt>
      <trkpt lat="50.58365" lon="3.0352">
        <ele>51.8</ele>
        <time>2018-05-11T12:40:27Z</time>
      </trkpt>
      <trkpt lat="50.58347" lon="3.03508">
        <ele>51.2</ele>
        <time>2018-05-11T12:40:31Z</time>
      </trkpt>
      <trkpt lat="50.58329" lon="3.035">
        <ele>50.4</ele>
        <time>2018-05-11T12:40:35Z</time>
      </trkpt>
      <trkpt lat="50.58319" lon="3.03495">
        <ele>50.2</ele>
        <time>2018-05-11T12:40:39Z</time>
      </trkpt>
      <trkpt lat="50.58312" lon="3.0349">
        <ele>50.4</ele>
        <time>2018-05-11T12:40:43Z</time>
      </trkpt>
      <trkpt lat="50.58299" lon="3.0348">
        <ele>50.2</ele>
        <time>2018-05-11T12:40:47Z</time>
      </trkpt>
      <trkpt lat="50.58283" lon="3.03469">
        <ele>50.2</ele>
        <time>2018-05-11T12:40:51Z</time>
      </trkpt>
      <trkpt lat="50.58267" lon="3.03456">
        <ele>50</ele>
        <time>2018-05-11T12:40:55Z</time>
      </trkpt>
      <trkpt lat="50.58249" lon="3.03443">
        <ele>49.8</ele>
        <time>2018-05-11T12:40:59Z</time>
      </trkpt>
      <trkpt lat="50.5823" lon="3.0343">
        <ele>49.6</ele>
        <time>2018-05-11T12:41:03Z</time>
      </trkpt>
      <trkpt lat="50.58211" lon="3.03422">
        <ele>50</ele>
        <time>2018-05-11T12:41:07Z</time>
      </trkpt>
      <trkpt lat="50.58193" lon="3.03423">
        <ele>50</ele>
        <time>2018-05-11T12:41:11Z</time>
      </trkpt>
      <trkpt lat="50.58174" lon="3.03427">
        <ele>49.6</ele>
        <time>2018-05-11T12:41:15Z</time>
      </trkpt>
      <trkpt lat="50.58155" lon="3.0343">
        <ele>49</ele>
        <time>2018-05-11T12:41:19Z</time>
      </trkpt>
      <trkpt lat="50.58136" lon="3.03433">
        <ele>49.6</ele>
        <time>2018-05-11T12:41:23Z</time>
      </trkpt>
      <trkpt lat="50.58121" lon="3.03419">
        <ele>49</ele>
        <time>2018-05-11T12:41:27Z</time>
      </trkpt>
      <trkpt lat="50.58116" lon="3.03393">
        <ele>48.6</ele>
        <time>2018-05-11T12:41:31Z</time>
      </trkpt>
      <trkpt lat="50.58115" lon="3.03379">
        <ele>48.4</ele>
        <time>2018-05-11T12:41:35Z</time>
      </trkpt>
      <trkpt lat="50.58111" lon="3.03372">
        <ele>48.2</ele>
        <time>2018-05-11T12:41:39Z</time>
      </trkpt>
      <trkpt lat="50.58098" lon="3.03371">
        <ele>48.4</ele>
        <time>2018-05-11T12:41:43Z</time>
      </trkpt>
      <trkpt lat="50.58085" lon="3.03372">
        <ele>48.2</ele>
        <time>2018-05-11T12:41:47Z</time>
      </trkpt>
      <trkpt lat="50.58069" lon="3.03373">
        <ele>48.2</ele>
        <time>2018-05-11T12:41:51Z</time>
      </trkpt>
      <trkpt lat="50.58052" lon="3.03375">
        <ele>47.8</ele>
        <time>2018-05-11T12:41:55Z</time>
      </trkpt>
      <trkpt lat="50.58036" lon="3.03376">
        <ele>48.6</ele>
        <time>2018-05-11T12:41:59Z</time>
      </trkpt>
      <trkpt lat="50.58021" lon="3.03377">
        <ele>48.4</ele>
        <time>2018-05-11T12:42:03Z</time>
      </trkpt>
      <trkpt lat="50.58011" lon="3.03361">
        <ele>48.6</ele>
        <time>2018-05-11T12:42:07Z</time>
      </trkpt>
      <trkpt lat="50.58" lon="3.03342">
        <ele>48.6</ele>
        <time>2018-05-11T12:42:11Z</time>
      </trkpt>
      <trkpt lat="50.57984" lon="3.03341">
        <ele>48.6</ele>
        <time>2018-05-11T12:42:15Z</time>
      </trkpt>
      <trkpt lat="50.57967" lon="3.03353">
        <ele>48.4</ele>
        <time>2018-05-11T12:42:19Z</time>
      </trkpt>
      <trkpt lat="50.57952" lon="3.03363">
        <ele>48</ele>
        <time>2018-05-11T12:42:23Z</time>
      </trkpt>
      <trkpt lat="50.57937" lon="3.03362">
        <ele>49</ele>
        <time>2018-05-11T12:42:27Z</time>
      </trkpt>
      <trkpt lat="50.5792" lon="3.03348">
        <ele>49</ele>
        <time>2018-05-11T12:42:31Z</time>
      </trkpt>
      <trkpt lat="50.57902" lon="3.03334">
        <ele>49.6</ele>
        <time>2018-05-11T12:42:35Z</time>
      </trkpt>
      <trkpt lat="50.57887" lon="3.03319">
        <ele>49.8</ele>
        <time>2018-05-11T12:42:39Z</time>
      </trkpt>
      <trkpt lat="50.57873" lon="3.03304">
        <ele>49</ele>
        <time>2018-05-11T12:42:43Z</time>
      </trkpt>
      <trkpt lat="50.5787" lon="3.03286">
        <ele>48.6</ele>
        <time>2018-05-11T12:42:47Z</time>
      </trkpt>
      <trkpt lat="50.5788" lon="3.03263">
        <ele>48.6</ele>
        <time>2018-05-11T12:42:51Z</time>
      </trkpt>
      <trkpt lat="50.57889" lon="3.03235">
        <ele>48</ele>
        <time>2018-05-11T12:42:55Z</time>
      </trkpt>
      <trkpt lat="50.57898" lon="3.03208">
        <ele>48</ele>
        <time>2018-05-11T12:42:59Z</time>
      </trkpt>
      <trkpt lat="50.57907" lon="3.03179">
        <ele>48</ele>
        <time>2018-05-11T12:43:03Z</time>
      </trkpt>
      <trkpt lat="50.57918" lon="3.03153">
        <ele>47.6</ele>
        <time>2018-05-11T12:43:07Z</time>
      </trkpt>
      <trkpt lat="50.5793" lon="3.03127">
        <ele>48</ele>
        <time>2018-05-11T12:43:11Z</time>
      </trkpt>
      <trkpt lat="50.57941" lon="3.03102">
        <ele>48</ele>
        <time>2018-05-11T12:43:15Z</time>
      </trkpt>
      <trkpt lat="50.57946" lon="3.03092">
        <ele>47</ele>
        <time>2018-05-11T12:43:19Z</time>
      </trkpt>
      <trkpt lat="50.57952" lon="3.03078">
        <ele>47.2</ele>
        <time>2018-05-11T12:43:23Z</time>
      </trkpt>
      <trkpt lat="50.57961" lon="3.03058">
        <ele>47.2</ele>
        <time>2018-05-11T12:43:27Z</time>
      </trkpt>
      <trkpt lat="50.57972" lon="3.03035">
        <ele>47</ele>
        <time>2018-05-11T12:43:31Z</time>
      </trkpt>
      <trkpt lat="50.57984" lon="3.0301">
        <ele>46.6</ele>
        <time>2018-05-11T12:43:35Z</time>
      </trkpt>
      <trkpt lat="50.57996" lon="3.02986">
        <ele>46.8</ele>
        <time>2018-05-11T12:43:39Z</time>
      </trkpt>
      <trkpt lat="50.58012" lon="3.02962">
        <ele>46.6</ele>
        <time>2018-05-11T12:43:43Z</time>
      </trkpt>
      <trkpt lat="50.58029" lon="3.02943">
        <ele>46.6</ele>
        <time>2018-05-11T12:43:47Z</time>
      </trkpt>
      <trkpt lat="50.58047" lon="3.02924">
        <ele>46.4</ele>
        <time>2018-05-11T12:43:51Z</time>
      </trkpt>
      <trkpt lat="50.58064" lon="3.02906">
        <ele>46.6</ele>
        <time>2018-05-11T12:43:55Z</time>
      </trkpt>
      <trkpt lat="50.58082" lon="3.02889">
        <ele>47</ele>
        <time>2018-05-11T12:43:59Z</time>
      </trkpt>
      <trkpt lat="50.58101" lon="3.02872">
        <ele>46.8</ele>
        <time>2018-05-11T12:44:03Z</time>
      </trkpt>
      <trkpt lat="50.58119" lon="3.02854">
        <ele>46.6</ele>
        <time>2018-05-11T12:44:07Z</time>
      </trkpt>
      <trkpt lat="50.58137" lon="3.02835">
        <ele>46.6</ele>
        <time>2018-05-11T12:44:11Z</time>
      </trkpt>
      <trkpt lat="50.58156" lon="3.02819">
        <ele>46.8</ele>
        <time>2018-05-11T12:44:15Z</time>
      </trkpt>
      <trkpt lat="50.58173" lon="3.02807">
        <ele>46.2</ele>
        <time>2018-05-11T12:44:19Z</time>
      </trkpt>
      <trkpt lat="50.58183" lon="3.02797">
        <ele>46.4</ele>
        <time>2018-05-11T12:44:23Z</time>
      </trkpt>
      <trkpt lat="50.58185" lon="3.02784">
        <ele>46.6</ele>
        <time>2018-05-11T12:44:27Z</time>
      </trkpt>
      <trkpt lat="50.5818" lon="3.02761">
        <ele>46.8</ele>
        <time>2018-05-11T12:44:31Z</time>
      </trkpt>
      <trkpt lat="50.58174" lon="3.02736">
        <ele>46.8</ele>
        <time>2018-05-11T12:44:35Z</time>
      </trkpt>
      <trkpt lat="50.5817" lon="3.02709">
        <ele>46.8</ele>
        <time>2018-05-11T12:44:39Z</time>
      </trkpt>
      <trkpt lat="50.58168" lon="3.02691">
        <ele>46.6</ele>
        <time>2018-05-11T12:44:43Z</time>
      </trkpt>
      <trkpt lat="50.58166" lon="3.02673">
        <ele>46.4</ele>
        <time>2018-05-11T12:44:47Z</time>
      </trkpt>
      <trkpt lat="50.58165" lon="3.02649">
        <ele>46.6</ele>
        <time>2018-05-11T12:44:51Z</time>
      </trkpt>
      <trkpt lat="50.58164" lon="3.0262">
        <ele>46.2</ele>
        <time>2018-05-11T12:44:55Z</time>
      </trkpt>
      <trkpt lat="50.58164" lon="3.02591">
        <ele>47</ele>
        <time>2018-05-11T12:44:59Z</time>
      </trkpt>
      <trkpt lat="50.58164" lon="3.02562">
        <ele>46.6</ele>
        <time>2018-05-11T12:45:03Z</time>
      </trkpt>
      <trkpt lat="50.58166" lon="3.02532">
        <ele>46.6</ele>
        <time>2018-05-11T12:45:07Z</time>
      </trkpt>
      <trkpt lat="50.58172" lon="3.02502">
        <ele>46.4</ele>
        <time>2018-05-11T12:45:11Z</time>
      </trkpt>
      <trkpt lat="50.58178" lon="3.02471">
        <ele>46.2</ele>
        <time>2018-05-11T12:45:15Z</time>
      </trkpt>
      <trkpt lat="50.58184" lon="3.02439">
        <ele>46.2</ele>
        <time>2018-05-11T12:45:19Z</time>
      </trkpt>
      <trkpt lat="50.58189" lon="3.02408">
        <ele>45.8</ele>
        <time>2018-05-11T12:45:23Z</time>
      </trkpt>
      <trkpt lat="50.58194" lon="3.02378">
        <ele>45.6</ele>
        <time>2018-05-11T12:45:27Z</time>
      </trkpt>
      <trkpt lat="50.58199" lon="3.02347">
        <ele>45.6</ele>
        <time>2018-05-11T12:45:31Z</time>
      </trkpt>
      <trkpt lat="50.58203" lon="3.02317">
        <ele>46</ele>
        <time>2018-05-11T12:45:35Z</time>
      </trkpt>
      <trkpt lat="50.58207" lon="3.02287">
        <ele>46</ele>
        <time>2018-05-11T12:45:39Z</time>
      </trkpt>
      <trkpt lat="50.5821" lon="3.02255">
        <ele>46.2</ele>
        <time>2018-05-11T12:45:43Z</time>
      </trkpt>
      <trkpt lat="50.58214" lon="3.02224">
        <ele>45.8</ele>
        <time>2018-05-11T12:45:47Z</time>
      </trkpt>
      <trkpt lat="50.5822" lon="3.02194">
        <ele>46.2</ele>
        <time>2018-05-11T12:45:51Z</time>
      </trkpt>
      <trkpt lat="50.58228" lon="3.02166">
        <ele>46</ele>
        <time>2018-05-11T12:45:55Z</time>
      </trkpt>
      <trkpt lat="50.58236" lon="3.0214">
        <ele>46.2</ele>
        <time>2018-05-11T12:45:59Z</time>
      </trkpt>
      <trkpt lat="50.58242" lon="3.02118">
        <ele>46</ele>
        <time>2018-05-11T12:46:03Z</time>
      </trkpt>
      <trkpt lat="50.58248" lon="3.02099">
        <ele>45.8</ele>
        <time>2018-05-11T12:46:07Z</time>
      </trkpt>
      <trkpt lat="50.58253" lon="3.02073">
        <ele>45.6</ele>
        <time>2018-05-11T12:46:11Z</time>
      </trkpt>
      <trkpt lat="50.58256" lon="3.02044">
        <ele>45.6</ele>
        <time>2018-05-11T12:46:15Z</time>
      </trkpt>
      <trkpt lat="50.58259" lon="3.02013">
        <ele>45.2</ele>
        <time>2018-05-11T12:46:19Z</time>
      </trkpt>
      <trkpt lat="50.58262" lon="3.0198">
        <ele>45</ele>
        <time>2018-05-11T12:46:23Z</time>
      </trkpt>
      <trkpt lat="50.58265" lon="3.01946">
        <ele>44.6</ele>
        <time>2018-05-11T12:46:27Z</time>
      </trkpt>
      <trkpt lat="50.58269" lon="3.01912">
        <ele>45.2</ele>
        <time>2018-05-11T12:46:31Z</time>
      </trkpt>
      <trkpt lat="50.58272" lon="3.01878">
        <ele>45</ele>
        <time>2018-05-11T12:46:35Z</time>
      </trkpt>
      <trkpt lat="50.58275" lon="3.01844">
        <ele>44.2</ele>
        <time>2018-05-11T12:46:39Z</time>
      </trkpt>
      <trkpt lat="50.58279" lon="3.01809">
        <ele>45</ele>
        <time>2018-05-11T12:46:43Z</time>
      </trkpt>
      <trkpt lat="50.58282" lon="3.01777">
        <ele>45.2</ele>
        <time>2018-05-11T12:46:47Z</time>
      </trkpt>
      <trkpt lat="50.58285" lon="3.01745">
        <ele>46</ele>
        <time>2018-05-11T12:46:51Z</time>
      </trkpt>
      <trkpt lat="50.58288" lon="3.01713">
        <ele>46</ele>
        <time>2018-05-11T12:46:55Z</time>
      </trkpt>
      <trkpt lat="50.58291" lon="3.01681">
        <ele>45.6</ele>
        <time>2018-05-11T12:46:59Z</time>
      </trkpt>
      <trkpt lat="50.58295" lon="3.01648">
        <ele>45.2</ele>
        <time>2018-05-11T12:47:03Z</time>
      </trkpt>
      <trkpt lat="50.58299" lon="3.01615">
        <ele>45</ele>
        <time>2018-05-11T12:47:07Z</time>
      </trkpt>
      <trkpt lat="50.58302" lon="3.01583">
        <ele>45.2</ele>
        <time>2018-05-11T12:47:11Z</time>
      </trkpt>
      <trkpt lat="50.58305" lon="3.01553">
        <ele>45.4</ele>
        <time>2018-05-11T12:47:15Z</time>
      </trkpt>
      <trkpt lat="50.58308" lon="3.01523">
        <ele>46.2</ele>
        <time>2018-05-11T12:47:19Z</time>
      </trkpt>
      <trkpt lat="50.58311" lon="3.01492">
        <ele>46</ele>
        <time>2018-05-11T12:47:23Z</time>
      </trkpt>
      <trkpt lat="50.58312" lon="3.01458">
        <ele>45.4</ele>
        <time>2018-05-11T12:47:27Z</time>
      </trkpt>
      <trkpt lat="50.58309" lon="3.01425">
        <ele>45.8</ele>
        <time>2018-05-11T12:47:31Z</time>
      </trkpt>
      <trkpt lat="50.58306" lon="3.01391">
        <ele>45.2</ele>
        <time>2018-05-11T12:47:35Z</time>
      </trkpt>
      <trkpt lat="50.58305" lon="3.01357">
        <ele>44.8</ele>
        <time>2018-05-11T12:47:39Z</time>
      </trkpt>
      <trkpt lat="50.58307" lon="3.01322">
        <ele>44.4</ele>
        <time>2018-05-11T12:47:43Z</time>
      </trkpt>
      <trkpt lat="50.58309" lon="3.0129">
        <ele>44.2</ele>
        <time>2018-05-11T12:47:47Z</time>
      </trkpt>
      <trkpt lat="50.58311" lon="3.01269">
        <ele>44.4</ele>
        <time>2018-05-11T12:47:51Z</time>
      </trkpt>
      <trkpt lat="50.58312" lon="3.01265">
        <ele>44.8</ele>
        <time>2018-05-11T12:48:11Z</time>
      </trkpt>
      <trkpt lat="50.58315" lon="3.01255">
        <ele>44.8</ele>
        <time>2018-05-11T12:48:15Z</time>
      </trkpt>
      <trkpt lat="50.58321" lon="3.01236">
        <ele>45</ele>
        <time>2018-05-11T12:48:19Z</time>
      </trkpt>
      <trkpt lat="50.58331" lon="3.01215">
        <ele>44.2</ele>
        <time>2018-05-11T12:48:23Z</time>
      </trkpt>
      <trkpt lat="50.58342" lon="3.01193">
        <ele>44.6</ele>
        <time>2018-05-11T12:48:27Z</time>
      </trkpt>
      <trkpt lat="50.58353" lon="3.01167">
        <ele>45.2</ele>
        <time>2018-05-11T12:48:31Z</time>
      </trkpt>
      <trkpt lat="50.5836" lon="3.01139">
        <ele>43</ele>
        <time>2018-05-11T12:48:35Z</time>
      </trkpt>
      <trkpt lat="50.58368" lon="3.01109">
        <ele>44.2</ele>
        <time>2018-05-11T12:48:39Z</time>
      </trkpt>
      <trkpt lat="50.58375" lon="3.01078">
        <ele>44.2</ele>
        <time>2018-05-11T12:48:43Z</time>
      </trkpt>
      <trkpt lat="50.58383" lon="3.01045">
        <ele>44.2</ele>
        <time>2018-05-11T12:48:47Z</time>
      </trkpt>
      <trkpt lat="50.58392" lon="3.01014">
        <ele>43.8</ele>
        <time>2018-05-11T12:48:51Z</time>
      </trkpt>
      <trkpt lat="50.58402" lon="3.00983">
        <ele>43.8</ele>
        <time>2018-05-11T12:48:55Z</time>
      </trkpt>
      <trkpt lat="50.58411" lon="3.00954">
        <ele>44.2</ele>
        <time>2018-05-11T12:48:59Z</time>
      </trkpt>
      <trkpt lat="50.58416" lon="3.00927">
        <ele>45.2</ele>
        <time>2018-05-11T12:49:03Z</time>
      </trkpt>
      <trkpt lat="50.58402" lon="3.0091">
        <ele>45.2</ele>
        <time>2018-05-11T12:49:07Z</time>
      </trkpt>
      <trkpt lat="50.58386" lon="3.00896">
        <ele>44.8</ele>
        <time>2018-05-11T12:49:11Z</time>
      </trkpt>
      <trkpt lat="50.58372" lon="3.00882">
        <ele>45</ele>
        <time>2018-05-11T12:49:15Z</time>
      </trkpt>
      <trkpt lat="50.58354" lon="3.0087">
        <ele>43.4</ele>
        <time>2018-05-11T12:49:19Z</time>
      </trkpt>
      <trkpt lat="50.58335" lon="3.0086">
        <ele>43</ele>
        <time>2018-05-11T12:49:23Z</time>
      </trkpt>
      <trkpt lat="50.58317" lon="3.00848">
        <ele>43.4</ele>
        <time>2018-05-11T12:49:27Z</time>
      </trkpt>
      <trkpt lat="50.58301" lon="3.00836">
        <ele>43.6</ele>
        <time>2018-05-11T12:49:31Z</time>
      </trkpt>
      <trkpt lat="50.58285" lon="3.00825">
        <ele>43.4</ele>
        <time>2018-05-11T12:49:35Z</time>
      </trkpt>
      <trkpt lat="50.5827" lon="3.00814">
        <ele>44</ele>
        <time>2018-05-11T12:49:39Z</time>
      </trkpt>
      <trkpt lat="50.58254" lon="3.00805">
        <ele>44.2</ele>
        <time>2018-05-11T12:49:43Z</time>
      </trkpt>
      <trkpt lat="50.58237" lon="3.00796">
        <ele>44.4</ele>
        <time>2018-05-11T12:49:47Z</time>
      </trkpt>
      <trkpt lat="50.58222" lon="3.00786">
        <ele>44.2</ele>
        <time>2018-05-11T12:49:51Z</time>
      </trkpt>
      <trkpt lat="50.58208" lon="3.00777">
        <ele>44.2</ele>
        <time>2018-05-11T12:49:55Z</time>
      </trkpt>
      <trkpt lat="50.58193" lon="3.00767">
        <ele>43</ele>
        <time>2018-05-11T12:49:59Z</time>
      </trkpt>
      <trkpt lat="50.58177" lon="3.00755">
        <ele>44</ele>
        <time>2018-05-11T12:50:03Z</time>
      </trkpt>
      <trkpt lat="50.58164" lon="3.00744">
        <ele>43.4</ele>
        <time>2018-05-11T12:50:07Z</time>
      </trkpt>
      <trkpt lat="50.58148" lon="3.00733">
        <ele>44</ele>
        <time>2018-05-11T12:50:11Z</time>
      </trkpt>
      <trkpt lat="50.58133" lon="3.00724">
        <ele>43.8</ele>
        <time>2018-05-11T12:50:15Z</time>
      </trkpt>
      <trkpt lat="50.58115" lon="3.00713">
        <ele>43.4</ele>
        <time>2018-05-11T12:50:19Z</time>
      </trkpt>
      <trkpt lat="50.58097" lon="3.007">
        <ele>43.2</ele>
        <time>2018-05-11T12:50:23Z</time>
      </trkpt>
      <trkpt lat="50.58081" lon="3.00688">
        <ele>43.2</ele>
        <time>2018-05-11T12:50:27Z</time>
      </trkpt>
      <trkpt lat="50.58065" lon="3.00677">
        <ele>43.8</ele>
        <time>2018-05-11T12:50:31Z</time>
      </trkpt>
      <trkpt lat="50.5805" lon="3.00666">
        <ele>43.6</ele>
        <time>2018-05-11T12:50:35Z</time>
      </trkpt>
      <trkpt lat="50.58034" lon="3.00656">
        <ele>44.2</ele>
        <time>2018-05-11T12:50:39Z</time>
      </trkpt>
      <trkpt lat="50.58019" lon="3.00646">
        <ele>44.2</ele>
        <time>2018-05-11T12:50:43Z</time>
      </trkpt>
      <trkpt lat="50.58005" lon="3.00636">
        <ele>44.4</ele>
        <time>2018-05-11T12:50:47Z</time>
      </trkpt>
      <trkpt lat="50.57991" lon="3.00626">
        <ele>44.4</ele>
        <time>2018-05-11T12:50:51Z</time>
      </trkpt>
      <trkpt lat="50.57976" lon="3.00616">
        <ele>44.4</ele>
        <time>2018-05-11T12:50:55Z</time>
      </trkpt>
      <trkpt lat="50.57961" lon="3.00606">
        <ele>44.2</ele>
        <time>2018-05-11T12:50:59Z</time>
      </trkpt>
      <trkpt lat="50.57948" lon="3.00594">
        <ele>43.6</ele>
        <time>2018-05-11T12:51:03Z</time>
      </trkpt>
      <trkpt lat="50.57947" lon="3.00571">
        <ele>44</ele>
        <time>2018-05-11T12:51:07Z</time>
      </trkpt>
      <trkpt lat="50.5795" lon="3.0055">
        <ele>43.4</ele>
        <time>2018-05-11T12:51:11Z</time>
      </trkpt>
      <trkpt lat="50.57954" lon="3.00529">
        <ele>43.6</ele>
        <time>2018-05-11T12:51:15Z</time>
      </trkpt>
      <trkpt lat="50.57957" lon="3.00506">
        <ele>44</ele>
        <time>2018-05-11T12:51:19Z</time>
      </trkpt>
      <trkpt lat="50.57961" lon="3.00479">
        <ele>43.2</ele>
        <time>2018-05-11T12:51:23Z</time>
      </trkpt>
      <trkpt lat="50.57965" lon="3.00454">
        <ele>43.6</ele>
        <time>2018-05-11T12:51:27Z</time>
      </trkpt>
      <trkpt lat="50.5797" lon="3.00429">
        <ele>43.2</ele>
        <time>2018-05-11T12:51:31Z</time>
      </trkpt>
      <trkpt lat="50.57975" lon="3.00402">
        <ele>43.2</ele>
        <time>2018-05-11T12:51:35Z</time>
      </trkpt>
      <trkpt lat="50.57981" lon="3.00374">
        <ele>43.4</ele>
        <time>2018-05-11T12:51:39Z</time>
      </trkpt>
      <trkpt lat="50.57987" lon="3.00346">
        <ele>43</ele>
        <time>2018-05-11T12:51:43Z</time>
      </trkpt>
      <trkpt lat="50.57992" lon="3.00318">
        <ele>43.2</ele>
        <time>2018-05-11T12:51:47Z</time>
      </trkpt>
      <trkpt lat="50.57998" lon="3.0029">
        <ele>43.2</ele>
        <time>2018-05-11T12:51:51Z</time>
      </trkpt>
      <trkpt lat="50.58003" lon="3.00261">
        <ele>43.2</ele>
        <time>2018-05-11T12:51:55Z</time>
      </trkpt>
      <trkpt lat="50.58009" lon="3.00231">
        <ele>42.8</ele>
        <time>2018-05-11T12:51:59Z</time>
      </trkpt>
      <trkpt lat="50.58014" lon="3.00203">
        <ele>43</ele>
        <time>2018-05-11T12:52:03Z</time>
      </trkpt>
      <trkpt lat="50.58019" lon="3.00175">
        <ele>43.2</ele>
        <time>2018-05-11T12:52:07Z</time>
      </trkpt>
      <trkpt lat="50.58025" lon="3.00144">
        <ele>43.4</ele>
        <time>2018-05-11T12:52:11Z</time>
      </trkpt>
      <trkpt lat="50.5803" lon="3.00115">
        <ele>44</ele>
        <time>2018-05-11T12:52:15Z</time>
      </trkpt>
      <trkpt lat="50.58034" lon="3.00088">
        <ele>43.4</ele>
        <time>2018-05-11T12:52:19Z</time>
      </trkpt>
      <trkpt lat="50.58039" lon="3.00059">
        <ele>43</ele>
        <time>2018-05-11T12:52:23Z</time>
      </trkpt>
      <trkpt lat="50.58045" lon="3.0003">
        <ele>43.2</ele>
        <time>2018-05-11T12:52:27Z</time>
      </trkpt>
      <trkpt lat="50.58051" lon="3.00001">
        <ele>43</ele>
        <time>2018-05-11T12:52:31Z</time>
      </trkpt>
      <trkpt lat="50.58055" lon="2.99973">
        <ele>43.8</ele>
        <time>2018-05-11T12:52:35Z</time>
      </trkpt>
      <trkpt lat="50.58059" lon="2.99945">
        <ele>43.4</ele>
        <time>2018-05-11T12:52:39Z</time>
      </trkpt>
      <trkpt lat="50.58064" lon="2.99917">
        <ele>43.6</ele>
        <time>2018-05-11T12:52:43Z</time>
      </trkpt>
      <trkpt lat="50.58069" lon="2.9989">
        <ele>44.2</ele>
        <time>2018-05-11T12:52:47Z</time>
      </trkpt>
      <trkpt lat="50.58075" lon="2.99862">
        <ele>43.4</ele>
        <time>2018-05-11T12:52:51Z</time>
      </trkpt>
      <trkpt lat="50.5808" lon="2.99834">
        <ele>43.4</ele>
        <time>2018-05-11T12:52:55Z</time>
      </trkpt>
      <trkpt lat="50.58085" lon="2.99805">
        <ele>43.4</ele>
        <time>2018-05-11T12:52:59Z</time>
      </trkpt>
      <trkpt lat="50.58091" lon="2.99777">
        <ele>43.6</ele>
        <time>2018-05-11T12:53:03Z</time>
      </trkpt>
      <trkpt lat="50.58095" lon="2.9975">
        <ele>43.8</ele>
        <time>2018-05-11T12:53:07Z</time>
      </trkpt>
      <trkpt lat="50.581" lon="2.99721">
        <ele>43.2</ele>
        <time>2018-05-11T12:53:11Z</time>
      </trkpt>
      <trkpt lat="50.58106" lon="2.99692">
        <ele>43.2</ele>
        <time>2018-05-11T12:53:15Z</time>
      </trkpt>
      <trkpt lat="50.58111" lon="2.99662">
        <ele>43</ele>
        <time>2018-05-11T12:53:19Z</time>
      </trkpt>
      <trkpt lat="50.58117" lon="2.99631">
        <ele>43.2</ele>
        <time>2018-05-11T12:53:23Z</time>
      </trkpt>
      <trkpt lat="50.58123" lon="2.99602">
        <ele>43.2</ele>
        <time>2018-05-11T12:53:27Z</time>
      </trkpt>
      <trkpt lat="50.58127" lon="2.99575">
        <ele>43.6</ele>
        <time>2018-05-11T12:53:31Z</time>
      </trkpt>
      <trkpt lat="50.58133" lon="2.99547">
        <ele>44</ele>
        <time>2018-05-11T12:53:35Z</time>
      </trkpt>
      <trkpt lat="50.58138" lon="2.9952">
        <ele>43.8</ele>
        <time>2018-05-11T12:53:39Z</time>
      </trkpt>
      <trkpt lat="50.58145" lon="2.99491">
        <ele>43.4</ele>
        <time>2018-05-11T12:53:43Z</time>
      </trkpt>
      <trkpt lat="50.58149" lon="2.99463">
        <ele>44.2</ele>
        <time>2018-05-11T12:53:47Z</time>
      </trkpt>
      <trkpt lat="50.58153" lon="2.99436">
        <ele>43.6</ele>
        <time>2018-05-11T12:53:51Z</time>
      </trkpt>
      <trkpt lat="50.58159" lon="2.99406">
        <ele>42.8</ele>
        <time>2018-05-11T12:53:55Z</time>
      </trkpt>
      <trkpt lat="50.58163" lon="2.99377">
        <ele>43.2</ele>
        <time>2018-05-11T12:53:59Z</time>
      </trkpt>
      <trkpt lat="50.58168" lon="2.99347">
        <ele>43</ele>
        <time>2018-05-11T12:54:03Z</time>
      </trkpt>
      <trkpt lat="50.58172" lon="2.9932">
        <ele>43.8</ele>
        <time>2018-05-11T12:54:07Z</time>
      </trkpt>
      <trkpt lat="50.58178" lon="2.99292">
        <ele>42.6</ele>
        <time>2018-05-11T12:54:11Z</time>
      </trkpt>
      <trkpt lat="50.58183" lon="2.99263">
        <ele>42.4</ele>
        <time>2018-05-11T12:54:15Z</time>
      </trkpt>
      <trkpt lat="50.58189" lon="2.99236">
        <ele>43.2</ele>
        <time>2018-05-11T12:54:19Z</time>
      </trkpt>
      <trkpt lat="50.58193" lon="2.99211">
        <ele>42.8</ele>
        <time>2018-05-11T12:54:23Z</time>
      </trkpt>
      <trkpt lat="50.58199" lon="2.99182">
        <ele>42.8</ele>
        <time>2018-05-11T12:54:27Z</time>
      </trkpt>
      <trkpt lat="50.58205" lon="2.99156">
        <ele>43.2</ele>
        <time>2018-05-11T12:54:31Z</time>
      </trkpt>
      <trkpt lat="50.58211" lon="2.99129">
        <ele>43.4</ele>
        <time>2018-05-11T12:54:35Z</time>
      </trkpt>
      <trkpt lat="50.58214" lon="2.99102">
        <ele>43.4</ele>
        <time>2018-05-11T12:54:39Z</time>
      </trkpt>
      <trkpt lat="50.58219" lon="2.99075">
        <ele>43.4</ele>
        <time>2018-05-11T12:54:43Z</time>
      </trkpt>
      <trkpt lat="50.58223" lon="2.9905">
        <ele>43.6</ele>
        <time>2018-05-11T12:54:47Z</time>
      </trkpt>
      <trkpt lat="50.58228" lon="2.99023">
        <ele>43.6</ele>
        <time>2018-05-11T12:54:51Z</time>
      </trkpt>
      <trkpt lat="50.58232" lon="2.98998">
        <ele>43.6</ele>
        <time>2018-05-11T12:54:55Z</time>
      </trkpt>
      <trkpt lat="50.58237" lon="2.98972">
        <ele>43.4</ele>
        <time>2018-05-11T12:54:59Z</time>
      </trkpt>
      <trkpt lat="50.58242" lon="2.98947">
        <ele>43</ele>
        <time>2018-05-11T12:55:03Z</time>
      </trkpt>
      <trkpt lat="50.58246" lon="2.98923">
        <ele>43.4</ele>
        <time>2018-05-11T12:55:07Z</time>
      </trkpt>
      <trkpt lat="50.58249" lon="2.98908">
        <ele>43</ele>
        <time>2018-05-11T12:55:11Z</time>
      </trkpt>
      <trkpt lat="50.58249" lon="2.98901">
        <ele>43.2</ele>
        <time>2018-05-11T12:55:15Z</time>
      </trkpt>
      <trkpt lat="50.58253" lon="2.9889">
        <ele>43</ele>
        <time>2018-05-11T12:55:19Z</time>
      </trkpt>
      <trkpt lat="50.58256" lon="2.98879">
        <ele>43.2</ele>
        <time>2018-05-11T12:55:23Z</time>
      </trkpt>
      <trkpt lat="50.58256" lon="2.98859">
        <ele>43</ele>
        <time>2018-05-11T12:55:27Z</time>
      </trkpt>
      <trkpt lat="50.58254" lon="2.98836">
        <ele>43.4</ele>
        <time>2018-05-11T12:55:31Z</time>
      </trkpt>
      <trkpt lat="50.58253" lon="2.98812">
        <ele>43.4</ele>
        <time>2018-05-11T12:55:35Z</time>
      </trkpt>
      <trkpt lat="50.58251" lon="2.98787">
        <ele>43.4</ele>
        <time>2018-05-11T12:55:39Z</time>
      </trkpt>
      <trkpt lat="50.58247" lon="2.98761">
        <ele>43.2</ele>
        <time>2018-05-11T12:55:43Z</time>
      </trkpt>
      <trkpt lat="50.58246" lon="2.98735">
        <ele>44</ele>
        <time>2018-05-11T12:55:47Z</time>
      </trkpt>
      <trkpt lat="50.58248" lon="2.98709">
        <ele>43.8</ele>
        <time>2018-05-11T12:55:51Z</time>
      </trkpt>
      <trkpt lat="50.58252" lon="2.98681">
        <ele>43.8</ele>
        <time>2018-05-11T12:55:55Z</time>
      </trkpt>
      <trkpt lat="50.58257" lon="2.98651">
        <ele>43.6</ele>
        <time>2018-05-11T12:55:59Z</time>
      </trkpt>
      <trkpt lat="50.58262" lon="2.98622">
        <ele>43.2</ele>
        <time>2018-05-11T12:56:03Z</time>
      </trkpt>
      <trkpt lat="50.58268" lon="2.98593">
        <ele>43.4</ele>
        <time>2018-05-11T12:56:07Z</time>
      </trkpt>
      <trkpt lat="50.58273" lon="2.98564">
        <ele>43.8</ele>
        <time>2018-05-11T12:56:11Z</time>
      </trkpt>
      <trkpt lat="50.58278" lon="2.98539">
        <ele>43.8</ele>
        <time>2018-05-11T12:56:15Z</time>
      </trkpt>
      <trkpt lat="50.58271" lon="2.98524">
        <ele>43.2</ele>
        <time>2018-05-11T12:56:19Z</time>
      </trkpt>
      <trkpt lat="50.58252" lon="2.98524">
        <ele>42.4</ele>
        <time>2018-05-11T12:56:23Z</time>
      </trkpt>
      <trkpt lat="50.58229" lon="2.98526">
        <ele>42.4</ele>
        <time>2018-05-11T12:56:27Z</time>
      </trkpt>
      <trkpt lat="50.5821" lon="2.98528">
        <ele>42.2</ele>
        <time>2018-05-11T12:56:31Z</time>
      </trkpt>
      <trkpt lat="50.58191" lon="2.98523">
        <ele>42.6</ele>
        <time>2018-05-11T12:56:35Z</time>
      </trkpt>
      <trkpt lat="50.58174" lon="2.98517">
        <ele>42.8</ele>
        <time>2018-05-11T12:56:39Z</time>
      </trkpt>
      <trkpt lat="50.58163" lon="2.98516">
        <ele>43.2</ele>
        <time>2018-05-11T12:56:43Z</time>
      </trkpt>
      <trkpt lat="50.58149" lon="2.9852">
        <ele>43.6</ele>
        <time>2018-05-11T12:56:47Z</time>
      </trkpt>
      <trkpt lat="50.58131" lon="2.98529">
        <ele>43</ele>
        <time>2018-05-11T12:56:51Z</time>
      </trkpt>
      <trkpt lat="50.58115" lon="2.98534">
        <ele>43.2</ele>
        <time>2018-05-11T12:56:55Z</time>
      </trkpt>
      <trkpt lat="50.581" lon="2.9854">
        <ele>43.4</ele>
        <time>2018-05-11T12:56:59Z</time>
      </trkpt>
      <trkpt lat="50.58084" lon="2.98544">
        <ele>43.4</ele>
        <time>2018-05-11T12:57:03Z</time>
      </trkpt>
      <trkpt lat="50.58068" lon="2.98544">
        <ele>43.4</ele>
        <time>2018-05-11T12:57:07Z</time>
      </trkpt>
      <trkpt lat="50.58051" lon="2.98546">
        <ele>43</ele>
        <time>2018-05-11T12:57:11Z</time>
      </trkpt>
      <trkpt lat="50.58031" lon="2.98538">
        <ele>43.2</ele>
        <time>2018-05-11T12:57:15Z</time>
      </trkpt>
      <trkpt lat="50.58023" lon="2.98516">
        <ele>42.8</ele>
        <time>2018-05-11T12:57:19Z</time>
      </trkpt>
      <trkpt lat="50.58022" lon="2.98491">
        <ele>43</ele>
        <time>2018-05-11T12:57:23Z</time>
      </trkpt>
      <trkpt lat="50.5802" lon="2.98465">
        <ele>42.8</ele>
        <time>2018-05-11T12:57:27Z</time>
      </trkpt>
      <trkpt lat="50.58018" lon="2.9844">
        <ele>42.8</ele>
        <time>2018-05-11T12:57:31Z</time>
      </trkpt>
      <trkpt lat="50.58017" lon="2.98413">
        <ele>42.8</ele>
        <time>2018-05-11T12:57:35Z</time>
      </trkpt>
      <trkpt lat="50.58016" lon="2.98385">
        <ele>43</ele>
        <time>2018-05-11T12:57:39Z</time>
      </trkpt>
      <trkpt lat="50.58015" lon="2.98356">
        <ele>43</ele>
        <time>2018-05-11T12:57:43Z</time>
      </trkpt>
      <trkpt lat="50.58014" lon="2.98328">
        <ele>43.4</ele>
        <time>2018-05-11T12:57:47Z</time>
      </trkpt>
      <trkpt lat="50.58012" lon="2.98302">
        <ele>43.8</ele>
        <time>2018-05-11T12:57:51Z</time>
      </trkpt>
      <trkpt lat="50.5801" lon="2.98276">
        <ele>43.4</ele>
        <time>2018-05-11T12:57:55Z</time>
      </trkpt>
      <trkpt lat="50.58009" lon="2.98252">
        <ele>43.2</ele>
        <time>2018-05-11T12:57:59Z</time>
      </trkpt>
      <trkpt lat="50.58009" lon="2.98231">
        <ele>43.4</ele>
        <time>2018-05-11T12:58:03Z</time>
      </trkpt>
      <trkpt lat="50.5801" lon="2.98221">
        <ele>43</ele>
        <time>2018-05-11T12:58:07Z</time>
      </trkpt>
      <trkpt lat="50.58012" lon="2.98219">
        <ele>43</ele>
        <time>2018-05-11T12:58:11Z</time>
      </trkpt>
      <trkpt lat="50.58011" lon="2.98215">
        <ele>43.2</ele>
        <time>2018-05-11T12:58:15Z</time>
      </trkpt>
      <trkpt lat="50.58009" lon="2.98211">
        <ele>43</ele>
        <time>2018-05-11T12:58:19Z</time>
      </trkpt>
      <trkpt lat="50.58007" lon="2.982">
        <ele>43.2</ele>
        <time>2018-05-11T12:58:23Z</time>
      </trkpt>
      <trkpt lat="50.58008" lon="2.98183">
        <ele>43.6</ele>
        <time>2018-05-11T12:58:27Z</time>
      </trkpt>
      <trkpt lat="50.58009" lon="2.98167">
        <ele>44</ele>
        <time>2018-05-11T12:58:31Z</time>
      </trkpt>
      <trkpt lat="50.58007" lon="2.98151">
        <ele>43.4</ele>
        <time>2018-05-11T12:58:35Z</time>
      </trkpt>
      <trkpt lat="50.58005" lon="2.98133">
        <ele>43.2</ele>
        <time>2018-05-11T12:58:39Z</time>
      </trkpt>
      <trkpt lat="50.58005" lon="2.98112">
        <ele>43.6</ele>
        <time>2018-05-11T12:58:43Z</time>
      </trkpt>
      <trkpt lat="50.58002" lon="2.9809">
        <ele>43.6</ele>
        <time>2018-05-11T12:58:47Z</time>
      </trkpt>
      <trkpt lat="50.58" lon="2.98067">
        <ele>43.8</ele>
        <time>2018-05-11T12:58:51Z</time>
      </trkpt>
      <trkpt lat="50.57999" lon="2.98043">
        <ele>43.8</ele>
        <time>2018-05-11T12:58:55Z</time>
      </trkpt>
      <trkpt lat="50.57998" lon="2.9802">
        <ele>43.8</ele>
        <time>2018-05-11T12:58:59Z</time>
      </trkpt>
      <trkpt lat="50.57996" lon="2.97996">
        <ele>43.2</ele>
        <time>2018-05-11T12:59:03Z</time>
      </trkpt>
      <trkpt lat="50.57995" lon="2.97973">
        <ele>43.6</ele>
        <time>2018-05-11T12:59:07Z</time>
      </trkpt>
      <trkpt lat="50.57993" lon="2.97952">
        <ele>43.2</ele>
        <time>2018-05-11T12:59:11Z</time>
      </trkpt>
      <trkpt lat="50.57993" lon="2.97932">
        <ele>43.4</ele>
        <time>2018-05-11T12:59:15Z</time>
      </trkpt>
      <trkpt lat="50.5799" lon="2.97915">
        <ele>43.6</ele>
        <time>2018-05-11T12:59:19Z</time>
      </trkpt>
      <trkpt lat="50.57988" lon="2.97896">
        <ele>44</ele>
        <time>2018-05-11T12:59:23Z</time>
      </trkpt>
      <trkpt lat="50.57981" lon="2.97878">
        <ele>43.4</ele>
        <time>2018-05-11T12:59:27Z</time>
      </trkpt>
      <trkpt lat="50.57969" lon="2.97868">
        <ele>43.6</ele>
        <time>2018-05-11T12:59:31Z</time>
      </trkpt>
      <trkpt lat="50.57957" lon="2.97864">
        <ele>44.6</ele>
        <time>2018-05-11T12:59:35Z</time>
      </trkpt>
      <trkpt lat="50.57948" lon="2.97864">
        <ele>43.8</ele>
        <time>2018-05-11T12:59:39Z</time>
      </trkpt>
      <trkpt lat="50.57938" lon="2.97868">
        <ele>43.8</ele>
        <time>2018-05-11T12:59:43Z</time>
      </trkpt>
      <trkpt lat="50.57924" lon="2.97864">
        <ele>43.8</ele>
        <time>2018-05-11T12:59:47Z</time>
      </trkpt>
      <trkpt lat="50.57909" lon="2.97865">
        <ele>44</ele>
        <time>2018-05-11T12:59:51Z</time>
      </trkpt>
      <trkpt lat="50.57898" lon="2.97878">
        <ele>43.6</ele>
        <time>2018-05-11T12:59:55Z</time>
      </trkpt>
      <trkpt lat="50.579" lon="2.979">
        <ele>43.8</ele>
        <time>2018-05-11T12:59:59Z</time>
      </trkpt>
      <trkpt lat="50.57911" lon="2.97916">
        <ele>45.2</ele>
        <time>2018-05-11T13:00:03Z</time>
      </trkpt>
      <trkpt lat="50.57924" lon="2.97917">
        <ele>46.2</ele>
        <time>2018-05-11T13:00:07Z</time>
      </trkpt>
      <trkpt lat="50.57936" lon="2.97911">
        <ele>47.6</ele>
        <time>2018-05-11T13:00:11Z</time>
      </trkpt>
      <trkpt lat="50.57948" lon="2.97902">
        <ele>48.8</ele>
        <time>2018-05-11T13:00:15Z</time>
      </trkpt>
      <trkpt lat="50.57953" lon="2.97889">
        <ele>48.8</ele>
        <time>2018-05-11T13:00:19Z</time>
      </trkpt>
      <trkpt lat="50.57952" lon="2.97887">
        <ele>49</ele>
        <time>2018-05-11T13:00:43Z</time>
      </trkpt>
      <trkpt lat="50.57954" lon="2.97877">
        <ele>49.4</ele>
        <time>2018-05-11T13:00:47Z</time>
      </trkpt>
      <trkpt lat="50.57956" lon="2.9787">
        <ele>49.6</ele>
        <time>2018-05-11T13:00:51Z</time>
      </trkpt>
      <trkpt lat="50.57958" lon="2.9786">
        <ele>50.6</ele>
        <time>2018-05-11T13:00:55Z</time>
      </trkpt>
      <trkpt lat="50.57962" lon="2.97845">
        <ele>50.4</ele>
        <time>2018-05-11T13:00:59Z</time>
      </trkpt>
      <trkpt lat="50.57967" lon="2.97828">
        <ele>51.4</ele>
        <time>2018-05-11T13:01:03Z</time>
      </trkpt>
      <trkpt lat="50.57971" lon="2.97809">
        <ele>51.4</ele>
        <time>2018-05-11T13:01:07Z</time>
      </trkpt>
      <trkpt lat="50.57975" lon="2.97788">
        <ele>52.6</ele>
        <time>2018-05-11T13:01:11Z</time>
      </trkpt>
      <trkpt lat="50.5798" lon="2.97769">
        <ele>52.4</ele>
        <time>2018-05-11T13:01:15Z</time>
      </trkpt>
      <trkpt lat="50.57984" lon="2.97747">
        <ele>49.2</ele>
        <time>2018-05-11T13:01:19Z</time>
      </trkpt>
      <trkpt lat="50.57988" lon="2.97722">
        <ele>48.4</ele>
        <time>2018-05-11T13:01:23Z</time>
      </trkpt>
      <trkpt lat="50.57988" lon="2.97699">
        <ele>47.2</ele>
        <time>2018-05-11T13:01:27Z</time>
      </trkpt>
      <trkpt lat="50.57986" lon="2.97682">
        <ele>46.6</ele>
        <time>2018-05-11T13:01:31Z</time>
      </trkpt>
      <trkpt lat="50.57975" lon="2.97673">
        <ele>45.2</ele>
        <time>2018-05-11T13:01:35Z</time>
      </trkpt>
      <trkpt lat="50.57959" lon="2.97656">
        <ele>44.4</ele>
        <time>2018-05-11T13:01:39Z</time>
      </trkpt>
      <trkpt lat="50.5794" lon="2.97642">
        <ele>44.4</ele>
        <time>2018-05-11T13:01:43Z</time>
      </trkpt>
      <trkpt lat="50.57924" lon="2.9763">
        <ele>44.4</ele>
        <time>2018-05-11T13:01:47Z</time>
      </trkpt>
      <trkpt lat="50.5791" lon="2.97619">
        <ele>43.8</ele>
        <time>2018-05-11T13:01:51Z</time>
      </trkpt>
      <trkpt lat="50.57895" lon="2.97609">
        <ele>43.6</ele>
        <time>2018-05-11T13:01:55Z</time>
      </trkpt>
      <trkpt lat="50.57877" lon="2.97596">
        <ele>42.4</ele>
        <time>2018-05-11T13:01:59Z</time>
      </trkpt>
      <trkpt lat="50.5786" lon="2.97585">
        <ele>42.4</ele>
        <time>2018-05-11T13:02:03Z</time>
      </trkpt>
      <trkpt lat="50.57844" lon="2.97571">
        <ele>42.8</ele>
        <time>2018-05-11T13:02:07Z</time>
      </trkpt>
      <trkpt lat="50.57829" lon="2.97555">
        <ele>42</ele>
        <time>2018-05-11T13:02:11Z</time>
      </trkpt>
      <trkpt lat="50.57816" lon="2.97536">
        <ele>42.6</ele>
        <time>2018-05-11T13:02:15Z</time>
      </trkpt>
      <trkpt lat="50.57802" lon="2.97519">
        <ele>42.8</ele>
        <time>2018-05-11T13:02:19Z</time>
      </trkpt>
      <trkpt lat="50.5779" lon="2.97501">
        <ele>43.4</ele>
        <time>2018-05-11T13:02:23Z</time>
      </trkpt>
      <trkpt lat="50.57785" lon="2.97476">
        <ele>42.8</ele>
        <time>2018-05-11T13:02:27Z</time>
      </trkpt>
      <trkpt lat="50.57787" lon="2.97448">
        <ele>42.8</ele>
        <time>2018-05-11T13:02:31Z</time>
      </trkpt>
      <trkpt lat="50.5779" lon="2.97422">
        <ele>44.4</ele>
        <time>2018-05-11T13:02:35Z</time>
      </trkpt>
      <trkpt lat="50.5779" lon="2.97401">
        <ele>44.4</ele>
        <time>2018-05-11T13:02:39Z</time>
      </trkpt>
      <trkpt lat="50.57796" lon="2.97382">
        <ele>44.2</ele>
        <time>2018-05-11T13:02:43Z</time>
      </trkpt>
      <trkpt lat="50.57808" lon="2.97367">
        <ele>43.8</ele>
        <time>2018-05-11T13:02:47Z</time>
      </trkpt>
      <trkpt lat="50.57819" lon="2.97348">
        <ele>44.2</ele>
        <time>2018-05-11T13:02:51Z</time>
      </trkpt>
      <trkpt lat="50.57827" lon="2.97326">
        <ele>44.4</ele>
        <time>2018-05-11T13:02:55Z</time>
      </trkpt>
      <trkpt lat="50.57834" lon="2.97298">
        <ele>44.4</ele>
        <time>2018-05-11T13:02:59Z</time>
      </trkpt>
      <trkpt lat="50.57841" lon="2.97271">
        <ele>44</ele>
        <time>2018-05-11T13:03:03Z</time>
      </trkpt>
      <trkpt lat="50.57847" lon="2.97244">
        <ele>44</ele>
        <time>2018-05-11T13:03:07Z</time>
      </trkpt>
      <trkpt lat="50.57852" lon="2.97217">
        <ele>43.2</ele>
        <time>2018-05-11T13:03:11Z</time>
      </trkpt>
      <trkpt lat="50.57853" lon="2.97189">
        <ele>43.6</ele>
        <time>2018-05-11T13:03:15Z</time>
      </trkpt>
      <trkpt lat="50.57856" lon="2.97167">
        <ele>43.8</ele>
        <time>2018-05-11T13:03:19Z</time>
      </trkpt>
      <trkpt lat="50.57866" lon="2.97141">
        <ele>43.8</ele>
        <time>2018-05-11T13:03:23Z</time>
      </trkpt>
      <trkpt lat="50.57873" lon="2.97113">
        <ele>43.2</ele>
        <time>2018-05-11T13:03:27Z</time>
      </trkpt>
      <trkpt lat="50.57882" lon="2.97087">
        <ele>43</ele>
        <time>2018-05-11T13:03:31Z</time>
      </trkpt>
      <trkpt lat="50.57892" lon="2.97061">
        <ele>42.8</ele>
        <time>2018-05-11T13:03:35Z</time>
      </trkpt>
      <trkpt lat="50.57891" lon="2.97031">
        <ele>43</ele>
        <time>2018-05-11T13:03:39Z</time>
      </trkpt>
      <trkpt lat="50.57881" lon="2.97004">
        <ele>43.2</ele>
        <time>2018-05-11T13:03:43Z</time>
      </trkpt>
      <trkpt lat="50.57863" lon="2.96992">
        <ele>43.6</ele>
        <time>2018-05-11T13:03:47Z</time>
      </trkpt>
      <trkpt lat="50.5785" lon="2.96974">
        <ele>43.4</ele>
        <time>2018-05-11T13:03:51Z</time>
      </trkpt>
      <trkpt lat="50.57842" lon="2.9695">
        <ele>43.6</ele>
        <time>2018-05-11T13:03:55Z</time>
      </trkpt>
      <trkpt lat="50.57841" lon="2.96927">
        <ele>44.8</ele>
        <time>2018-05-11T13:03:59Z</time>
      </trkpt>
      <trkpt lat="50.57837" lon="2.96917">
        <ele>46</ele>
        <time>2018-05-11T13:04:03Z</time>
      </trkpt>
      <trkpt lat="50.57831" lon="2.96901">
        <ele>46</ele>
        <time>2018-05-11T13:04:07Z</time>
      </trkpt>
      <trkpt lat="50.5782" lon="2.96883">
        <ele>44.8</ele>
        <time>2018-05-11T13:04:11Z</time>
      </trkpt>
      <trkpt lat="50.57812" lon="2.96852">
        <ele>42.6</ele>
        <time>2018-05-11T13:04:15Z</time>
      </trkpt>
      <trkpt lat="50.5782" lon="2.96836">
        <ele>42.4</ele>
        <time>2018-05-11T13:04:19Z</time>
      </trkpt>
      <trkpt lat="50.57831" lon="2.96827">
        <ele>43</ele>
        <time>2018-05-11T13:04:23Z</time>
      </trkpt>
      <trkpt lat="50.57844" lon="2.96816">
        <ele>42.8</ele>
        <time>2018-05-11T13:04:27Z</time>
      </trkpt>
      <trkpt lat="50.57858" lon="2.96803">
        <ele>43</ele>
        <time>2018-05-11T13:04:31Z</time>
      </trkpt>
      <trkpt lat="50.57872" lon="2.96785">
        <ele>42.8</ele>
        <time>2018-05-11T13:04:35Z</time>
      </trkpt>
      <trkpt lat="50.57888" lon="2.96768">
        <ele>42.8</ele>
        <time>2018-05-11T13:04:39Z</time>
      </trkpt>
      <trkpt lat="50.57898" lon="2.96748">
        <ele>42.8</ele>
        <time>2018-05-11T13:04:43Z</time>
      </trkpt>
      <trkpt lat="50.57907" lon="2.96719">
        <ele>42.8</ele>
        <time>2018-05-11T13:04:47Z</time>
      </trkpt>
      <trkpt lat="50.5791" lon="2.96692">
        <ele>43.2</ele>
        <time>2018-05-11T13:04:51Z</time>
      </trkpt>
      <trkpt lat="50.57911" lon="2.96663">
        <ele>43</ele>
        <time>2018-05-11T13:04:55Z</time>
      </trkpt>
      <trkpt lat="50.57909" lon="2.96642">
        <ele>43.2</ele>
        <time>2018-05-11T13:04:59Z</time>
      </trkpt>
      <trkpt lat="50.57906" lon="2.96621">
        <ele>43.2</ele>
        <time>2018-05-11T13:05:03Z</time>
      </trkpt>
      <trkpt lat="50.57906" lon="2.96595">
        <ele>43.4</ele>
        <time>2018-05-11T13:05:07Z</time>
      </trkpt>
      <trkpt lat="50.57901" lon="2.96567">
        <ele>43.6</ele>
        <time>2018-05-11T13:05:11Z</time>
      </trkpt>
      <trkpt lat="50.57888" lon="2.96544">
        <ele>43.8</ele>
        <time>2018-05-11T13:05:15Z</time>
      </trkpt>
      <trkpt lat="50.57877" lon="2.9652">
        <ele>42.8</ele>
        <time>2018-05-11T13:05:19Z</time>
      </trkpt>
      <trkpt lat="50.57863" lon="2.965">
        <ele>43.8</ele>
        <time>2018-05-11T13:05:23Z</time>
      </trkpt>
      <trkpt lat="50.57848" lon="2.96482">
        <ele>43.8</ele>
        <time>2018-05-11T13:05:27Z</time>
      </trkpt>
      <trkpt lat="50.57839" lon="2.9646">
        <ele>43.2</ele>
        <time>2018-05-11T13:05:31Z</time>
      </trkpt>
      <trkpt lat="50.57832" lon="2.96435">
        <ele>43.2</ele>
        <time>2018-05-11T13:05:35Z</time>
      </trkpt>
      <trkpt lat="50.57833" lon="2.96406">
        <ele>42.4</ele>
        <time>2018-05-11T13:05:39Z</time>
      </trkpt>
      <trkpt lat="50.57832" lon="2.9638">
        <ele>44</ele>
        <time>2018-05-11T13:05:43Z</time>
      </trkpt>
      <trkpt lat="50.57828" lon="2.96353">
        <ele>43.2</ele>
        <time>2018-05-11T13:05:47Z</time>
      </trkpt>
      <trkpt lat="50.57828" lon="2.96324">
        <ele>43</ele>
        <time>2018-05-11T13:05:51Z</time>
      </trkpt>
      <trkpt lat="50.5784" lon="2.96298">
        <ele>43</ele>
        <time>2018-05-11T13:05:55Z</time>
      </trkpt>
      <trkpt lat="50.57853" lon="2.96278">
        <ele>43.4</ele>
        <time>2018-05-11T13:05:59Z</time>
      </trkpt>
      <trkpt lat="50.57868" lon="2.9626">
        <ele>43.2</ele>
        <time>2018-05-11T13:06:03Z</time>
      </trkpt>
      <trkpt lat="50.57882" lon="2.96243">
        <ele>43.2</ele>
        <time>2018-05-11T13:06:07Z</time>
      </trkpt>
      <trkpt lat="50.57897" lon="2.96225">
        <ele>43</ele>
        <time>2018-05-11T13:06:11Z</time>
      </trkpt>
      <trkpt lat="50.5791" lon="2.96206">
        <ele>43.2</ele>
        <time>2018-05-11T13:06:15Z</time>
      </trkpt>
      <trkpt lat="50.57921" lon="2.96184">
        <ele>43.2</ele>
        <time>2018-05-11T13:06:19Z</time>
      </trkpt>
      <trkpt lat="50.57933" lon="2.96162">
        <ele>43.4</ele>
        <time>2018-05-11T13:06:23Z</time>
      </trkpt>
      <trkpt lat="50.57943" lon="2.9614">
        <ele>43.4</ele>
        <time>2018-05-11T13:06:27Z</time>
      </trkpt>
      <trkpt lat="50.57953" lon="2.96114">
        <ele>43.2</ele>
        <time>2018-05-11T13:06:31Z</time>
      </trkpt>
      <trkpt lat="50.57961" lon="2.96086">
        <ele>43.2</ele>
        <time>2018-05-11T13:06:35Z</time>
      </trkpt>
      <trkpt lat="50.57971" lon="2.9606">
        <ele>43.8</ele>
        <time>2018-05-11T13:06:39Z</time>
      </trkpt>
      <trkpt lat="50.5798" lon="2.96035">
        <ele>42.8</ele>
        <time>2018-05-11T13:06:43Z</time>
      </trkpt>
      <trkpt lat="50.57988" lon="2.96014">
        <ele>43</ele>
        <time>2018-05-11T13:06:47Z</time>
      </trkpt>
      <trkpt lat="50.57995" lon="2.95998">
        <ele>42.8</ele>
        <time>2018-05-11T13:06:51Z</time>
      </trkpt>
      <trkpt lat="50.57999" lon="2.95985">
        <ele>43</ele>
        <time>2018-05-11T13:06:55Z</time>
      </trkpt>
      <trkpt lat="50.58004" lon="2.95971">
        <ele>43</ele>
        <time>2018-05-11T13:06:59Z</time>
      </trkpt>
      <trkpt lat="50.5801" lon="2.95956">
        <ele>43</ele>
        <time>2018-05-11T13:07:03Z</time>
      </trkpt>
      <trkpt lat="50.58018" lon="2.95934">
        <ele>42.6</ele>
        <time>2018-05-11T13:07:07Z</time>
      </trkpt>
      <trkpt lat="50.58024" lon="2.95911">
        <ele>42.8</ele>
        <time>2018-05-11T13:07:11Z</time>
      </trkpt>
      <trkpt lat="50.5803" lon="2.95888">
        <ele>43</ele>
        <time>2018-05-11T13:07:15Z</time>
      </trkpt>
      <trkpt lat="50.58036" lon="2.95865">
        <ele>42.8</ele>
        <time>2018-05-11T13:07:19Z</time>
      </trkpt>
      <trkpt lat="50.58043" lon="2.9584">
        <ele>43.2</ele>
        <time>2018-05-11T13:07:23Z</time>
      </trkpt>
      <trkpt lat="50.58053" lon="2.9582">
        <ele>42.8</ele>
        <time>2018-05-11T13:07:27Z</time>
      </trkpt>
      <trkpt lat="50.58066" lon="2.95804">
        <ele>43</ele>
        <time>2018-05-11T13:07:31Z</time>
      </trkpt>
      <trkpt lat="50.5808" lon="2.95788">
        <ele>43</ele>
        <time>2018-05-11T13:07:35Z</time>
      </trkpt>
      <trkpt lat="50.58094" lon="2.95773">
        <ele>43</ele>
        <time>2018-05-11T13:07:39Z</time>
      </trkpt>
      <trkpt lat="50.58109" lon="2.95762">
        <ele>43.2</ele>
        <time>2018-05-11T13:07:43Z</time>
      </trkpt>
      <trkpt lat="50.58125" lon="2.95753">
        <ele>43</ele>
        <time>2018-05-11T13:07:47Z</time>
      </trkpt>
      <trkpt lat="50.58139" lon="2.95742">
        <ele>43.2</ele>
        <time>2018-05-11T13:07:51Z</time>
      </trkpt>
      <trkpt lat="50.58154" lon="2.95735">
        <ele>43.4</ele>
        <time>2018-05-11T13:07:55Z</time>
      </trkpt>
      <trkpt lat="50.5817" lon="2.95735">
        <ele>43.4</ele>
        <time>2018-05-11T13:07:59Z</time>
      </trkpt>
      <trkpt lat="50.58183" lon="2.95743">
        <ele>43.6</ele>
        <time>2018-05-11T13:08:03Z</time>
      </trkpt>
      <trkpt lat="50.58197" lon="2.9575">
        <ele>43</ele>
        <time>2018-05-11T13:08:07Z</time>
      </trkpt>
      <trkpt lat="50.58213" lon="2.95744">
        <ele>44.2</ele>
        <time>2018-05-11T13:08:11Z</time>
      </trkpt>
      <trkpt lat="50.58229" lon="2.95733">
        <ele>43.6</ele>
        <time>2018-05-11T13:08:15Z</time>
      </trkpt>
      <trkpt lat="50.58244" lon="2.95724">
        <ele>43.4</ele>
        <time>2018-05-11T13:08:19Z</time>
      </trkpt>
      <trkpt lat="50.58259" lon="2.95719">
        <ele>43.4</ele>
        <time>2018-05-11T13:08:23Z</time>
      </trkpt>
      <trkpt lat="50.58275" lon="2.95712">
        <ele>43.6</ele>
        <time>2018-05-11T13:08:27Z</time>
      </trkpt>
      <trkpt lat="50.58289" lon="2.95703">
        <ele>43.6</ele>
        <time>2018-05-11T13:08:31Z</time>
      </trkpt>
      <trkpt lat="50.58301" lon="2.95689">
        <ele>44</ele>
        <time>2018-05-11T13:08:35Z</time>
      </trkpt>
      <trkpt lat="50.58314" lon="2.95671">
        <ele>44</ele>
        <time>2018-05-11T13:08:39Z</time>
      </trkpt>
      <trkpt lat="50.58327" lon="2.95654">
        <ele>43.8</ele>
        <time>2018-05-11T13:08:43Z</time>
      </trkpt>
      <trkpt lat="50.5834" lon="2.95636">
        <ele>44</ele>
        <time>2018-05-11T13:08:47Z</time>
      </trkpt>
      <trkpt lat="50.58353" lon="2.95615">
        <ele>44.2</ele>
        <time>2018-05-11T13:08:51Z</time>
      </trkpt>
      <trkpt lat="50.58364" lon="2.95594">
        <ele>44</ele>
        <time>2018-05-11T13:08:55Z</time>
      </trkpt>
      <trkpt lat="50.58374" lon="2.95575">
        <ele>43.6</ele>
        <time>2018-05-11T13:08:59Z</time>
      </trkpt>
      <trkpt lat="50.58385" lon="2.95565">
        <ele>44.2</ele>
        <time>2018-05-11T13:09:03Z</time>
      </trkpt>
      <trkpt lat="50.58395" lon="2.95572">
        <ele>43.8</ele>
        <time>2018-05-11T13:09:07Z</time>
      </trkpt>
      <trkpt lat="50.58404" lon="2.95589">
        <ele>44.4</ele>
        <time>2018-05-11T13:09:11Z</time>
      </trkpt>
      <trkpt lat="50.58413" lon="2.95607">
        <ele>44.2</ele>
        <time>2018-05-11T13:09:15Z</time>
      </trkpt>
      <trkpt lat="50.58423" lon="2.95623">
        <ele>44.6</ele>
        <time>2018-05-11T13:09:19Z</time>
      </trkpt>
      <trkpt lat="50.58432" lon="2.95638">
        <ele>44.2</ele>
        <time>2018-05-11T13:09:23Z</time>
      </trkpt>
      <trkpt lat="50.58444" lon="2.95643">
        <ele>44.2</ele>
        <time>2018-05-11T13:09:27Z</time>
      </trkpt>
      <trkpt lat="50.58455" lon="2.95633">
        <ele>44.6</ele>
        <time>2018-05-11T13:09:31Z</time>
      </trkpt>
      <trkpt lat="50.58466" lon="2.95621">
        <ele>45.4</ele>
        <time>2018-05-11T13:09:35Z</time>
      </trkpt>
      <trkpt lat="50.58477" lon="2.95609">
        <ele>45</ele>
        <time>2018-05-11T13:09:39Z</time>
      </trkpt>
      <trkpt lat="50.58489" lon="2.95596">
        <ele>44.6</ele>
        <time>2018-05-11T13:09:43Z</time>
      </trkpt>
      <trkpt lat="50.58502" lon="2.95583">
        <ele>45.6</ele>
        <time>2018-05-11T13:09:47Z</time>
      </trkpt>
      <trkpt lat="50.58515" lon="2.9557">
        <ele>45.4</ele>
        <time>2018-05-11T13:09:51Z</time>
      </trkpt>
      <trkpt lat="50.58527" lon="2.95558">
        <ele>45.6</ele>
        <time>2018-05-11T13:09:55Z</time>
      </trkpt>
      <trkpt lat="50.58539" lon="2.95545">
        <ele>45.4</ele>
        <time>2018-05-11T13:09:59Z</time>
      </trkpt>
      <trkpt lat="50.58552" lon="2.95532">
        <ele>45.4</ele>
        <time>2018-05-11T13:10:03Z</time>
      </trkpt>
      <trkpt lat="50.58566" lon="2.9552">
        <ele>45.2</ele>
        <time>2018-05-11T13:10:07Z</time>
      </trkpt>
      <trkpt lat="50.58582" lon="2.95519">
        <ele>44.8</ele>
        <time>2018-05-11T13:10:11Z</time>
      </trkpt>
      <trkpt lat="50.58594" lon="2.95532">
        <ele>45.6</ele>
        <time>2018-05-11T13:10:15Z</time>
      </trkpt>
      <trkpt lat="50.58606" lon="2.95549">
        <ele>45.8</ele>
        <time>2018-05-11T13:10:19Z</time>
      </trkpt>
      <trkpt lat="50.58622" lon="2.95556">
        <ele>46</ele>
        <time>2018-05-11T13:10:23Z</time>
      </trkpt>
      <trkpt lat="50.58637" lon="2.9555">
        <ele>45.6</ele>
        <time>2018-05-11T13:10:27Z</time>
      </trkpt>
      <trkpt lat="50.58651" lon="2.95536">
        <ele>46.2</ele>
        <time>2018-05-11T13:10:31Z</time>
      </trkpt>
      <trkpt lat="50.58665" lon="2.95522">
        <ele>46</ele>
        <time>2018-05-11T13:10:35Z</time>
      </trkpt>
      <trkpt lat="50.58678" lon="2.95509">
        <ele>46.8</ele>
        <time>2018-05-11T13:10:39Z</time>
      </trkpt>
      <trkpt lat="50.5869" lon="2.95495">
        <ele>47</ele>
        <time>2018-05-11T13:10:43Z</time>
      </trkpt>
      <trkpt lat="50.58702" lon="2.95481">
        <ele>47.6</ele>
        <time>2018-05-11T13:10:47Z</time>
      </trkpt>
      <trkpt lat="50.58712" lon="2.95465">
        <ele>47</ele>
        <time>2018-05-11T13:10:51Z</time>
      </trkpt>
      <trkpt lat="50.58724" lon="2.95448">
        <ele>47.2</ele>
        <time>2018-05-11T13:10:55Z</time>
      </trkpt>
      <trkpt lat="50.58738" lon="2.9543">
        <ele>47.2</ele>
        <time>2018-05-11T13:10:59Z</time>
      </trkpt>
      <trkpt lat="50.58753" lon="2.9541">
        <ele>47</ele>
        <time>2018-05-11T13:11:03Z</time>
      </trkpt>
      <trkpt lat="50.58767" lon="2.95391">
        <ele>46.8</ele>
        <time>2018-05-11T13:11:07Z</time>
      </trkpt>
      <trkpt lat="50.58782" lon="2.95373">
        <ele>47.4</ele>
        <time>2018-05-11T13:11:11Z</time>
      </trkpt>
      <trkpt lat="50.58798" lon="2.95356">
        <ele>47.4</ele>
        <time>2018-05-11T13:11:15Z</time>
      </trkpt>
      <trkpt lat="50.58815" lon="2.95342">
        <ele>47.6</ele>
        <time>2018-05-11T13:11:19Z</time>
      </trkpt>
      <trkpt lat="50.58831" lon="2.95328">
        <ele>47</ele>
        <time>2018-05-11T13:11:23Z</time>
      </trkpt>
      <trkpt lat="50.58849" lon="2.95313">
        <ele>47.2</ele>
        <time>2018-05-11T13:11:27Z</time>
      </trkpt>
      <trkpt lat="50.58866" lon="2.95296">
        <ele>47.4</ele>
        <time>2018-05-11T13:11:31Z</time>
      </trkpt>
      <trkpt lat="50.58882" lon="2.95279">
        <ele>47</ele>
        <time>2018-05-11T13:11:35Z</time>
      </trkpt>
      <trkpt lat="50.58893" lon="2.95267">
        <ele>47</ele>
        <time>2018-05-11T13:11:39Z</time>
      </trkpt>
      <trkpt lat="50.58898" lon="2.9526">
        <ele>46.6</ele>
        <time>2018-05-11T13:11:43Z</time>
      </trkpt>
      <trkpt lat="50.58905" lon="2.95254">
        <ele>45.8</ele>
        <time>2018-05-11T13:12:59Z</time>
      </trkpt>
      <trkpt lat="50.58914" lon="2.95246">
        <ele>46</ele>
        <time>2018-05-11T13:13:03Z</time>
      </trkpt>
      <trkpt lat="50.58926" lon="2.95232">
        <ele>46.2</ele>
        <time>2018-05-11T13:13:07Z</time>
      </trkpt>
      <trkpt lat="50.5894" lon="2.95218">
        <ele>45.6</ele>
        <time>2018-05-11T13:13:11Z</time>
      </trkpt>
      <trkpt lat="50.58954" lon="2.95203">
        <ele>45.6</ele>
        <time>2018-05-11T13:13:15Z</time>
      </trkpt>
      <trkpt lat="50.58968" lon="2.95189">
        <ele>45.4</ele>
        <time>2018-05-11T13:13:19Z</time>
      </trkpt>
      <trkpt lat="50.58982" lon="2.95172">
        <ele>45</ele>
        <time>2018-05-11T13:13:23Z</time>
      </trkpt>
      <trkpt lat="50.58995" lon="2.95152">
        <ele>45.6</ele>
        <time>2018-05-11T13:13:27Z</time>
      </trkpt>
      <trkpt lat="50.59008" lon="2.9513">
        <ele>45.8</ele>
        <time>2018-05-11T13:13:31Z</time>
      </trkpt>
      <trkpt lat="50.59021" lon="2.95107">
        <ele>45.2</ele>
        <time>2018-05-11T13:13:35Z</time>
      </trkpt>
      <trkpt lat="50.59034" lon="2.95082">
        <ele>45</ele>
        <time>2018-05-11T13:13:39Z</time>
      </trkpt>
      <trkpt lat="50.59047" lon="2.9506">
        <ele>45.4</ele>
        <time>2018-05-11T13:13:43Z</time>
      </trkpt>
      <trkpt lat="50.5906" lon="2.95036">
        <ele>45.4</ele>
        <time>2018-05-11T13:13:47Z</time>
      </trkpt>
      <trkpt lat="50.59076" lon="2.95012">
        <ele>45.2</ele>
        <time>2018-05-11T13:13:51Z</time>
      </trkpt>
      <trkpt lat="50.59093" lon="2.94988">
        <ele>45</ele>
        <time>2018-05-11T13:13:55Z</time>
      </trkpt>
      <trkpt lat="50.59109" lon="2.94967">
        <ele>45.2</ele>
        <time>2018-05-11T13:13:59Z</time>
      </trkpt>
      <trkpt lat="50.59125" lon="2.94949">
        <ele>45.2</ele>
        <time>2018-05-11T13:14:03Z</time>
      </trkpt>
      <trkpt lat="50.59142" lon="2.94931">
        <ele>45.2</ele>
        <time>2018-05-11T13:14:07Z</time>
      </trkpt>
      <trkpt lat="50.59159" lon="2.94914">
        <ele>45.2</ele>
        <time>2018-05-11T13:14:11Z</time>
      </trkpt>
      <trkpt lat="50.59174" lon="2.94895">
        <ele>45.2</ele>
        <time>2018-05-11T13:14:15Z</time>
      </trkpt>
      <trkpt lat="50.59186" lon="2.94874">
        <ele>45.8</ele>
        <time>2018-05-11T13:14:19Z</time>
      </trkpt>
      <trkpt lat="50.59193" lon="2.94857">
        <ele>46.2</ele>
        <time>2018-05-11T13:14:23Z</time>
      </trkpt>
      <trkpt lat="50.59193" lon="2.9484">
        <ele>46.6</ele>
        <time>2018-05-11T13:14:27Z</time>
      </trkpt>
      <trkpt lat="50.59183" lon="2.94824">
        <ele>46.8</ele>
        <time>2018-05-11T13:14:31Z</time>
      </trkpt>
      <trkpt lat="50.59177" lon="2.94803">
        <ele>45.8</ele>
        <time>2018-05-11T13:14:35Z</time>
      </trkpt>
      <trkpt lat="50.59184" lon="2.94781">
        <ele>45.6</ele>
        <time>2018-05-11T13:14:39Z</time>
      </trkpt>
      <trkpt lat="50.59195" lon="2.94765">
        <ele>45.8</ele>
        <time>2018-05-11T13:14:43Z</time>
      </trkpt>
      <trkpt lat="50.59206" lon="2.94752">
        <ele>46</ele>
        <time>2018-05-11T13:14:47Z</time>
      </trkpt>
      <trkpt lat="50.59218" lon="2.94738">
        <ele>46.2</ele>
        <time>2018-05-11T13:14:51Z</time>
      </trkpt>
      <trkpt lat="50.59231" lon="2.94723">
        <ele>45.8</ele>
        <time>2018-05-11T13:14:55Z</time>
      </trkpt>
      <trkpt lat="50.59243" lon="2.94707">
        <ele>46.6</ele>
        <time>2018-05-11T13:14:59Z</time>
      </trkpt>
      <trkpt lat="50.59256" lon="2.94691">
        <ele>47</ele>
        <time>2018-05-11T13:15:03Z</time>
      </trkpt>
      <trkpt lat="50.59269" lon="2.94676">
        <ele>47.2</ele>
        <time>2018-05-11T13:15:07Z</time>
      </trkpt>
      <trkpt lat="50.59282" lon="2.94662">
        <ele>47.2</ele>
        <time>2018-05-11T13:15:11Z</time>
      </trkpt>
      <trkpt lat="50.59295" lon="2.94649">
        <ele>47.2</ele>
        <time>2018-05-11T13:15:15Z</time>
      </trkpt>
      <trkpt lat="50.59307" lon="2.94637">
        <ele>47.8</ele>
        <time>2018-05-11T13:15:19Z</time>
      </trkpt>
      <trkpt lat="50.59319" lon="2.94626">
        <ele>47.4</ele>
        <time>2018-05-11T13:15:23Z</time>
      </trkpt>
      <trkpt lat="50.5933" lon="2.94613">
        <ele>48</ele>
        <time>2018-05-11T13:15:27Z</time>
      </trkpt>
      <trkpt lat="50.59332" lon="2.94593">
        <ele>48</ele>
        <time>2018-05-11T13:15:31Z</time>
      </trkpt>
      <trkpt lat="50.59328" lon="2.94577">
        <ele>48.2</ele>
        <time>2018-05-11T13:15:35Z</time>
      </trkpt>
      <trkpt lat="50.59325" lon="2.9456">
        <ele>48.2</ele>
        <time>2018-05-11T13:15:39Z</time>
      </trkpt>
      <trkpt lat="50.59322" lon="2.94537">
        <ele>48</ele>
        <time>2018-05-11T13:15:43Z</time>
      </trkpt>
      <trkpt lat="50.59318" lon="2.94512">
        <ele>48.2</ele>
        <time>2018-05-11T13:15:47Z</time>
      </trkpt>
      <trkpt lat="50.59313" lon="2.94485">
        <ele>48.2</ele>
        <time>2018-05-11T13:15:51Z</time>
      </trkpt>
      <trkpt lat="50.59309" lon="2.94457">
        <ele>48.4</ele>
        <time>2018-05-11T13:15:55Z</time>
      </trkpt>
      <trkpt lat="50.59305" lon="2.9443">
        <ele>48.2</ele>
        <time>2018-05-11T13:15:59Z</time>
      </trkpt>
      <trkpt lat="50.593" lon="2.94402">
        <ele>48.6</ele>
        <time>2018-05-11T13:16:03Z</time>
      </trkpt>
      <trkpt lat="50.59294" lon="2.94375">
        <ele>48.6</ele>
        <time>2018-05-11T13:16:07Z</time>
      </trkpt>
      <trkpt lat="50.59287" lon="2.94347">
        <ele>48.8</ele>
        <time>2018-05-11T13:16:11Z</time>
      </trkpt>
      <trkpt lat="50.5928" lon="2.94316">
        <ele>48.6</ele>
        <time>2018-05-11T13:16:15Z</time>
      </trkpt>
      <trkpt lat="50.59273" lon="2.94287">
        <ele>48.4</ele>
        <time>2018-05-11T13:16:19Z</time>
      </trkpt>
      <trkpt lat="50.59267" lon="2.9426">
        <ele>48.6</ele>
        <time>2018-05-11T13:16:23Z</time>
      </trkpt>
      <trkpt lat="50.59261" lon="2.94233">
        <ele>48.6</ele>
        <time>2018-05-11T13:16:27Z</time>
      </trkpt>
      <trkpt lat="50.59258" lon="2.94203">
        <ele>48.2</ele>
        <time>2018-05-11T13:16:31Z</time>
      </trkpt>
      <trkpt lat="50.59261" lon="2.94173">
        <ele>49</ele>
        <time>2018-05-11T13:16:35Z</time>
      </trkpt>
      <trkpt lat="50.59266" lon="2.94144">
        <ele>48.8</ele>
        <time>2018-05-11T13:16:39Z</time>
      </trkpt>
      <trkpt lat="50.5927" lon="2.94114">
        <ele>48.8</ele>
        <time>2018-05-11T13:16:43Z</time>
      </trkpt>
      <trkpt lat="50.59274" lon="2.94084">
        <ele>48.8</ele>
        <time>2018-05-11T13:16:47Z</time>
      </trkpt>
      <trkpt lat="50.59278" lon="2.94055">
        <ele>49</ele>
        <time>2018-05-11T13:16:51Z</time>
      </trkpt>
      <trkpt lat="50.59283" lon="2.94026">
        <ele>49.2</ele>
        <time>2018-05-11T13:16:55Z</time>
      </trkpt>
      <trkpt lat="50.59287" lon="2.93998">
        <ele>49</ele>
        <time>2018-05-11T13:16:59Z</time>
      </trkpt>
      <trkpt lat="50.5929" lon="2.93969">
        <ele>49.2</ele>
        <time>2018-05-11T13:17:03Z</time>
      </trkpt>
      <trkpt lat="50.59292" lon="2.93938">
        <ele>49.2</ele>
        <time>2018-05-11T13:17:07Z</time>
      </trkpt>
      <trkpt lat="50.5928" lon="2.93915">
        <ele>49.4</ele>
        <time>2018-05-11T13:17:11Z</time>
      </trkpt>
      <trkpt lat="50.59261" lon="2.93904">
        <ele>49.6</ele>
        <time>2018-05-11T13:17:15Z</time>
      </trkpt>
      <trkpt lat="50.59241" lon="2.93894">
        <ele>49.4</ele>
        <time>2018-05-11T13:17:19Z</time>
      </trkpt>
      <trkpt lat="50.59222" lon="2.93882">
        <ele>49.4</ele>
        <time>2018-05-11T13:17:23Z</time>
      </trkpt>
      <trkpt lat="50.59202" lon="2.93871">
        <ele>49</ele>
        <time>2018-05-11T13:17:27Z</time>
      </trkpt>
      <trkpt lat="50.59183" lon="2.9386">
        <ele>49</ele>
        <time>2018-05-11T13:17:31Z</time>
      </trkpt>
      <trkpt lat="50.59164" lon="2.93849">
        <ele>49</ele>
        <time>2018-05-11T13:17:35Z</time>
      </trkpt>
      <trkpt lat="50.59145" lon="2.93839">
        <ele>49.4</ele>
        <time>2018-05-11T13:17:39Z</time>
      </trkpt>
      <trkpt lat="50.59127" lon="2.93829">
        <ele>49.6</ele>
        <time>2018-05-11T13:17:43Z</time>
      </trkpt>
      <trkpt lat="50.5911" lon="2.93817">
        <ele>49.8</ele>
        <time>2018-05-11T13:17:47Z</time>
      </trkpt>
      <trkpt lat="50.59094" lon="2.93798">
        <ele>49.8</ele>
        <time>2018-05-11T13:17:51Z</time>
      </trkpt>
      <trkpt lat="50.59081" lon="2.93779">
        <ele>50.4</ele>
        <time>2018-05-11T13:17:55Z</time>
      </trkpt>
      <trkpt lat="50.59067" lon="2.9376">
        <ele>50.6</ele>
        <time>2018-05-11T13:17:59Z</time>
      </trkpt>
      <trkpt lat="50.59054" lon="2.93741">
        <ele>50.4</ele>
        <time>2018-05-11T13:18:03Z</time>
      </trkpt>
      <trkpt lat="50.5904" lon="2.93722">
        <ele>50.6</ele>
        <time>2018-05-11T13:18:07Z</time>
      </trkpt>
      <trkpt lat="50.59028" lon="2.93705">
        <ele>50.6</ele>
        <time>2018-05-11T13:18:11Z</time>
      </trkpt>
      <trkpt lat="50.59015" lon="2.93684">
        <ele>50.4</ele>
        <time>2018-05-11T13:18:15Z</time>
      </trkpt>
      <trkpt lat="50.59" lon="2.93661">
        <ele>51.2</ele>
        <time>2018-05-11T13:18:19Z</time>
      </trkpt>
      <trkpt lat="50.58986" lon="2.93639">
        <ele>50.6</ele>
        <time>2018-05-11T13:18:23Z</time>
      </trkpt>
      <trkpt lat="50.58972" lon="2.93618">
        <ele>51.4</ele>
        <time>2018-05-11T13:18:27Z</time>
      </trkpt>
      <trkpt lat="50.58957" lon="2.93596">
        <ele>51.2</ele>
        <time>2018-05-11T13:18:31Z</time>
      </trkpt>
      <trkpt lat="50.58943" lon="2.93575">
        <ele>50.8</ele>
        <time>2018-05-11T13:18:35Z</time>
      </trkpt>
      <trkpt lat="50.58929" lon="2.93554">
        <ele>51.2</ele>
        <time>2018-05-11T13:18:39Z</time>
      </trkpt>
      <trkpt lat="50.58916" lon="2.93534">
        <ele>51</ele>
        <time>2018-05-11T13:18:43Z</time>
      </trkpt>
      <trkpt lat="50.58902" lon="2.93516">
        <ele>51</ele>
        <time>2018-05-11T13:18:47Z</time>
      </trkpt>
      <trkpt lat="50.58888" lon="2.93501">
        <ele>51.2</ele>
        <time>2018-05-11T13:18:51Z</time>
      </trkpt>
      <trkpt lat="50.58873" lon="2.93486">
        <ele>51</ele>
        <time>2018-05-11T13:18:55Z</time>
      </trkpt>
      <trkpt lat="50.58857" lon="2.93471">
        <ele>51.4</ele>
        <time>2018-05-11T13:18:59Z</time>
      </trkpt>
      <trkpt lat="50.58842" lon="2.93456">
        <ele>51.2</ele>
        <time>2018-05-11T13:19:03Z</time>
      </trkpt>
      <trkpt lat="50.58827" lon="2.9344">
        <ele>51.2</ele>
        <time>2018-05-11T13:19:07Z</time>
      </trkpt>
      <trkpt lat="50.58814" lon="2.93422">
        <ele>51</ele>
        <time>2018-05-11T13:19:11Z</time>
      </trkpt>
      <trkpt lat="50.58802" lon="2.934">
        <ele>51.2</ele>
        <time>2018-05-11T13:19:15Z</time>
      </trkpt>
      <trkpt lat="50.58793" lon="2.93373">
        <ele>51.4</ele>
        <time>2018-05-11T13:19:19Z</time>
      </trkpt>
      <trkpt lat="50.58784" lon="2.93346">
        <ele>51.2</ele>
        <time>2018-05-11T13:19:23Z</time>
      </trkpt>
      <trkpt lat="50.58776" lon="2.93319">
        <ele>51</ele>
        <time>2018-05-11T13:19:27Z</time>
      </trkpt>
      <trkpt lat="50.5877" lon="2.93289">
        <ele>50.8</ele>
        <time>2018-05-11T13:19:31Z</time>
      </trkpt>
      <trkpt lat="50.58767" lon="2.9326">
        <ele>51.2</ele>
        <time>2018-05-11T13:19:35Z</time>
      </trkpt>
      <trkpt lat="50.58765" lon="2.93229">
        <ele>51.2</ele>
        <time>2018-05-11T13:19:39Z</time>
      </trkpt>
      <trkpt lat="50.58763" lon="2.93199">
        <ele>51</ele>
        <time>2018-05-11T13:19:43Z</time>
      </trkpt>
      <trkpt lat="50.58761" lon="2.93169">
        <ele>51</ele>
        <time>2018-05-11T13:19:47Z</time>
      </trkpt>
      <trkpt lat="50.5876" lon="2.93139">
        <ele>51.4</ele>
        <time>2018-05-11T13:19:51Z</time>
      </trkpt>
      <trkpt lat="50.58759" lon="2.93108">
        <ele>51.6</ele>
        <time>2018-05-11T13:19:55Z</time>
      </trkpt>
      <trkpt lat="50.58757" lon="2.93078">
        <ele>51.8</ele>
        <time>2018-05-11T13:19:59Z</time>
      </trkpt>
      <trkpt lat="50.58756" lon="2.93047">
        <ele>52.2</ele>
        <time>2018-05-11T13:20:03Z</time>
      </trkpt>
      <trkpt lat="50.58756" lon="2.93017">
        <ele>51.8</ele>
        <time>2018-05-11T13:20:07Z</time>
      </trkpt>
      <trkpt lat="50.58757" lon="2.92987">
        <ele>51.6</ele>
        <time>2018-05-11T13:20:11Z</time>
      </trkpt>
      <trkpt lat="50.58756" lon="2.9296">
        <ele>52</ele>
        <time>2018-05-11T13:20:15Z</time>
      </trkpt>
      <trkpt lat="50.58757" lon="2.92941">
        <ele>51.8</ele>
        <time>2018-05-11T13:20:19Z</time>
      </trkpt>
      <trkpt lat="50.58766" lon="2.92936">
        <ele>52</ele>
        <time>2018-05-11T13:20:23Z</time>
      </trkpt>
      <trkpt lat="50.58779" lon="2.92933">
        <ele>52</ele>
        <time>2018-05-11T13:20:27Z</time>
      </trkpt>
      <trkpt lat="50.58795" lon="2.92928">
        <ele>52</ele>
        <time>2018-05-11T13:20:31Z</time>
      </trkpt>
      <trkpt lat="50.58811" lon="2.92919">
        <ele>51.8</ele>
        <time>2018-05-11T13:20:35Z</time>
      </trkpt>
      <trkpt lat="50.58827" lon="2.92908">
        <ele>52</ele>
        <time>2018-05-11T13:20:39Z</time>
      </trkpt>
      <trkpt lat="50.58844" lon="2.92897">
        <ele>52</ele>
        <time>2018-05-11T13:20:43Z</time>
      </trkpt>
      <trkpt lat="50.58859" lon="2.92893">
        <ele>52.6</ele>
        <time>2018-05-11T13:20:47Z</time>
      </trkpt>
      <trkpt lat="50.58866" lon="2.92906">
        <ele>52.8</ele>
        <time>2018-05-11T13:20:51Z</time>
      </trkpt>
      <trkpt lat="50.58862" lon="2.92906">
        <ele>52.6</ele>
        <time>2018-05-11T13:20:55Z</time>
      </trkpt>
      <trkpt lat="50.58862" lon="2.92888">
        <ele>52.6</ele>
        <time>2018-05-11T13:20:59Z</time>
      </trkpt>
      <trkpt lat="50.58872" lon="2.92876">
        <ele>52.8</ele>
        <time>2018-05-11T13:21:03Z</time>
      </trkpt>
      <trkpt lat="50.58884" lon="2.92877">
        <ele>53</ele>
        <time>2018-05-11T13:21:07Z</time>
      </trkpt>
      <trkpt lat="50.58893" lon="2.92871">
        <ele>53.2</ele>
        <time>2018-05-11T13:21:11Z</time>
      </trkpt>
      <trkpt lat="50.58904" lon="2.92867">
        <ele>53.8</ele>
        <time>2018-05-11T13:21:15Z</time>
      </trkpt>
      <trkpt lat="50.58916" lon="2.92867">
        <ele>54</ele>
        <time>2018-05-11T13:21:19Z</time>
      </trkpt>
      <trkpt lat="50.58929" lon="2.92872">
        <ele>54</ele>
        <time>2018-05-11T13:21:23Z</time>
      </trkpt>
      <trkpt lat="50.58944" lon="2.9287">
        <ele>54.2</ele>
        <time>2018-05-11T13:21:27Z</time>
      </trkpt>
      <trkpt lat="50.58957" lon="2.92863">
        <ele>54</ele>
        <time>2018-05-11T13:21:31Z</time>
      </trkpt>
      <trkpt lat="50.58961" lon="2.92842">
        <ele>54.4</ele>
        <time>2018-05-11T13:21:35Z</time>
      </trkpt>
      <trkpt lat="50.58965" lon="2.92823">
        <ele>55.2</ele>
        <time>2018-05-11T13:21:39Z</time>
      </trkpt>
      <trkpt lat="50.58975" lon="2.92805">
        <ele>55.6</ele>
        <time>2018-05-11T13:21:43Z</time>
      </trkpt>
      <trkpt lat="50.58989" lon="2.92791">
        <ele>56.2</ele>
        <time>2018-05-11T13:21:47Z</time>
      </trkpt>
      <trkpt lat="50.59003" lon="2.92778">
        <ele>56.4</ele>
        <time>2018-05-11T13:21:51Z</time>
      </trkpt>
      <trkpt lat="50.59018" lon="2.92768">
        <ele>56.6</ele>
        <time>2018-05-11T13:21:55Z</time>
      </trkpt>
      <trkpt lat="50.59033" lon="2.92762">
        <ele>57.4</ele>
        <time>2018-05-11T13:21:59Z</time>
      </trkpt>
      <trkpt lat="50.59048" lon="2.92767">
        <ele>56.8</ele>
        <time>2018-05-11T13:22:03Z</time>
      </trkpt>
      <trkpt lat="50.59063" lon="2.92773">
        <ele>56.8</ele>
        <time>2018-05-11T13:22:07Z</time>
      </trkpt>
      <trkpt lat="50.59077" lon="2.92768">
        <ele>57.2</ele>
        <time>2018-05-11T13:22:11Z</time>
      </trkpt>
      <trkpt lat="50.59087" lon="2.92751">
        <ele>56.6</ele>
        <time>2018-05-11T13:22:15Z</time>
      </trkpt>
      <trkpt lat="50.59097" lon="2.92733">
        <ele>56.8</ele>
        <time>2018-05-11T13:22:19Z</time>
      </trkpt>
      <trkpt lat="50.59112" lon="2.92724">
        <ele>56.8</ele>
        <time>2018-05-11T13:22:23Z</time>
      </trkpt>
      <trkpt lat="50.59129" lon="2.92717">
        <ele>56.8</ele>
        <time>2018-05-11T13:22:27Z</time>
      </trkpt>
      <trkpt lat="50.59146" lon="2.92712">
        <ele>57.2</ele>
        <time>2018-05-11T13:22:31Z</time>
      </trkpt>
      <trkpt lat="50.59164" lon="2.9271">
        <ele>57.4</ele>
        <time>2018-05-11T13:22:35Z</time>
      </trkpt>
      <trkpt lat="50.59182" lon="2.9271">
        <ele>57.8</ele>
        <time>2018-05-11T13:22:39Z</time>
      </trkpt>
      <trkpt lat="50.592" lon="2.92709">
        <ele>58</ele>
        <time>2018-05-11T13:22:43Z</time>
      </trkpt>
      <trkpt lat="50.59218" lon="2.92708">
        <ele>57.6</ele>
        <time>2018-05-11T13:22:47Z</time>
      </trkpt>
      <trkpt lat="50.59237" lon="2.92706">
        <ele>57.8</ele>
        <time>2018-05-11T13:22:51Z</time>
      </trkpt>
      <trkpt lat="50.59256" lon="2.92703">
        <ele>57.8</ele>
        <time>2018-05-11T13:22:55Z</time>
      </trkpt>
      <trkpt lat="50.59276" lon="2.92697">
        <ele>57</ele>
        <time>2018-05-11T13:22:59Z</time>
      </trkpt>
      <trkpt lat="50.59297" lon="2.9269">
        <ele>56.2</ele>
        <time>2018-05-11T13:23:03Z</time>
      </trkpt>
      <trkpt lat="50.59318" lon="2.92682">
        <ele>56.2</ele>
        <time>2018-05-11T13:23:07Z</time>
      </trkpt>
      <trkpt lat="50.5934" lon="2.92673">
        <ele>55.6</ele>
        <time>2018-05-11T13:23:11Z</time>
      </trkpt>
      <trkpt lat="50.59363" lon="2.92664">
        <ele>55.6</ele>
        <time>2018-05-11T13:23:15Z</time>
      </trkpt>
      <trkpt lat="50.59385" lon="2.92655">
        <ele>55</ele>
        <time>2018-05-11T13:23:19Z</time>
      </trkpt>
      <trkpt lat="50.59408" lon="2.92644">
        <ele>54.8</ele>
        <time>2018-05-11T13:23:23Z</time>
      </trkpt>
      <trkpt lat="50.59431" lon="2.92636">
        <ele>54.8</ele>
        <time>2018-05-11T13:23:27Z</time>
      </trkpt>
      <trkpt lat="50.59454" lon="2.92626">
        <ele>54.4</ele>
        <time>2018-05-11T13:23:31Z</time>
      </trkpt>
      <trkpt lat="50.59478" lon="2.92616">
        <ele>54</ele>
        <time>2018-05-11T13:23:35Z</time>
      </trkpt>
      <trkpt lat="50.59501" lon="2.92606">
        <ele>53.8</ele>
        <time>2018-05-11T13:23:39Z</time>
      </trkpt>
      <trkpt lat="50.59524" lon="2.92596">
        <ele>53.4</ele>
        <time>2018-05-11T13:23:43Z</time>
      </trkpt>
      <trkpt lat="50.59547" lon="2.92583">
        <ele>53.2</ele>
        <time>2018-05-11T13:23:47Z</time>
      </trkpt>
      <trkpt lat="50.5957" lon="2.92568">
        <ele>53.2</ele>
        <time>2018-05-11T13:23:51Z</time>
      </trkpt>
      <trkpt lat="50.5959" lon="2.9255">
        <ele>53.6</ele>
        <time>2018-05-11T13:23:55Z</time>
      </trkpt>
      <trkpt lat="50.59609" lon="2.92529">
        <ele>53.2</ele>
        <time>2018-05-11T13:23:59Z</time>
      </trkpt>
      <trkpt lat="50.59628" lon="2.92507">
        <ele>52.6</ele>
        <time>2018-05-11T13:24:03Z</time>
      </trkpt>
      <trkpt lat="50.5965" lon="2.92484">
        <ele>52.6</ele>
        <time>2018-05-11T13:24:07Z</time>
      </trkpt>
      <trkpt lat="50.5967" lon="2.92461">
        <ele>51.6</ele>
        <time>2018-05-11T13:24:11Z</time>
      </trkpt>
      <trkpt lat="50.59692" lon="2.92438">
        <ele>51.2</ele>
        <time>2018-05-11T13:24:15Z</time>
      </trkpt>
      <trkpt lat="50.59713" lon="2.92415">
        <ele>50.8</ele>
        <time>2018-05-11T13:24:19Z</time>
      </trkpt>
      <trkpt lat="50.59732" lon="2.92392">
        <ele>51.4</ele>
        <time>2018-05-11T13:24:23Z</time>
      </trkpt>
      <trkpt lat="50.59751" lon="2.9237">
        <ele>51</ele>
        <time>2018-05-11T13:24:27Z</time>
      </trkpt>
      <trkpt lat="50.59768" lon="2.92348">
        <ele>51.2</ele>
        <time>2018-05-11T13:24:31Z</time>
      </trkpt>
      <trkpt lat="50.59788" lon="2.92329">
        <ele>51.4</ele>
        <time>2018-05-11T13:24:35Z</time>
      </trkpt>
      <trkpt lat="50.59808" lon="2.9231">
        <ele>51.2</ele>
        <time>2018-05-11T13:24:39Z</time>
      </trkpt>
      <trkpt lat="50.59825" lon="2.92288">
        <ele>51.8</ele>
        <time>2018-05-11T13:24:43Z</time>
      </trkpt>
      <trkpt lat="50.59845" lon="2.92272">
        <ele>52.2</ele>
        <time>2018-05-11T13:24:47Z</time>
      </trkpt>
      <trkpt lat="50.59864" lon="2.9226">
        <ele>51.4</ele>
        <time>2018-05-11T13:24:51Z</time>
      </trkpt>
      <trkpt lat="50.59882" lon="2.92252">
        <ele>52.4</ele>
        <time>2018-05-11T13:24:55Z</time>
      </trkpt>
      <trkpt lat="50.59907" lon="2.92246">
        <ele>52</ele>
        <time>2018-05-11T13:24:59Z</time>
      </trkpt>
      <trkpt lat="50.59929" lon="2.92244">
        <ele>52.2</ele>
        <time>2018-05-11T13:25:03Z</time>
      </trkpt>
      <trkpt lat="50.59949" lon="2.92246">
        <ele>52.6</ele>
        <time>2018-05-11T13:25:07Z</time>
      </trkpt>
      <trkpt lat="50.59968" lon="2.9225">
        <ele>52.8</ele>
        <time>2018-05-11T13:25:11Z</time>
      </trkpt>
      <trkpt lat="50.59987" lon="2.92263">
        <ele>53.2</ele>
        <time>2018-05-11T13:25:15Z</time>
      </trkpt>
      <trkpt lat="50.60003" lon="2.92277">
        <ele>53.6</ele>
        <time>2018-05-11T13:25:19Z</time>
      </trkpt>
      <trkpt lat="50.6002" lon="2.92292">
        <ele>53.6</ele>
        <time>2018-05-11T13:25:23Z</time>
      </trkpt>
      <trkpt lat="50.60029" lon="2.92312">
        <ele>54.6</ele>
        <time>2018-05-11T13:25:27Z</time>
      </trkpt>
      <trkpt lat="50.60046" lon="2.92318">
        <ele>54.4</ele>
        <time>2018-05-11T13:25:31Z</time>
      </trkpt>
      <trkpt lat="50.6006" lon="2.92329">
        <ele>54.2</ele>
        <time>2018-05-11T13:25:35Z</time>
      </trkpt>
      <trkpt lat="50.60072" lon="2.9234">
        <ele>55</ele>
        <time>2018-05-11T13:25:39Z</time>
      </trkpt>
      <trkpt lat="50.60078" lon="2.92349">
        <ele>54.8</ele>
        <time>2018-05-11T13:25:43Z</time>
      </trkpt>
      <trkpt lat="50.60071" lon="2.92353">
        <ele>55</ele>
        <time>2018-05-11T13:25:47Z</time>
      </trkpt>
      <trkpt lat="50.60062" lon="2.92359">
        <ele>54</ele>
        <time>2018-05-11T13:25:51Z</time>
      </trkpt>
      <trkpt lat="50.60052" lon="2.92371">
        <ele>53</ele>
        <time>2018-05-11T13:25:55Z</time>
      </trkpt>
      <trkpt lat="50.60053" lon="2.92391">
        <ele>52.6</ele>
        <time>2018-05-11T13:25:59Z</time>
      </trkpt>
      <trkpt lat="50.6006" lon="2.92412">
        <ele>52.8</ele>
        <time>2018-05-11T13:26:03Z</time>
      </trkpt>
      <trkpt lat="50.60065" lon="2.92436">
        <ele>52.2</ele>
        <time>2018-05-11T13:26:07Z</time>
      </trkpt>
      <trkpt lat="50.6007" lon="2.92463">
        <ele>53.2</ele>
        <time>2018-05-11T13:26:11Z</time>
      </trkpt>
      <trkpt lat="50.60076" lon="2.92491">
        <ele>52.4</ele>
        <time>2018-05-11T13:26:15Z</time>
      </trkpt>
      <trkpt lat="50.60082" lon="2.92517">
        <ele>52.6</ele>
        <time>2018-05-11T13:26:19Z</time>
      </trkpt>
      <trkpt lat="50.60088" lon="2.92544">
        <ele>52.6</ele>
        <time>2018-05-11T13:26:23Z</time>
      </trkpt>
      <trkpt lat="50.60096" lon="2.9257">
        <ele>51.6</ele>
        <time>2018-05-11T13:26:27Z</time>
      </trkpt>
      <trkpt lat="50.60104" lon="2.92596">
        <ele>52</ele>
        <time>2018-05-11T13:26:31Z</time>
      </trkpt>
      <trkpt lat="50.60114" lon="2.92621">
        <ele>52.4</ele>
        <time>2018-05-11T13:26:35Z</time>
      </trkpt>
      <trkpt lat="50.60124" lon="2.92646">
        <ele>52.4</ele>
        <time>2018-05-11T13:26:39Z</time>
      </trkpt>
      <trkpt lat="50.60133" lon="2.92672">
        <ele>51.4</ele>
        <time>2018-05-11T13:26:43Z</time>
      </trkpt>
      <trkpt lat="50.60143" lon="2.92698">
        <ele>52.4</ele>
        <time>2018-05-11T13:26:47Z</time>
      </trkpt>
      <trkpt lat="50.60152" lon="2.92723">
        <ele>51.4</ele>
        <time>2018-05-11T13:26:51Z</time>
      </trkpt>
      <trkpt lat="50.60163" lon="2.92749">
        <ele>51.4</ele>
        <time>2018-05-11T13:26:55Z</time>
      </trkpt>
      <trkpt lat="50.60172" lon="2.92776">
        <ele>51.6</ele>
        <time>2018-05-11T13:26:59Z</time>
      </trkpt>
      <trkpt lat="50.60182" lon="2.92802">
        <ele>51</ele>
        <time>2018-05-11T13:27:03Z</time>
      </trkpt>
      <trkpt lat="50.60192" lon="2.9283">
        <ele>51.4</ele>
        <time>2018-05-11T13:27:07Z</time>
      </trkpt>
      <trkpt lat="50.60203" lon="2.92856">
        <ele>51.6</ele>
        <time>2018-05-11T13:27:11Z</time>
      </trkpt>
      <trkpt lat="50.60213" lon="2.92883">
        <ele>52.2</ele>
        <time>2018-05-11T13:27:15Z</time>
      </trkpt>
      <trkpt lat="50.60224" lon="2.92912">
        <ele>51.8</ele>
        <time>2018-05-11T13:27:19Z</time>
      </trkpt>
      <trkpt lat="50.60234" lon="2.92939">
        <ele>51.2</ele>
        <time>2018-05-11T13:27:23Z</time>
      </trkpt>
      <trkpt lat="50.60242" lon="2.92958">
        <ele>51.2</ele>
        <time>2018-05-11T13:27:27Z</time>
      </trkpt>
      <trkpt lat="50.60247" lon="2.92971">
        <ele>51.2</ele>
        <time>2018-05-11T13:27:31Z</time>
      </trkpt>
      <trkpt lat="50.60254" lon="2.92996">
        <ele>50.8</ele>
        <time>2018-05-11T13:27:35Z</time>
      </trkpt>
      <trkpt lat="50.6026" lon="2.93024">
        <ele>51</ele>
        <time>2018-05-11T13:27:39Z</time>
      </trkpt>
      <trkpt lat="50.60265" lon="2.93054">
        <ele>50.4</ele>
        <time>2018-05-11T13:27:43Z</time>
      </trkpt>
      <trkpt lat="50.60269" lon="2.93082">
        <ele>50</ele>
        <time>2018-05-11T13:27:47Z</time>
      </trkpt>
      <trkpt lat="50.60273" lon="2.93108">
        <ele>50</ele>
        <time>2018-05-11T13:27:51Z</time>
      </trkpt>
      <trkpt lat="50.60277" lon="2.93134">
        <ele>50.2</ele>
        <time>2018-05-11T13:27:55Z</time>
      </trkpt>
      <trkpt lat="50.60284" lon="2.93161">
        <ele>49.8</ele>
        <time>2018-05-11T13:27:59Z</time>
      </trkpt>
      <trkpt lat="50.6029" lon="2.93189">
        <ele>50.2</ele>
        <time>2018-05-11T13:28:03Z</time>
      </trkpt>
      <trkpt lat="50.60296" lon="2.9322">
        <ele>50.4</ele>
        <time>2018-05-11T13:28:07Z</time>
      </trkpt>
      <trkpt lat="50.60297" lon="2.93252">
        <ele>50.8</ele>
        <time>2018-05-11T13:28:11Z</time>
      </trkpt>
      <trkpt lat="50.60295" lon="2.93284">
        <ele>51</ele>
        <time>2018-05-11T13:28:15Z</time>
      </trkpt>
      <trkpt lat="50.60292" lon="2.93316">
        <ele>51.2</ele>
        <time>2018-05-11T13:28:19Z</time>
      </trkpt>
      <trkpt lat="50.60288" lon="2.93348">
        <ele>51</ele>
        <time>2018-05-11T13:28:23Z</time>
      </trkpt>
      <trkpt lat="50.60288" lon="2.9338">
        <ele>51.8</ele>
        <time>2018-05-11T13:28:27Z</time>
      </trkpt>
      <trkpt lat="50.60292" lon="2.93409">
        <ele>52</ele>
        <time>2018-05-11T13:28:31Z</time>
      </trkpt>
      <trkpt lat="50.60296" lon="2.93438">
        <ele>52.6</ele>
        <time>2018-05-11T13:28:35Z</time>
      </trkpt>
      <trkpt lat="50.60302" lon="2.93465">
        <ele>53.4</ele>
        <time>2018-05-11T13:28:39Z</time>
      </trkpt>
      <trkpt lat="50.60308" lon="2.93492">
        <ele>53.2</ele>
        <time>2018-05-11T13:28:43Z</time>
      </trkpt>
      <trkpt lat="50.60314" lon="2.93517">
        <ele>53.4</ele>
        <time>2018-05-11T13:28:47Z</time>
      </trkpt>
      <trkpt lat="50.60318" lon="2.93541">
        <ele>54</ele>
        <time>2018-05-11T13:28:51Z</time>
      </trkpt>
      <trkpt lat="50.60322" lon="2.93567">
        <ele>54.4</ele>
        <time>2018-05-11T13:28:55Z</time>
      </trkpt>
      <trkpt lat="50.60332" lon="2.93577">
        <ele>54.8</ele>
        <time>2018-05-11T13:28:59Z</time>
      </trkpt>
      <trkpt lat="50.60344" lon="2.9357">
        <ele>55</ele>
        <time>2018-05-11T13:29:03Z</time>
      </trkpt>
      <trkpt lat="50.60357" lon="2.93561">
        <ele>54</ele>
        <time>2018-05-11T13:29:07Z</time>
      </trkpt>
      <trkpt lat="50.60369" lon="2.93551">
        <ele>54</ele>
        <time>2018-05-11T13:29:11Z</time>
      </trkpt>
      <trkpt lat="50.60379" lon="2.93545">
        <ele>54.4</ele>
        <time>2018-05-11T13:29:15Z</time>
      </trkpt>
      <trkpt lat="50.60391" lon="2.93538">
        <ele>54.4</ele>
        <time>2018-05-11T13:29:19Z</time>
      </trkpt>
      <trkpt lat="50.604" lon="2.93531">
        <ele>55.2</ele>
        <time>2018-05-11T13:29:23Z</time>
      </trkpt>
      <trkpt lat="50.60412" lon="2.93523">
        <ele>54.4</ele>
        <time>2018-05-11T13:29:27Z</time>
      </trkpt>
      <trkpt lat="50.60426" lon="2.93516">
        <ele>53.8</ele>
        <time>2018-05-11T13:29:31Z</time>
      </trkpt>
      <trkpt lat="50.60437" lon="2.9351">
        <ele>54.2</ele>
        <time>2018-05-11T13:29:35Z</time>
      </trkpt>
      <trkpt lat="50.60455" lon="2.93499">
        <ele>54.6</ele>
        <time>2018-05-11T13:29:39Z</time>
      </trkpt>
      <trkpt lat="50.60466" lon="2.93493">
        <ele>54.4</ele>
        <time>2018-05-11T13:29:43Z</time>
      </trkpt>
      <trkpt lat="50.60475" lon="2.93487">
        <ele>54.8</ele>
        <time>2018-05-11T13:29:47Z</time>
      </trkpt>
      <trkpt lat="50.6048" lon="2.9348">
        <ele>54.8</ele>
        <time>2018-05-11T13:29:51Z</time>
      </trkpt>
      <trkpt lat="50.60491" lon="2.93476">
        <ele>55.6</ele>
        <time>2018-05-11T13:29:55Z</time>
      </trkpt>
      <trkpt lat="50.60507" lon="2.93468">
        <ele>55.4</ele>
        <time>2018-05-11T13:29:59Z</time>
      </trkpt>
      <trkpt lat="50.6052" lon="2.9346">
        <ele>55.6</ele>
        <time>2018-05-11T13:30:03Z</time>
      </trkpt>
      <trkpt lat="50.60533" lon="2.93453">
        <ele>55.4</ele>
        <time>2018-05-11T13:30:07Z</time>
      </trkpt>
      <trkpt lat="50.60548" lon="2.93443">
        <ele>55.4</ele>
        <time>2018-05-11T13:30:11Z</time>
      </trkpt>
      <trkpt lat="50.60561" lon="2.93436">
        <ele>55.4</ele>
        <time>2018-05-11T13:30:15Z</time>
      </trkpt>
      <trkpt lat="50.60572" lon="2.93431">
        <ele>55.4</ele>
        <time>2018-05-11T13:30:19Z</time>
      </trkpt>
      <trkpt lat="50.60587" lon="2.93422">
        <ele>56</ele>
        <time>2018-05-11T13:30:23Z</time>
      </trkpt>
      <trkpt lat="50.60602" lon="2.93412">
        <ele>55.8</ele>
        <time>2018-05-11T13:30:27Z</time>
      </trkpt>
      <trkpt lat="50.60615" lon="2.93403">
        <ele>55.8</ele>
        <time>2018-05-11T13:30:31Z</time>
      </trkpt>
      <trkpt lat="50.6063" lon="2.93395">
        <ele>56.2</ele>
        <time>2018-05-11T13:30:35Z</time>
      </trkpt>
      <trkpt lat="50.60644" lon="2.93388">
        <ele>56.2</ele>
        <time>2018-05-11T13:30:39Z</time>
      </trkpt>
      <trkpt lat="50.6066" lon="2.93381">
        <ele>56.2</ele>
        <time>2018-05-11T13:30:43Z</time>
      </trkpt>
      <trkpt lat="50.60673" lon="2.93373">
        <ele>56.8</ele>
        <time>2018-05-11T13:30:47Z</time>
      </trkpt>
      <trkpt lat="50.60685" lon="2.93365">
        <ele>56.6</ele>
        <time>2018-05-11T13:30:51Z</time>
      </trkpt>
      <trkpt lat="50.60697" lon="2.93358">
        <ele>57</ele>
        <time>2018-05-11T13:30:55Z</time>
      </trkpt>
      <trkpt lat="50.60706" lon="2.9335">
        <ele>56.8</ele>
        <time>2018-05-11T13:30:59Z</time>
      </trkpt>
      <trkpt lat="50.60718" lon="2.93344">
        <ele>57.2</ele>
        <time>2018-05-11T13:31:03Z</time>
      </trkpt>
      <trkpt lat="50.60732" lon="2.93337">
        <ele>57.2</ele>
        <time>2018-05-11T13:31:07Z</time>
      </trkpt>
      <trkpt lat="50.60744" lon="2.93328">
        <ele>57.2</ele>
        <time>2018-05-11T13:31:11Z</time>
      </trkpt>
      <trkpt lat="50.6076" lon="2.93321">
        <ele>57</ele>
        <time>2018-05-11T13:31:15Z</time>
      </trkpt>
      <trkpt lat="50.60773" lon="2.93314">
        <ele>57.8</ele>
        <time>2018-05-11T13:31:19Z</time>
      </trkpt>
      <trkpt lat="50.60788" lon="2.93307">
        <ele>58.2</ele>
        <time>2018-05-11T13:31:23Z</time>
      </trkpt>
      <trkpt lat="50.60801" lon="2.93296">
        <ele>58.2</ele>
        <time>2018-05-11T13:31:27Z</time>
      </trkpt>
      <trkpt lat="50.60817" lon="2.93288">
        <ele>58.4</ele>
        <time>2018-05-11T13:31:31Z</time>
      </trkpt>
      <trkpt lat="50.60828" lon="2.93282">
        <ele>58.4</ele>
        <time>2018-05-11T13:31:35Z</time>
      </trkpt>
      <trkpt lat="50.6084" lon="2.93274">
        <ele>57.4</ele>
        <time>2018-05-11T13:31:39Z</time>
      </trkpt>
      <trkpt lat="50.60853" lon="2.93263">
        <ele>58.6</ele>
        <time>2018-05-11T13:31:43Z</time>
      </trkpt>
      <trkpt lat="50.60869" lon="2.93258">
        <ele>58.8</ele>
        <time>2018-05-11T13:31:47Z</time>
      </trkpt>
      <trkpt lat="50.60877" lon="2.93255">
        <ele>58.6</ele>
        <time>2018-05-11T13:31:51Z</time>
      </trkpt>
      <trkpt lat="50.60885" lon="2.93248">
        <ele>58.4</ele>
        <time>2018-05-11T13:31:55Z</time>
      </trkpt>
      <trkpt lat="50.60898" lon="2.93241">
        <ele>58.4</ele>
        <time>2018-05-11T13:31:59Z</time>
      </trkpt>
      <trkpt lat="50.6091" lon="2.93232">
        <ele>59.2</ele>
        <time>2018-05-11T13:32:03Z</time>
      </trkpt>
      <trkpt lat="50.60923" lon="2.93226">
        <ele>59.2</ele>
        <time>2018-05-11T13:32:07Z</time>
      </trkpt>
      <trkpt lat="50.60933" lon="2.93221">
        <ele>59.6</ele>
        <time>2018-05-11T13:32:11Z</time>
      </trkpt>
      <trkpt lat="50.60944" lon="2.93213">
        <ele>59.6</ele>
        <time>2018-05-11T13:32:15Z</time>
      </trkpt>
      <trkpt lat="50.60954" lon="2.93205">
        <ele>59.8</ele>
        <time>2018-05-11T13:32:19Z</time>
      </trkpt>
      <trkpt lat="50.60966" lon="2.93198">
        <ele>60</ele>
        <time>2018-05-11T13:32:23Z</time>
      </trkpt>
      <trkpt lat="50.60977" lon="2.9319">
        <ele>59.6</ele>
        <time>2018-05-11T13:32:27Z</time>
      </trkpt>
      <trkpt lat="50.60995" lon="2.93189">
        <ele>60.4</ele>
        <time>2018-05-11T13:32:35Z</time>
      </trkpt>
      <trkpt lat="50.61003" lon="2.93189">
        <ele>60.4</ele>
        <time>2018-05-11T13:32:39Z</time>
      </trkpt>
      <trkpt lat="50.61009" lon="2.93188">
        <ele>60.6</ele>
        <time>2018-05-11T13:32:43Z</time>
      </trkpt>
      <trkpt lat="50.61012" lon="2.93187">
        <ele>60.2</ele>
        <time>2018-05-11T13:32:51Z</time>
      </trkpt>
      <trkpt lat="50.61015" lon="2.93185">
        <ele>60</ele>
        <time>2018-05-11T13:32:59Z</time>
      </trkpt>
      <trkpt lat="50.6102" lon="2.93182">
        <ele>59.8</ele>
        <time>2018-05-11T13:33:03Z</time>
      </trkpt>
      <trkpt lat="50.61025" lon="2.93178">
        <ele>59.6</ele>
        <time>2018-05-11T13:33:07Z</time>
      </trkpt>
      <trkpt lat="50.61033" lon="2.93173">
        <ele>59.6</ele>
        <time>2018-05-11T13:33:11Z</time>
      </trkpt>
      <trkpt lat="50.61039" lon="2.9317">
        <ele>59.8</ele>
        <time>2018-05-11T13:33:15Z</time>
      </trkpt>
      <trkpt lat="50.61046" lon="2.93165">
        <ele>60.8</ele>
        <time>2018-05-11T13:33:19Z</time>
      </trkpt>
      <trkpt lat="50.61055" lon="2.93157">
        <ele>60.6</ele>
        <time>2018-05-11T13:33:23Z</time>
      </trkpt>
      <trkpt lat="50.61065" lon="2.93155">
        <ele>60.8</ele>
        <time>2018-05-11T13:33:27Z</time>
      </trkpt>
      <trkpt lat="50.61075" lon="2.93147">
        <ele>61.2</ele>
        <time>2018-05-11T13:33:31Z</time>
      </trkpt>
      <trkpt lat="50.61087" lon="2.93142">
        <ele>61.2</ele>
        <time>2018-05-11T13:33:35Z</time>
      </trkpt>
      <trkpt lat="50.61099" lon="2.93135">
        <ele>61</ele>
        <time>2018-05-11T13:33:39Z</time>
      </trkpt>
      <trkpt lat="50.6111" lon="2.93129">
        <ele>61.2</ele>
        <time>2018-05-11T13:33:43Z</time>
      </trkpt>
      <trkpt lat="50.61123" lon="2.93121">
        <ele>61.6</ele>
        <time>2018-05-11T13:33:47Z</time>
      </trkpt>
      <trkpt lat="50.61138" lon="2.93114">
        <ele>61</ele>
        <time>2018-05-11T13:33:51Z</time>
      </trkpt>
      <trkpt lat="50.61149" lon="2.93109">
        <ele>61</ele>
        <time>2018-05-11T13:33:55Z</time>
      </trkpt>
      <trkpt lat="50.61159" lon="2.93103">
        <ele>60.8</ele>
        <time>2018-05-11T13:33:59Z</time>
      </trkpt>
      <trkpt lat="50.61171" lon="2.93096">
        <ele>61.8</ele>
        <time>2018-05-11T13:34:03Z</time>
      </trkpt>
      <trkpt lat="50.61185" lon="2.93087">
        <ele>61.6</ele>
        <time>2018-05-11T13:34:07Z</time>
      </trkpt>
      <trkpt lat="50.61196" lon="2.93081">
        <ele>61.6</ele>
        <time>2018-05-11T13:34:11Z</time>
      </trkpt>
      <trkpt lat="50.61208" lon="2.93073">
        <ele>61.6</ele>
        <time>2018-05-11T13:34:15Z</time>
      </trkpt>
      <trkpt lat="50.61221" lon="2.93066">
        <ele>62</ele>
        <time>2018-05-11T13:34:19Z</time>
      </trkpt>
      <trkpt lat="50.61237" lon="2.93057">
        <ele>61.6</ele>
        <time>2018-05-11T13:34:23Z</time>
      </trkpt>
      <trkpt lat="50.61252" lon="2.93048">
        <ele>61.2</ele>
        <time>2018-05-11T13:34:27Z</time>
      </trkpt>
      <trkpt lat="50.61265" lon="2.93039">
        <ele>61.6</ele>
        <time>2018-05-11T13:34:31Z</time>
      </trkpt>
      <trkpt lat="50.61276" lon="2.93027">
        <ele>61.4</ele>
        <time>2018-05-11T13:34:35Z</time>
      </trkpt>
      <trkpt lat="50.61288" lon="2.93017">
        <ele>61.8</ele>
        <time>2018-05-11T13:34:39Z</time>
      </trkpt>
      <trkpt lat="50.61301" lon="2.9301">
        <ele>62</ele>
        <time>2018-05-11T13:34:43Z</time>
      </trkpt>
      <trkpt lat="50.61314" lon="2.93002">
        <ele>62</ele>
        <time>2018-05-11T13:34:47Z</time>
      </trkpt>
      <trkpt lat="50.61327" lon="2.92995">
        <ele>62.2</ele>
        <time>2018-05-11T13:34:51Z</time>
      </trkpt>
      <trkpt lat="50.6134" lon="2.92988">
        <ele>62.4</ele>
        <time>2018-05-11T13:34:55Z</time>
      </trkpt>
      <trkpt lat="50.61353" lon="2.92981">
        <ele>63.2</ele>
        <time>2018-05-11T13:34:59Z</time>
      </trkpt>
      <trkpt lat="50.61366" lon="2.92974">
        <ele>64</ele>
        <time>2018-05-11T13:35:03Z</time>
      </trkpt>
      <trkpt lat="50.61379" lon="2.92965">
        <ele>63.2</ele>
        <time>2018-05-11T13:35:07Z</time>
      </trkpt>
      <trkpt lat="50.61392" lon="2.92957">
        <ele>64</ele>
        <time>2018-05-11T13:35:11Z</time>
      </trkpt>
      <trkpt lat="50.61404" lon="2.9295">
        <ele>63.6</ele>
        <time>2018-05-11T13:35:15Z</time>
      </trkpt>
      <trkpt lat="50.61417" lon="2.92943">
        <ele>64.2</ele>
        <time>2018-05-11T13:35:19Z</time>
      </trkpt>
      <trkpt lat="50.6143" lon="2.92938">
        <ele>64</ele>
        <time>2018-05-11T13:35:23Z</time>
      </trkpt>
      <trkpt lat="50.61443" lon="2.92931">
        <ele>64</ele>
        <time>2018-05-11T13:35:27Z</time>
      </trkpt>
      <trkpt lat="50.6145" lon="2.92925">
        <ele>63.2</ele>
        <time>2018-05-11T13:35:31Z</time>
      </trkpt>
      <trkpt lat="50.61452" lon="2.92925">
        <ele>64.2</ele>
        <time>2018-05-11T13:35:47Z</time>
      </trkpt>
      <trkpt lat="50.61453" lon="2.92915">
        <ele>64</ele>
        <time>2018-05-11T13:35:51Z</time>
      </trkpt>
      <trkpt lat="50.61457" lon="2.929">
        <ele>64</ele>
        <time>2018-05-11T13:35:55Z</time>
      </trkpt>
      <trkpt lat="50.61465" lon="2.92887">
        <ele>64</ele>
        <time>2018-05-11T13:35:59Z</time>
      </trkpt>
      <trkpt lat="50.61477" lon="2.92874">
        <ele>64</ele>
        <time>2018-05-11T13:36:03Z</time>
      </trkpt>
      <trkpt lat="50.6149" lon="2.9286">
        <ele>63.6</ele>
        <time>2018-05-11T13:36:07Z</time>
      </trkpt>
      <trkpt lat="50.61504" lon="2.92845">
        <ele>63.8</ele>
        <time>2018-05-11T13:36:11Z</time>
      </trkpt>
      <trkpt lat="50.61517" lon="2.9283">
        <ele>63.8</ele>
        <time>2018-05-11T13:36:15Z</time>
      </trkpt>
      <trkpt lat="50.61532" lon="2.92814">
        <ele>64</ele>
        <time>2018-05-11T13:36:19Z</time>
      </trkpt>
      <trkpt lat="50.61548" lon="2.928">
        <ele>63.4</ele>
        <time>2018-05-11T13:36:23Z</time>
      </trkpt>
      <trkpt lat="50.61566" lon="2.92789">
        <ele>64</ele>
        <time>2018-05-11T13:36:27Z</time>
      </trkpt>
      <trkpt lat="50.61585" lon="2.92777">
        <ele>64</ele>
        <time>2018-05-11T13:36:31Z</time>
      </trkpt>
      <trkpt lat="50.61603" lon="2.92766">
        <ele>64.2</ele>
        <time>2018-05-11T13:36:35Z</time>
      </trkpt>
      <trkpt lat="50.61621" lon="2.92753">
        <ele>64</ele>
        <time>2018-05-11T13:36:39Z</time>
      </trkpt>
      <trkpt lat="50.61639" lon="2.92741">
        <ele>64</ele>
        <time>2018-05-11T13:36:43Z</time>
      </trkpt>
      <trkpt lat="50.61658" lon="2.92729">
        <ele>64.4</ele>
        <time>2018-05-11T13:36:47Z</time>
      </trkpt>
      <trkpt lat="50.61676" lon="2.92719">
        <ele>65</ele>
        <time>2018-05-11T13:36:51Z</time>
      </trkpt>
      <trkpt lat="50.61694" lon="2.92707">
        <ele>64.8</ele>
        <time>2018-05-11T13:36:55Z</time>
      </trkpt>
      <trkpt lat="50.61713" lon="2.92695">
        <ele>64.6</ele>
        <time>2018-05-11T13:36:59Z</time>
      </trkpt>
      <trkpt lat="50.61732" lon="2.92683">
        <ele>64.6</ele>
        <time>2018-05-11T13:37:03Z</time>
      </trkpt>
      <trkpt lat="50.61749" lon="2.92672">
        <ele>64</ele>
        <time>2018-05-11T13:37:07Z</time>
      </trkpt>
      <trkpt lat="50.61768" lon="2.92663">
        <ele>64</ele>
        <time>2018-05-11T13:37:11Z</time>
      </trkpt>
      <trkpt lat="50.61785" lon="2.92649">
        <ele>63.6</ele>
        <time>2018-05-11T13:37:15Z</time>
      </trkpt>
      <trkpt lat="50.61803" lon="2.92635">
        <ele>63.8</ele>
        <time>2018-05-11T13:37:19Z</time>
      </trkpt>
      <trkpt lat="50.6182" lon="2.92623">
        <ele>63.4</ele>
        <time>2018-05-11T13:37:23Z</time>
      </trkpt>
      <trkpt lat="50.61839" lon="2.92616">
        <ele>63.2</ele>
        <time>2018-05-11T13:37:27Z</time>
      </trkpt>
      <trkpt lat="50.61854" lon="2.92621">
        <ele>63.6</ele>
        <time>2018-05-11T13:37:31Z</time>
      </trkpt>
      <trkpt lat="50.61863" lon="2.92643">
        <ele>63.4</ele>
        <time>2018-05-11T13:37:35Z</time>
      </trkpt>
      <trkpt lat="50.61872" lon="2.9267">
        <ele>63.8</ele>
        <time>2018-05-11T13:37:39Z</time>
      </trkpt>
      <trkpt lat="50.6188" lon="2.92697">
        <ele>63.2</ele>
        <time>2018-05-11T13:37:43Z</time>
      </trkpt>
      <trkpt lat="50.61888" lon="2.92727">
        <ele>63.4</ele>
        <time>2018-05-11T13:37:47Z</time>
      </trkpt>
      <trkpt lat="50.61896" lon="2.92756">
        <ele>63.2</ele>
        <time>2018-05-11T13:37:51Z</time>
      </trkpt>
      <trkpt lat="50.61902" lon="2.92788">
        <ele>63.2</ele>
        <time>2018-05-11T13:37:55Z</time>
      </trkpt>
      <trkpt lat="50.61905" lon="2.92819">
        <ele>63.2</ele>
        <time>2018-05-11T13:37:59Z</time>
      </trkpt>
      <trkpt lat="50.61905" lon="2.92851">
        <ele>63</ele>
        <time>2018-05-11T13:38:03Z</time>
      </trkpt>
      <trkpt lat="50.61903" lon="2.9288">
        <ele>62.8</ele>
        <time>2018-05-11T13:38:07Z</time>
      </trkpt>
      <trkpt lat="50.619" lon="2.9291">
        <ele>63.8</ele>
        <time>2018-05-11T13:38:11Z</time>
      </trkpt>
      <trkpt lat="50.61898" lon="2.92941">
        <ele>63.2</ele>
        <time>2018-05-11T13:38:15Z</time>
      </trkpt>
      <trkpt lat="50.61895" lon="2.92971">
        <ele>63.2</ele>
        <time>2018-05-11T13:38:19Z</time>
      </trkpt>
      <trkpt lat="50.61892" lon="2.93001">
        <ele>63.8</ele>
        <time>2018-05-11T13:38:23Z</time>
      </trkpt>
      <trkpt lat="50.61889" lon="2.9303">
        <ele>63.4</ele>
        <time>2018-05-11T13:38:27Z</time>
      </trkpt>
      <trkpt lat="50.61885" lon="2.93059">
        <ele>64</ele>
        <time>2018-05-11T13:38:31Z</time>
      </trkpt>
      <trkpt lat="50.61882" lon="2.93089">
        <ele>64</ele>
        <time>2018-05-11T13:38:35Z</time>
      </trkpt>
      <trkpt lat="50.61879" lon="2.93121">
        <ele>63.8</ele>
        <time>2018-05-11T13:38:39Z</time>
      </trkpt>
      <trkpt lat="50.61876" lon="2.93152">
        <ele>63.6</ele>
        <time>2018-05-11T13:38:43Z</time>
      </trkpt>
      <trkpt lat="50.61874" lon="2.9318">
        <ele>63.6</ele>
        <time>2018-05-11T13:38:47Z</time>
      </trkpt>
      <trkpt lat="50.61873" lon="2.93205">
        <ele>63.4</ele>
        <time>2018-05-11T13:38:51Z</time>
      </trkpt>
      <trkpt lat="50.61878" lon="2.93225">
        <ele>62.6</ele>
        <time>2018-05-11T13:38:55Z</time>
      </trkpt>
      <trkpt lat="50.61896" lon="2.93227">
        <ele>62.2</ele>
        <time>2018-05-11T13:38:59Z</time>
      </trkpt>
      <trkpt lat="50.61906" lon="2.93236">
        <ele>63.4</ele>
        <time>2018-05-11T13:39:03Z</time>
      </trkpt>
      <trkpt lat="50.61896" lon="2.9325">
        <ele>63.8</ele>
        <time>2018-05-11T13:39:07Z</time>
      </trkpt>
      <trkpt lat="50.61885" lon="2.93264">
        <ele>63.4</ele>
        <time>2018-05-11T13:39:11Z</time>
      </trkpt>
      <trkpt lat="50.61875" lon="2.93284">
        <ele>63.2</ele>
        <time>2018-05-11T13:39:15Z</time>
      </trkpt>
      <trkpt lat="50.6187" lon="2.93311">
        <ele>63.6</ele>
        <time>2018-05-11T13:39:19Z</time>
      </trkpt>
      <trkpt lat="50.61872" lon="2.93339">
        <ele>63.6</ele>
        <time>2018-05-11T13:39:23Z</time>
      </trkpt>
      <trkpt lat="50.61875" lon="2.93368">
        <ele>63.6</ele>
        <time>2018-05-11T13:39:27Z</time>
      </trkpt>
      <trkpt lat="50.61877" lon="2.93396">
        <ele>63.6</ele>
        <time>2018-05-11T13:39:31Z</time>
      </trkpt>
      <trkpt lat="50.61879" lon="2.93424">
        <ele>64</ele>
        <time>2018-05-11T13:39:35Z</time>
      </trkpt>
      <trkpt lat="50.6188" lon="2.93453">
        <ele>63.8</ele>
        <time>2018-05-11T13:39:39Z</time>
      </trkpt>
      <trkpt lat="50.61881" lon="2.93481">
        <ele>64.4</ele>
        <time>2018-05-11T13:39:43Z</time>
      </trkpt>
      <trkpt lat="50.61881" lon="2.93508">
        <ele>64</ele>
        <time>2018-05-11T13:39:47Z</time>
      </trkpt>
      <trkpt lat="50.61882" lon="2.93536">
        <ele>64.4</ele>
        <time>2018-05-11T13:39:51Z</time>
      </trkpt>
      <trkpt lat="50.61882" lon="2.93562">
        <ele>64.8</ele>
        <time>2018-05-11T13:39:55Z</time>
      </trkpt>
      <trkpt lat="50.61882" lon="2.93589">
        <ele>64.6</ele>
        <time>2018-05-11T13:39:59Z</time>
      </trkpt>
      <trkpt lat="50.61881" lon="2.93616">
        <ele>65.2</ele>
        <time>2018-05-11T13:40:03Z</time>
      </trkpt>
      <trkpt lat="50.6188" lon="2.93643">
        <ele>65.4</ele>
        <time>2018-05-11T13:40:07Z</time>
      </trkpt>
      <trkpt lat="50.61879" lon="2.93668">
        <ele>66.2</ele>
        <time>2018-05-11T13:40:11Z</time>
      </trkpt>
      <trkpt lat="50.61877" lon="2.93692">
        <ele>66.4</ele>
        <time>2018-05-11T13:40:15Z</time>
      </trkpt>
      <trkpt lat="50.61871" lon="2.93712">
        <ele>67</ele>
        <time>2018-05-11T13:40:19Z</time>
      </trkpt>
      <trkpt lat="50.6187" lon="2.93736">
        <ele>67</ele>
        <time>2018-05-11T13:40:23Z</time>
      </trkpt>
      <trkpt lat="50.61865" lon="2.93743">
        <ele>67.4</ele>
        <time>2018-05-11T13:40:27Z</time>
      </trkpt>
      <trkpt lat="50.61857" lon="2.93727">
        <ele>67.6</ele>
        <time>2018-05-11T13:40:31Z</time>
      </trkpt>
      <trkpt lat="50.61847" lon="2.93709">
        <ele>67.6</ele>
        <time>2018-05-11T13:40:35Z</time>
      </trkpt>
      <trkpt lat="50.61836" lon="2.9369">
        <ele>67.4</ele>
        <time>2018-05-11T13:40:39Z</time>
      </trkpt>
      <trkpt lat="50.61825" lon="2.93671">
        <ele>67.2</ele>
        <time>2018-05-11T13:40:43Z</time>
      </trkpt>
      <trkpt lat="50.61814" lon="2.93653">
        <ele>67</ele>
        <time>2018-05-11T13:40:47Z</time>
      </trkpt>
      <trkpt lat="50.61804" lon="2.93633">
        <ele>67</ele>
        <time>2018-05-11T13:40:51Z</time>
      </trkpt>
      <trkpt lat="50.61798" lon="2.93611">
        <ele>66.6</ele>
        <time>2018-05-11T13:40:55Z</time>
      </trkpt>
      <trkpt lat="50.61799" lon="2.93586">
        <ele>67</ele>
        <time>2018-05-11T13:40:59Z</time>
      </trkpt>
      <trkpt lat="50.61791" lon="2.93565">
        <ele>66.6</ele>
        <time>2018-05-11T13:41:03Z</time>
      </trkpt>
      <trkpt lat="50.61776" lon="2.93556">
        <ele>67</ele>
        <time>2018-05-11T13:41:07Z</time>
      </trkpt>
      <trkpt lat="50.61761" lon="2.93563">
        <ele>67</ele>
        <time>2018-05-11T13:41:11Z</time>
      </trkpt>
      <trkpt lat="50.61751" lon="2.93582">
        <ele>67</ele>
        <time>2018-05-11T13:41:15Z</time>
      </trkpt>
      <trkpt lat="50.61746" lon="2.93606">
        <ele>66.6</ele>
        <time>2018-05-11T13:41:19Z</time>
      </trkpt>
      <trkpt lat="50.61737" lon="2.93627">
        <ele>67.2</ele>
        <time>2018-05-11T13:41:23Z</time>
      </trkpt>
      <trkpt lat="50.61722" lon="2.93642">
        <ele>67.4</ele>
        <time>2018-05-11T13:41:27Z</time>
      </trkpt>
      <trkpt lat="50.61707" lon="2.93657">
        <ele>67.6</ele>
        <time>2018-05-11T13:41:31Z</time>
      </trkpt>
      <trkpt lat="50.61691" lon="2.93671">
        <ele>67</ele>
        <time>2018-05-11T13:41:35Z</time>
      </trkpt>
      <trkpt lat="50.61675" lon="2.93687">
        <ele>66.6</ele>
        <time>2018-05-11T13:41:39Z</time>
      </trkpt>
      <trkpt lat="50.61658" lon="2.93703">
        <ele>66.2</ele>
        <time>2018-05-11T13:41:43Z</time>
      </trkpt>
      <trkpt lat="50.61641" lon="2.9372">
        <ele>66</ele>
        <time>2018-05-11T13:41:47Z</time>
      </trkpt>
      <trkpt lat="50.61623" lon="2.93736">
        <ele>65.8</ele>
        <time>2018-05-11T13:41:51Z</time>
      </trkpt>
      <trkpt lat="50.61605" lon="2.93753">
        <ele>65</ele>
        <time>2018-05-11T13:41:55Z</time>
      </trkpt>
      <trkpt lat="50.61586" lon="2.93771">
        <ele>65.2</ele>
        <time>2018-05-11T13:41:59Z</time>
      </trkpt>
      <trkpt lat="50.61567" lon="2.93789">
        <ele>64.6</ele>
        <time>2018-05-11T13:42:03Z</time>
      </trkpt>
      <trkpt lat="50.61547" lon="2.93808">
        <ele>64</ele>
        <time>2018-05-11T13:42:07Z</time>
      </trkpt>
      <trkpt lat="50.61527" lon="2.93826">
        <ele>63.4</ele>
        <time>2018-05-11T13:42:11Z</time>
      </trkpt>
      <trkpt lat="50.61507" lon="2.93845">
        <ele>63.4</ele>
        <time>2018-05-11T13:42:15Z</time>
      </trkpt>
      <trkpt lat="50.61488" lon="2.93862">
        <ele>63</ele>
        <time>2018-05-11T13:42:19Z</time>
      </trkpt>
      <trkpt lat="50.61471" lon="2.93879">
        <ele>61.6</ele>
        <time>2018-05-11T13:42:23Z</time>
      </trkpt>
      <trkpt lat="50.61456" lon="2.93892">
        <ele>61</ele>
        <time>2018-05-11T13:42:27Z</time>
      </trkpt>
      <trkpt lat="50.61441" lon="2.93876">
        <ele>60.2</ele>
        <time>2018-05-11T13:42:31Z</time>
      </trkpt>
      <trkpt lat="50.61428" lon="2.93849">
        <ele>59.8</ele>
        <time>2018-05-11T13:42:35Z</time>
      </trkpt>
      <trkpt lat="50.61417" lon="2.93823">
        <ele>59.4</ele>
        <time>2018-05-11T13:42:39Z</time>
      </trkpt>
      <trkpt lat="50.61406" lon="2.93801">
        <ele>59.2</ele>
        <time>2018-05-11T13:42:43Z</time>
      </trkpt>
      <trkpt lat="50.61395" lon="2.9378">
        <ele>59.2</ele>
        <time>2018-05-11T13:42:47Z</time>
      </trkpt>
      <trkpt lat="50.61384" lon="2.93758">
        <ele>59.8</ele>
        <time>2018-05-11T13:42:51Z</time>
      </trkpt>
      <trkpt lat="50.61375" lon="2.93733">
        <ele>59.2</ele>
        <time>2018-05-11T13:42:55Z</time>
      </trkpt>
      <trkpt lat="50.61367" lon="2.93708">
        <ele>59.6</ele>
        <time>2018-05-11T13:42:59Z</time>
      </trkpt>
      <trkpt lat="50.61356" lon="2.93686">
        <ele>59.4</ele>
        <time>2018-05-11T13:43:03Z</time>
      </trkpt>
      <trkpt lat="50.61345" lon="2.93665">
        <ele>59.4</ele>
        <time>2018-05-11T13:43:07Z</time>
      </trkpt>
      <trkpt lat="50.61334" lon="2.93644">
        <ele>59.8</ele>
        <time>2018-05-11T13:43:11Z</time>
      </trkpt>
      <trkpt lat="50.61321" lon="2.93621">
        <ele>59</ele>
        <time>2018-05-11T13:43:15Z</time>
      </trkpt>
      <trkpt lat="50.61308" lon="2.936">
        <ele>58.8</ele>
        <time>2018-05-11T13:43:19Z</time>
      </trkpt>
      <trkpt lat="50.61294" lon="2.9358">
        <ele>58.4</ele>
        <time>2018-05-11T13:43:23Z</time>
      </trkpt>
      <trkpt lat="50.6128" lon="2.93562">
        <ele>58</ele>
        <time>2018-05-11T13:43:27Z</time>
      </trkpt>
      <trkpt lat="50.61266" lon="2.93544">
        <ele>57.8</ele>
        <time>2018-05-11T13:43:31Z</time>
      </trkpt>
      <trkpt lat="50.61253" lon="2.93525">
        <ele>57.2</ele>
        <time>2018-05-11T13:43:35Z</time>
      </trkpt>
      <trkpt lat="50.61243" lon="2.93505">
        <ele>56.8</ele>
        <time>2018-05-11T13:43:39Z</time>
      </trkpt>
      <trkpt lat="50.61233" lon="2.93495">
        <ele>56.4</ele>
        <time>2018-05-11T13:43:43Z</time>
      </trkpt>
      <trkpt lat="50.61228" lon="2.93494">
        <ele>56.6</ele>
        <time>2018-05-11T13:43:47Z</time>
      </trkpt>
      <trkpt lat="50.6122" lon="2.93498">
        <ele>56.8</ele>
        <time>2018-05-11T13:43:51Z</time>
      </trkpt>
      <trkpt lat="50.61206" lon="2.93513">
        <ele>56.8</ele>
        <time>2018-05-11T13:43:55Z</time>
      </trkpt>
      <trkpt lat="50.61194" lon="2.9353">
        <ele>56.2</ele>
        <time>2018-05-11T13:43:59Z</time>
      </trkpt>
      <trkpt lat="50.61181" lon="2.93548">
        <ele>56.4</ele>
        <time>2018-05-11T13:44:03Z</time>
      </trkpt>
      <trkpt lat="50.61169" lon="2.93567">
        <ele>56.4</ele>
        <time>2018-05-11T13:44:07Z</time>
      </trkpt>
      <trkpt lat="50.61157" lon="2.93586">
        <ele>55.8</ele>
        <time>2018-05-11T13:44:11Z</time>
      </trkpt>
      <trkpt lat="50.61147" lon="2.93608">
        <ele>55.8</ele>
        <time>2018-05-11T13:44:15Z</time>
      </trkpt>
      <trkpt lat="50.61133" lon="2.93629">
        <ele>55.8</ele>
        <time>2018-05-11T13:44:19Z</time>
      </trkpt>
      <trkpt lat="50.6112" lon="2.93652">
        <ele>55.4</ele>
        <time>2018-05-11T13:44:23Z</time>
      </trkpt>
      <trkpt lat="50.61105" lon="2.93672">
        <ele>55</ele>
        <time>2018-05-11T13:44:27Z</time>
      </trkpt>
      <trkpt lat="50.6109" lon="2.93692">
        <ele>55</ele>
        <time>2018-05-11T13:44:31Z</time>
      </trkpt>
      <trkpt lat="50.61074" lon="2.93711">
        <ele>54.8</ele>
        <time>2018-05-11T13:44:35Z</time>
      </trkpt>
      <trkpt lat="50.6106" lon="2.9373">
        <ele>54.6</ele>
        <time>2018-05-11T13:44:39Z</time>
      </trkpt>
      <trkpt lat="50.61046" lon="2.93749">
        <ele>54.8</ele>
        <time>2018-05-11T13:44:43Z</time>
      </trkpt>
      <trkpt lat="50.61033" lon="2.93769">
        <ele>54.6</ele>
        <time>2018-05-11T13:44:47Z</time>
      </trkpt>
      <trkpt lat="50.6102" lon="2.93789">
        <ele>54.8</ele>
        <time>2018-05-11T13:44:51Z</time>
      </trkpt>
      <trkpt lat="50.61006" lon="2.93809">
        <ele>55.2</ele>
        <time>2018-05-11T13:44:55Z</time>
      </trkpt>
      <trkpt lat="50.60993" lon="2.93828">
        <ele>55</ele>
        <time>2018-05-11T13:44:59Z</time>
      </trkpt>
      <trkpt lat="50.6098" lon="2.93847">
        <ele>55</ele>
        <time>2018-05-11T13:45:03Z</time>
      </trkpt>
      <trkpt lat="50.60966" lon="2.93865">
        <ele>54.8</ele>
        <time>2018-05-11T13:45:07Z</time>
      </trkpt>
      <trkpt lat="50.60952" lon="2.93883">
        <ele>55</ele>
        <time>2018-05-11T13:45:11Z</time>
      </trkpt>
      <trkpt lat="50.60938" lon="2.93902">
        <ele>55.6</ele>
        <time>2018-05-11T13:45:15Z</time>
      </trkpt>
      <trkpt lat="50.60923" lon="2.9392">
        <ele>55</ele>
        <time>2018-05-11T13:45:19Z</time>
      </trkpt>
      <trkpt lat="50.60909" lon="2.93939">
        <ele>54.6</ele>
        <time>2018-05-11T13:45:23Z</time>
      </trkpt>
      <trkpt lat="50.60894" lon="2.93958">
        <ele>54.2</ele>
        <time>2018-05-11T13:45:27Z</time>
      </trkpt>
      <trkpt lat="50.6088" lon="2.93976">
        <ele>54</ele>
        <time>2018-05-11T13:45:31Z</time>
      </trkpt>
      <trkpt lat="50.60867" lon="2.93996">
        <ele>54.4</ele>
        <time>2018-05-11T13:45:35Z</time>
      </trkpt>
      <trkpt lat="50.60853" lon="2.94017">
        <ele>53.8</ele>
        <time>2018-05-11T13:45:39Z</time>
      </trkpt>
      <trkpt lat="50.60839" lon="2.94039">
        <ele>53.6</ele>
        <time>2018-05-11T13:45:43Z</time>
      </trkpt>
      <trkpt lat="50.60825" lon="2.9406">
        <ele>53.4</ele>
        <time>2018-05-11T13:45:47Z</time>
      </trkpt>
      <trkpt lat="50.60812" lon="2.94083">
        <ele>53.4</ele>
        <time>2018-05-11T13:45:51Z</time>
      </trkpt>
      <trkpt lat="50.60798" lon="2.94104">
        <ele>53.2</ele>
        <time>2018-05-11T13:45:55Z</time>
      </trkpt>
      <trkpt lat="50.60785" lon="2.94126">
        <ele>52.4</ele>
        <time>2018-05-11T13:45:59Z</time>
      </trkpt>
      <trkpt lat="50.60771" lon="2.94148">
        <ele>52.8</ele>
        <time>2018-05-11T13:46:03Z</time>
      </trkpt>
      <trkpt lat="50.60758" lon="2.9417">
        <ele>52.8</ele>
        <time>2018-05-11T13:46:07Z</time>
      </trkpt>
      <trkpt lat="50.60744" lon="2.94191">
        <ele>52</ele>
        <time>2018-05-11T13:46:11Z</time>
      </trkpt>
      <trkpt lat="50.6073" lon="2.94213">
        <ele>51.6</ele>
        <time>2018-05-11T13:46:15Z</time>
      </trkpt>
      <trkpt lat="50.60717" lon="2.94234">
        <ele>52</ele>
        <time>2018-05-11T13:46:19Z</time>
      </trkpt>
      <trkpt lat="50.60704" lon="2.94256">
        <ele>51.6</ele>
        <time>2018-05-11T13:46:23Z</time>
      </trkpt>
      <trkpt lat="50.60691" lon="2.94278">
        <ele>51.4</ele>
        <time>2018-05-11T13:46:27Z</time>
      </trkpt>
      <trkpt lat="50.60678" lon="2.943">
        <ele>51.2</ele>
        <time>2018-05-11T13:46:31Z</time>
      </trkpt>
      <trkpt lat="50.60665" lon="2.94322">
        <ele>51.4</ele>
        <time>2018-05-11T13:46:35Z</time>
      </trkpt>
      <trkpt lat="50.60651" lon="2.94344">
        <ele>51.4</ele>
        <time>2018-05-11T13:46:39Z</time>
      </trkpt>
      <trkpt lat="50.60638" lon="2.94364">
        <ele>51.4</ele>
        <time>2018-05-11T13:46:43Z</time>
      </trkpt>
      <trkpt lat="50.60625" lon="2.94384">
        <ele>51.2</ele>
        <time>2018-05-11T13:46:47Z</time>
      </trkpt>
      <trkpt lat="50.60613" lon="2.94404">
        <ele>51</ele>
        <time>2018-05-11T13:46:51Z</time>
      </trkpt>
      <trkpt lat="50.606" lon="2.94424">
        <ele>51.2</ele>
        <time>2018-05-11T13:46:55Z</time>
      </trkpt>
      <trkpt lat="50.60588" lon="2.94445">
        <ele>51.2</ele>
        <time>2018-05-11T13:46:59Z</time>
      </trkpt>
      <trkpt lat="50.60575" lon="2.94463">
        <ele>49.6</ele>
        <time>2018-05-11T13:47:03Z</time>
      </trkpt>
      <trkpt lat="50.60564" lon="2.9448">
        <ele>50.8</ele>
        <time>2018-05-11T13:47:07Z</time>
      </trkpt>
      <trkpt lat="50.60552" lon="2.94498">
        <ele>51</ele>
        <time>2018-05-11T13:47:11Z</time>
      </trkpt>
      <trkpt lat="50.6054" lon="2.94516">
        <ele>50.4</ele>
        <time>2018-05-11T13:47:15Z</time>
      </trkpt>
      <trkpt lat="50.60529" lon="2.94534">
        <ele>51</ele>
        <time>2018-05-11T13:47:19Z</time>
      </trkpt>
      <trkpt lat="50.60517" lon="2.94553">
        <ele>50.6</ele>
        <time>2018-05-11T13:47:23Z</time>
      </trkpt>
      <trkpt lat="50.60504" lon="2.94573">
        <ele>50</ele>
        <time>2018-05-11T13:47:27Z</time>
      </trkpt>
      <trkpt lat="50.60492" lon="2.94593">
        <ele>50.2</ele>
        <time>2018-05-11T13:47:31Z</time>
      </trkpt>
      <trkpt lat="50.6048" lon="2.94612">
        <ele>50</ele>
        <time>2018-05-11T13:47:35Z</time>
      </trkpt>
      <trkpt lat="50.60472" lon="2.94632">
        <ele>49.4</ele>
        <time>2018-05-11T13:47:39Z</time>
      </trkpt>
      <trkpt lat="50.60482" lon="2.94651">
        <ele>50.4</ele>
        <time>2018-05-11T13:47:43Z</time>
      </trkpt>
      <trkpt lat="50.60495" lon="2.94667">
        <ele>50.2</ele>
        <time>2018-05-11T13:47:47Z</time>
      </trkpt>
      <trkpt lat="50.60508" lon="2.94684">
        <ele>50.6</ele>
        <time>2018-05-11T13:47:51Z</time>
      </trkpt>
      <trkpt lat="50.60521" lon="2.94702">
        <ele>50.8</ele>
        <time>2018-05-11T13:47:55Z</time>
      </trkpt>
      <trkpt lat="50.60535" lon="2.9472">
        <ele>51.2</ele>
        <time>2018-05-11T13:47:59Z</time>
      </trkpt>
      <trkpt lat="50.60549" lon="2.94738">
        <ele>51.4</ele>
        <time>2018-05-11T13:48:03Z</time>
      </trkpt>
      <trkpt lat="50.60564" lon="2.94756">
        <ele>51.6</ele>
        <time>2018-05-11T13:48:07Z</time>
      </trkpt>
      <trkpt lat="50.6058" lon="2.94773">
        <ele>52</ele>
        <time>2018-05-11T13:48:11Z</time>
      </trkpt>
      <trkpt lat="50.60595" lon="2.94791">
        <ele>52</ele>
        <time>2018-05-11T13:48:15Z</time>
      </trkpt>
      <trkpt lat="50.6061" lon="2.94808">
        <ele>52.6</ele>
        <time>2018-05-11T13:48:19Z</time>
      </trkpt>
      <trkpt lat="50.60626" lon="2.94825">
        <ele>52.6</ele>
        <time>2018-05-11T13:48:23Z</time>
      </trkpt>
      <trkpt lat="50.60642" lon="2.94842">
        <ele>52.8</ele>
        <time>2018-05-11T13:48:27Z</time>
      </trkpt>
      <trkpt lat="50.60658" lon="2.9486">
        <ele>52.8</ele>
        <time>2018-05-11T13:48:31Z</time>
      </trkpt>
      <trkpt lat="50.60674" lon="2.94878">
        <ele>53.4</ele>
        <time>2018-05-11T13:48:35Z</time>
      </trkpt>
      <trkpt lat="50.6069" lon="2.94895">
        <ele>52.8</ele>
        <time>2018-05-11T13:48:39Z</time>
      </trkpt>
      <trkpt lat="50.60707" lon="2.94912">
        <ele>52.8</ele>
        <time>2018-05-11T13:48:43Z</time>
      </trkpt>
      <trkpt lat="50.60724" lon="2.9493">
        <ele>53.4</ele>
        <time>2018-05-11T13:48:47Z</time>
      </trkpt>
      <trkpt lat="50.60742" lon="2.94948">
        <ele>53.4</ele>
        <time>2018-05-11T13:48:51Z</time>
      </trkpt>
      <trkpt lat="50.6076" lon="2.94965">
        <ele>53.2</ele>
        <time>2018-05-11T13:48:55Z</time>
      </trkpt>
      <trkpt lat="50.60778" lon="2.94983">
        <ele>53.2</ele>
        <time>2018-05-11T13:48:59Z</time>
      </trkpt>
      <trkpt lat="50.60797" lon="2.95001">
        <ele>53.4</ele>
        <time>2018-05-11T13:49:03Z</time>
      </trkpt>
      <trkpt lat="50.60817" lon="2.95018">
        <ele>53.2</ele>
        <time>2018-05-11T13:49:07Z</time>
      </trkpt>
      <trkpt lat="50.60836" lon="2.95035">
        <ele>53</ele>
        <time>2018-05-11T13:49:11Z</time>
      </trkpt>
      <trkpt lat="50.60856" lon="2.95051">
        <ele>53.2</ele>
        <time>2018-05-11T13:49:15Z</time>
      </trkpt>
      <trkpt lat="50.60875" lon="2.95067">
        <ele>53.2</ele>
        <time>2018-05-11T13:49:19Z</time>
      </trkpt>
      <trkpt lat="50.60896" lon="2.95083">
        <ele>53.4</ele>
        <time>2018-05-11T13:49:23Z</time>
      </trkpt>
      <trkpt lat="50.60916" lon="2.95096">
        <ele>53.4</ele>
        <time>2018-05-11T13:49:27Z</time>
      </trkpt>
      <trkpt lat="50.60937" lon="2.95108">
        <ele>53.4</ele>
        <time>2018-05-11T13:49:31Z</time>
      </trkpt>
      <trkpt lat="50.60957" lon="2.95116">
        <ele>54</ele>
        <time>2018-05-11T13:49:35Z</time>
      </trkpt>
      <trkpt lat="50.60975" lon="2.95124">
        <ele>54.4</ele>
        <time>2018-05-11T13:49:39Z</time>
      </trkpt>
      <trkpt lat="50.60995" lon="2.95131">
        <ele>53.8</ele>
        <time>2018-05-11T13:49:43Z</time>
      </trkpt>
      <trkpt lat="50.61014" lon="2.95139">
        <ele>53.6</ele>
        <time>2018-05-11T13:49:47Z</time>
      </trkpt>
      <trkpt lat="50.61033" lon="2.95147">
        <ele>53.8</ele>
        <time>2018-05-11T13:49:51Z</time>
      </trkpt>
      <trkpt lat="50.61051" lon="2.95155">
        <ele>53.8</ele>
        <time>2018-05-11T13:49:55Z</time>
      </trkpt>
      <trkpt lat="50.61068" lon="2.95153">
        <ele>53.6</ele>
        <time>2018-05-11T13:49:59Z</time>
      </trkpt>
      <trkpt lat="50.61082" lon="2.95148">
        <ele>55.4</ele>
        <time>2018-05-11T13:50:03Z</time>
      </trkpt>
      <trkpt lat="50.61088" lon="2.95148">
        <ele>56</ele>
        <time>2018-05-11T13:50:07Z</time>
      </trkpt>
      <trkpt lat="50.61083" lon="2.95154">
        <ele>56.2</ele>
        <time>2018-05-11T13:50:11Z</time>
      </trkpt>
      <trkpt lat="50.61073" lon="2.95163">
        <ele>56.4</ele>
        <time>2018-05-11T13:50:15Z</time>
      </trkpt>
      <trkpt lat="50.61079" lon="2.95165">
        <ele>56.8</ele>
        <time>2018-05-11T13:50:19Z</time>
      </trkpt>
      <trkpt lat="50.61087" lon="2.95164">
        <ele>56.8</ele>
        <time>2018-05-11T13:50:23Z</time>
      </trkpt>
      <trkpt lat="50.61094" lon="2.95165">
        <ele>57.6</ele>
        <time>2018-05-11T13:50:27Z</time>
      </trkpt>
      <trkpt lat="50.61098" lon="2.95174">
        <ele>57.2</ele>
        <time>2018-05-11T13:50:31Z</time>
      </trkpt>
      <trkpt lat="50.61103" lon="2.95184">
        <ele>57.8</ele>
        <time>2018-05-11T13:50:35Z</time>
      </trkpt>
      <trkpt lat="50.61106" lon="2.952">
        <ele>58.8</ele>
        <time>2018-05-11T13:50:39Z</time>
      </trkpt>
      <trkpt lat="50.61103" lon="2.95217">
        <ele>59.2</ele>
        <time>2018-05-11T13:50:43Z</time>
      </trkpt>
      <trkpt lat="50.61097" lon="2.95234">
        <ele>59.2</ele>
        <time>2018-05-11T13:50:47Z</time>
      </trkpt>
      <trkpt lat="50.61091" lon="2.95253">
        <ele>59.2</ele>
        <time>2018-05-11T13:50:51Z</time>
      </trkpt>
      <trkpt lat="50.61083" lon="2.95272">
        <ele>59.2</ele>
        <time>2018-05-11T13:50:55Z</time>
      </trkpt>
      <trkpt lat="50.61077" lon="2.9529">
        <ele>59.2</ele>
        <time>2018-05-11T13:50:59Z</time>
      </trkpt>
      <trkpt lat="50.61065" lon="2.953">
        <ele>59.2</ele>
        <time>2018-05-11T13:51:03Z</time>
      </trkpt>
      <trkpt lat="50.61052" lon="2.9531">
        <ele>59.2</ele>
        <time>2018-05-11T13:51:07Z</time>
      </trkpt>
      <trkpt lat="50.61046" lon="2.95329">
        <ele>59</ele>
        <time>2018-05-11T13:51:11Z</time>
      </trkpt>
      <trkpt lat="50.61048" lon="2.95349">
        <ele>59</ele>
        <time>2018-05-11T13:51:15Z</time>
      </trkpt>
      <trkpt lat="50.61043" lon="2.95368">
        <ele>59.2</ele>
        <time>2018-05-11T13:51:19Z</time>
      </trkpt>
      <trkpt lat="50.61038" lon="2.95383">
        <ele>59</ele>
        <time>2018-05-11T13:51:23Z</time>
      </trkpt>
      <trkpt lat="50.61032" lon="2.95393">
        <ele>58.6</ele>
        <time>2018-05-11T13:51:27Z</time>
      </trkpt>
      <trkpt lat="50.61031" lon="2.95394">
        <ele>58.6</ele>
        <time>2018-05-11T13:51:35Z</time>
      </trkpt>
      <trkpt lat="50.61029" lon="2.95399">
        <ele>59</ele>
        <time>2018-05-11T13:52:11Z</time>
      </trkpt>
      <trkpt lat="50.61024" lon="2.95407">
        <ele>58.4</ele>
        <time>2018-05-11T13:52:15Z</time>
      </trkpt>
      <trkpt lat="50.61015" lon="2.95418">
        <ele>58.6</ele>
        <time>2018-05-11T13:52:19Z</time>
      </trkpt>
      <trkpt lat="50.61003" lon="2.95432">
        <ele>58.4</ele>
        <time>2018-05-11T13:52:23Z</time>
      </trkpt>
      <trkpt lat="50.6099" lon="2.95445">
        <ele>58.6</ele>
        <time>2018-05-11T13:52:27Z</time>
      </trkpt>
      <trkpt lat="50.60976" lon="2.95457">
        <ele>58</ele>
        <time>2018-05-11T13:52:31Z</time>
      </trkpt>
      <trkpt lat="50.6096" lon="2.95468">
        <ele>57.6</ele>
        <time>2018-05-11T13:52:35Z</time>
      </trkpt>
      <trkpt lat="50.60942" lon="2.95479">
        <ele>57</ele>
        <time>2018-05-11T13:52:39Z</time>
      </trkpt>
      <trkpt lat="50.60922" lon="2.9549">
        <ele>57</ele>
        <time>2018-05-11T13:52:43Z</time>
      </trkpt>
      <trkpt lat="50.60902" lon="2.955">
        <ele>55.4</ele>
        <time>2018-05-11T13:52:47Z</time>
      </trkpt>
      <trkpt lat="50.60882" lon="2.9551">
        <ele>55.4</ele>
        <time>2018-05-11T13:52:51Z</time>
      </trkpt>
      <trkpt lat="50.60861" lon="2.95521">
        <ele>54.6</ele>
        <time>2018-05-11T13:52:55Z</time>
      </trkpt>
      <trkpt lat="50.60838" lon="2.9553">
        <ele>53.4</ele>
        <time>2018-05-11T13:52:59Z</time>
      </trkpt>
      <trkpt lat="50.60823" lon="2.95535">
        <ele>52.8</ele>
        <time>2018-05-11T13:53:03Z</time>
      </trkpt>
      <trkpt lat="50.60822" lon="2.95546">
        <ele>52.8</ele>
        <time>2018-05-11T13:53:07Z</time>
      </trkpt>
      <trkpt lat="50.60827" lon="2.95559">
        <ele>53</ele>
        <time>2018-05-11T13:53:11Z</time>
      </trkpt>
      <trkpt lat="50.60822" lon="2.95576">
        <ele>52.6</ele>
        <time>2018-05-11T13:53:15Z</time>
      </trkpt>
      <trkpt lat="50.60816" lon="2.95598">
        <ele>52.6</ele>
        <time>2018-05-11T13:53:19Z</time>
      </trkpt>
      <trkpt lat="50.60812" lon="2.9562">
        <ele>52.4</ele>
        <time>2018-05-11T13:53:23Z</time>
      </trkpt>
      <trkpt lat="50.60811" lon="2.95645">
        <ele>52.6</ele>
        <time>2018-05-11T13:53:27Z</time>
      </trkpt>
      <trkpt lat="50.60812" lon="2.95671">
        <ele>52</ele>
        <time>2018-05-11T13:53:31Z</time>
      </trkpt>
      <trkpt lat="50.60814" lon="2.95697">
        <ele>51.8</ele>
        <time>2018-05-11T13:53:35Z</time>
      </trkpt>
      <trkpt lat="50.60814" lon="2.95725">
        <ele>51.4</ele>
        <time>2018-05-11T13:53:39Z</time>
      </trkpt>
      <trkpt lat="50.60816" lon="2.95753">
        <ele>50.8</ele>
        <time>2018-05-11T13:53:43Z</time>
      </trkpt>
      <trkpt lat="50.60816" lon="2.95781">
        <ele>51</ele>
        <time>2018-05-11T13:53:47Z</time>
      </trkpt>
      <trkpt lat="50.60817" lon="2.95808">
        <ele>50.6</ele>
        <time>2018-05-11T13:53:51Z</time>
      </trkpt>
      <trkpt lat="50.60819" lon="2.95835">
        <ele>49.8</ele>
        <time>2018-05-11T13:53:55Z</time>
      </trkpt>
      <trkpt lat="50.6082" lon="2.95862">
        <ele>49.6</ele>
        <time>2018-05-11T13:53:59Z</time>
      </trkpt>
      <trkpt lat="50.60825" lon="2.95866">
        <ele>49.6</ele>
        <time>2018-05-11T13:54:03Z</time>
      </trkpt>
      <trkpt lat="50.60832" lon="2.95866">
        <ele>49.6</ele>
        <time>2018-05-11T13:54:07Z</time>
      </trkpt>
      <trkpt lat="50.60836" lon="2.95868">
        <ele>50</ele>
        <time>2018-05-11T13:54:11Z</time>
      </trkpt>
      <trkpt lat="50.60837" lon="2.95865">
        <ele>50.4</ele>
        <time>2018-05-11T13:54:15Z</time>
      </trkpt>
      <trkpt lat="50.6084" lon="2.95863">
        <ele>50.4</ele>
        <time>2018-05-11T13:54:19Z</time>
      </trkpt>
      <trkpt lat="50.60844" lon="2.95861">
        <ele>50.4</ele>
        <time>2018-05-11T13:54:23Z</time>
      </trkpt>
      <trkpt lat="50.60846" lon="2.95859">
        <ele>50.8</ele>
        <time>2018-05-11T13:54:27Z</time>
      </trkpt>
      <trkpt lat="50.60851" lon="2.95856">
        <ele>51</ele>
        <time>2018-05-11T13:54:31Z</time>
      </trkpt>
      <trkpt lat="50.60858" lon="2.95853">
        <ele>51.6</ele>
        <time>2018-05-11T13:54:35Z</time>
      </trkpt>
      <trkpt lat="50.60868" lon="2.95848">
        <ele>51.8</ele>
        <time>2018-05-11T13:54:39Z</time>
      </trkpt>
      <trkpt lat="50.60877" lon="2.95842">
        <ele>52.2</ele>
        <time>2018-05-11T13:54:43Z</time>
      </trkpt>
      <trkpt lat="50.60884" lon="2.95827">
        <ele>52.8</ele>
        <time>2018-05-11T13:54:47Z</time>
      </trkpt>
      <trkpt lat="50.6089" lon="2.95813">
        <ele>53.2</ele>
        <time>2018-05-11T13:54:51Z</time>
      </trkpt>
      <trkpt lat="50.60893" lon="2.95801">
        <ele>54</ele>
        <time>2018-05-11T13:54:55Z</time>
      </trkpt>
      <trkpt lat="50.60897" lon="2.9579">
        <ele>54.4</ele>
        <time>2018-05-11T13:54:59Z</time>
      </trkpt>
      <trkpt lat="50.60899" lon="2.95779">
        <ele>55.4</ele>
        <time>2018-05-11T13:55:03Z</time>
      </trkpt>
      <trkpt lat="50.60904" lon="2.95766">
        <ele>56</ele>
        <time>2018-05-11T13:55:07Z</time>
      </trkpt>
      <trkpt lat="50.60908" lon="2.95748">
        <ele>56.8</ele>
        <time>2018-05-11T13:55:11Z</time>
      </trkpt>
      <trkpt lat="50.60912" lon="2.95732">
        <ele>56.8</ele>
        <time>2018-05-11T13:55:15Z</time>
      </trkpt>
      <trkpt lat="50.60914" lon="2.95714">
        <ele>57.8</ele>
        <time>2018-05-11T13:55:19Z</time>
      </trkpt>
      <trkpt lat="50.60912" lon="2.95697">
        <ele>57.2</ele>
        <time>2018-05-11T13:55:23Z</time>
      </trkpt>
      <trkpt lat="50.60909" lon="2.95681">
        <ele>57.8</ele>
        <time>2018-05-11T13:55:27Z</time>
      </trkpt>
      <trkpt lat="50.60904" lon="2.95663">
        <ele>57.6</ele>
        <time>2018-05-11T13:55:31Z</time>
      </trkpt>
      <trkpt lat="50.60902" lon="2.95643">
        <ele>57.4</ele>
        <time>2018-05-11T13:55:35Z</time>
      </trkpt>
      <trkpt lat="50.60908" lon="2.95638">
        <ele>56.6</ele>
        <time>2018-05-11T13:55:39Z</time>
      </trkpt>
      <trkpt lat="50.60916" lon="2.95643">
        <ele>58</ele>
        <time>2018-05-11T13:55:43Z</time>
      </trkpt>
      <trkpt lat="50.60925" lon="2.95648">
        <ele>58.4</ele>
        <time>2018-05-11T13:55:47Z</time>
      </trkpt>
      <trkpt lat="50.60936" lon="2.95654">
        <ele>58.2</ele>
        <time>2018-05-11T13:55:51Z</time>
      </trkpt>
      <trkpt lat="50.60946" lon="2.95654">
        <ele>58.6</ele>
        <time>2018-05-11T13:55:55Z</time>
      </trkpt>
      <trkpt lat="50.60957" lon="2.9565">
        <ele>58.6</ele>
        <time>2018-05-11T13:55:59Z</time>
      </trkpt>
      <trkpt lat="50.60966" lon="2.95648">
        <ele>58.6</ele>
        <time>2018-05-11T13:56:03Z</time>
      </trkpt>
      <trkpt lat="50.60976" lon="2.95644">
        <ele>58.8</ele>
        <time>2018-05-11T13:56:07Z</time>
      </trkpt>
      <trkpt lat="50.60987" lon="2.95639">
        <ele>58</ele>
        <time>2018-05-11T13:56:11Z</time>
      </trkpt>
      <trkpt lat="50.60996" lon="2.95631">
        <ele>58.4</ele>
        <time>2018-05-11T13:56:15Z</time>
      </trkpt>
      <trkpt lat="50.61005" lon="2.95624">
        <ele>57.4</ele>
        <time>2018-05-11T13:56:19Z</time>
      </trkpt>
      <trkpt lat="50.61017" lon="2.95617">
        <ele>57</ele>
        <time>2018-05-11T13:56:23Z</time>
      </trkpt>
      <trkpt lat="50.61027" lon="2.95604">
        <ele>57</ele>
        <time>2018-05-11T13:56:27Z</time>
      </trkpt>
      <trkpt lat="50.61029" lon="2.95589">
        <ele>56.8</ele>
        <time>2018-05-11T13:56:31Z</time>
      </trkpt>
      <trkpt lat="50.61037" lon="2.95567">
        <ele>56.6</ele>
        <time>2018-05-11T13:56:35Z</time>
      </trkpt>
      <trkpt lat="50.61047" lon="2.95543">
        <ele>56</ele>
        <time>2018-05-11T13:56:39Z</time>
      </trkpt>
      <trkpt lat="50.61053" lon="2.95513">
        <ele>55</ele>
        <time>2018-05-11T13:56:43Z</time>
      </trkpt>
      <trkpt lat="50.61063" lon="2.95486">
        <ele>53.4</ele>
        <time>2018-05-11T13:56:47Z</time>
      </trkpt>
      <trkpt lat="50.6107" lon="2.95471">
        <ele>53</ele>
        <time>2018-05-11T13:56:51Z</time>
      </trkpt>
      <trkpt lat="50.61077" lon="2.95461">
        <ele>54.2</ele>
        <time>2018-05-11T13:57:27Z</time>
      </trkpt>
      <trkpt lat="50.6108" lon="2.95456">
        <ele>53.4</ele>
        <time>2018-05-11T13:58:07Z</time>
      </trkpt>
      <trkpt lat="50.61084" lon="2.9545">
        <ele>53.2</ele>
        <time>2018-05-11T13:58:11Z</time>
      </trkpt>
      <trkpt lat="50.6109" lon="2.95454">
        <ele>53.4</ele>
        <time>2018-05-11T13:58:15Z</time>
      </trkpt>
      <trkpt lat="50.61098" lon="2.9546">
        <ele>53.6</ele>
        <time>2018-05-11T13:58:19Z</time>
      </trkpt>
      <trkpt lat="50.61108" lon="2.95469">
        <ele>53.8</ele>
        <time>2018-05-11T13:58:23Z</time>
      </trkpt>
      <trkpt lat="50.61119" lon="2.95477">
        <ele>53</ele>
        <time>2018-05-11T13:58:27Z</time>
      </trkpt>
      <trkpt lat="50.61132" lon="2.95486">
        <ele>53.2</ele>
        <time>2018-05-11T13:58:31Z</time>
      </trkpt>
      <trkpt lat="50.61144" lon="2.95498">
        <ele>53</ele>
        <time>2018-05-11T13:58:35Z</time>
      </trkpt>
      <trkpt lat="50.61159" lon="2.9551">
        <ele>53</ele>
        <time>2018-05-11T13:58:39Z</time>
      </trkpt>
      <trkpt lat="50.61174" lon="2.95523">
        <ele>53.4</ele>
        <time>2018-05-11T13:58:43Z</time>
      </trkpt>
      <trkpt lat="50.6119" lon="2.95537">
        <ele>52.6</ele>
        <time>2018-05-11T13:58:47Z</time>
      </trkpt>
      <trkpt lat="50.61206" lon="2.95551">
        <ele>52.6</ele>
        <time>2018-05-11T13:58:51Z</time>
      </trkpt>
      <trkpt lat="50.61221" lon="2.95565">
        <ele>52.4</ele>
        <time>2018-05-11T13:58:55Z</time>
      </trkpt>
      <trkpt lat="50.61238" lon="2.95579">
        <ele>52.6</ele>
        <time>2018-05-11T13:58:59Z</time>
      </trkpt>
      <trkpt lat="50.61255" lon="2.95594">
        <ele>52.8</ele>
        <time>2018-05-11T13:59:03Z</time>
      </trkpt>
      <trkpt lat="50.61271" lon="2.95608">
        <ele>53.6</ele>
        <time>2018-05-11T13:59:07Z</time>
      </trkpt>
      <trkpt lat="50.61288" lon="2.95622">
        <ele>53.4</ele>
        <time>2018-05-11T13:59:11Z</time>
      </trkpt>
      <trkpt lat="50.61304" lon="2.95636">
        <ele>52.8</ele>
        <time>2018-05-11T13:59:15Z</time>
      </trkpt>
      <trkpt lat="50.61319" lon="2.95648">
        <ele>53.4</ele>
        <time>2018-05-11T13:59:19Z</time>
      </trkpt>
      <trkpt lat="50.6133" lon="2.95657">
        <ele>53.2</ele>
        <time>2018-05-11T13:59:23Z</time>
      </trkpt>
      <trkpt lat="50.61342" lon="2.95666">
        <ele>53.2</ele>
        <time>2018-05-11T13:59:27Z</time>
      </trkpt>
      <trkpt lat="50.61355" lon="2.9568">
        <ele>53.6</ele>
        <time>2018-05-11T13:59:31Z</time>
      </trkpt>
      <trkpt lat="50.61365" lon="2.957">
        <ele>53.2</ele>
        <time>2018-05-11T13:59:35Z</time>
      </trkpt>
      <trkpt lat="50.61376" lon="2.95723">
        <ele>53.4</ele>
        <time>2018-05-11T13:59:39Z</time>
      </trkpt>
      <trkpt lat="50.61388" lon="2.95747">
        <ele>53.8</ele>
        <time>2018-05-11T13:59:43Z</time>
      </trkpt>
      <trkpt lat="50.61399" lon="2.95769">
        <ele>53.6</ele>
        <time>2018-05-11T13:59:47Z</time>
      </trkpt>
      <trkpt lat="50.61411" lon="2.9579">
        <ele>54.2</ele>
        <time>2018-05-11T13:59:51Z</time>
      </trkpt>
      <trkpt lat="50.61422" lon="2.95814">
        <ele>54.8</ele>
        <time>2018-05-11T13:59:55Z</time>
      </trkpt>
      <trkpt lat="50.61433" lon="2.95835">
        <ele>54.4</ele>
        <time>2018-05-11T13:59:59Z</time>
      </trkpt>
      <trkpt lat="50.61444" lon="2.95854">
        <ele>54.4</ele>
        <time>2018-05-11T14:00:03Z</time>
      </trkpt>
      <trkpt lat="50.61454" lon="2.95872">
        <ele>55.2</ele>
        <time>2018-05-11T14:00:07Z</time>
      </trkpt>
      <trkpt lat="50.61451" lon="2.95892">
        <ele>54.8</ele>
        <time>2018-05-11T14:00:11Z</time>
      </trkpt>
      <trkpt lat="50.61442" lon="2.95913">
        <ele>53.6</ele>
        <time>2018-05-11T14:00:15Z</time>
      </trkpt>
      <trkpt lat="50.61433" lon="2.95937">
        <ele>53.8</ele>
        <time>2018-05-11T14:00:19Z</time>
      </trkpt>
      <trkpt lat="50.61422" lon="2.95963">
        <ele>53.4</ele>
        <time>2018-05-11T14:00:23Z</time>
      </trkpt>
      <trkpt lat="50.61413" lon="2.95992">
        <ele>52.8</ele>
        <time>2018-05-11T14:00:27Z</time>
      </trkpt>
      <trkpt lat="50.61404" lon="2.96019">
        <ele>53</ele>
        <time>2018-05-11T14:00:31Z</time>
      </trkpt>
      <trkpt lat="50.61393" lon="2.96047">
        <ele>52</ele>
        <time>2018-05-11T14:00:35Z</time>
      </trkpt>
      <trkpt lat="50.61385" lon="2.96075">
        <ele>51.6</ele>
        <time>2018-05-11T14:00:39Z</time>
      </trkpt>
      <trkpt lat="50.61382" lon="2.96107">
        <ele>51.8</ele>
        <time>2018-05-11T14:00:43Z</time>
      </trkpt>
      <trkpt lat="50.61379" lon="2.96139">
        <ele>51.6</ele>
        <time>2018-05-11T14:00:47Z</time>
      </trkpt>
      <trkpt lat="50.61377" lon="2.96172">
        <ele>51.4</ele>
        <time>2018-05-11T14:00:51Z</time>
      </trkpt>
      <trkpt lat="50.61371" lon="2.96205">
        <ele>51.4</ele>
        <time>2018-05-11T14:00:55Z</time>
      </trkpt>
      <trkpt lat="50.61364" lon="2.96237">
        <ele>51.2</ele>
        <time>2018-05-11T14:00:59Z</time>
      </trkpt>
      <trkpt lat="50.61356" lon="2.96267">
        <ele>50.6</ele>
        <time>2018-05-11T14:01:03Z</time>
      </trkpt>
      <trkpt lat="50.61347" lon="2.96295">
        <ele>50.4</ele>
        <time>2018-05-11T14:01:07Z</time>
      </trkpt>
      <trkpt lat="50.61338" lon="2.96323">
        <ele>50.4</ele>
        <time>2018-05-11T14:01:11Z</time>
      </trkpt>
      <trkpt lat="50.61331" lon="2.96354">
        <ele>50.6</ele>
        <time>2018-05-11T14:01:15Z</time>
      </trkpt>
      <trkpt lat="50.61327" lon="2.96384">
        <ele>50.6</ele>
        <time>2018-05-11T14:01:19Z</time>
      </trkpt>
      <trkpt lat="50.61323" lon="2.96414">
        <ele>51</ele>
        <time>2018-05-11T14:01:23Z</time>
      </trkpt>
      <trkpt lat="50.61317" lon="2.96444">
        <ele>50.4</ele>
        <time>2018-05-11T14:01:27Z</time>
      </trkpt>
      <trkpt lat="50.61312" lon="2.96475">
        <ele>49.8</ele>
        <time>2018-05-11T14:01:31Z</time>
      </trkpt>
      <trkpt lat="50.61308" lon="2.96505">
        <ele>50.6</ele>
        <time>2018-05-11T14:01:35Z</time>
      </trkpt>
      <trkpt lat="50.61304" lon="2.96534">
        <ele>50.8</ele>
        <time>2018-05-11T14:01:39Z</time>
      </trkpt>
      <trkpt lat="50.61295" lon="2.9656">
        <ele>50.4</ele>
        <time>2018-05-11T14:01:43Z</time>
      </trkpt>
      <trkpt lat="50.61286" lon="2.96586">
        <ele>50</ele>
        <time>2018-05-11T14:01:47Z</time>
      </trkpt>
      <trkpt lat="50.6128" lon="2.96611">
        <ele>50.2</ele>
        <time>2018-05-11T14:01:51Z</time>
      </trkpt>
      <trkpt lat="50.61272" lon="2.9663">
        <ele>50.4</ele>
        <time>2018-05-11T14:01:55Z</time>
      </trkpt>
      <trkpt lat="50.61267" lon="2.9665">
        <ele>50</ele>
        <time>2018-05-11T14:01:59Z</time>
      </trkpt>
      <trkpt lat="50.61278" lon="2.96668">
        <ele>50</ele>
        <time>2018-05-11T14:02:03Z</time>
      </trkpt>
      <trkpt lat="50.61289" lon="2.96693">
        <ele>50.4</ele>
        <time>2018-05-11T14:02:07Z</time>
      </trkpt>
      <trkpt lat="50.61297" lon="2.96722">
        <ele>50</ele>
        <time>2018-05-11T14:02:11Z</time>
      </trkpt>
      <trkpt lat="50.61306" lon="2.96753">
        <ele>50.2</ele>
        <time>2018-05-11T14:02:15Z</time>
      </trkpt>
      <trkpt lat="50.61315" lon="2.96781">
        <ele>50</ele>
        <time>2018-05-11T14:02:19Z</time>
      </trkpt>
      <trkpt lat="50.61323" lon="2.96809">
        <ele>50</ele>
        <time>2018-05-11T14:02:23Z</time>
      </trkpt>
      <trkpt lat="50.61329" lon="2.96837">
        <ele>51</ele>
        <time>2018-05-11T14:02:27Z</time>
      </trkpt>
      <trkpt lat="50.61334" lon="2.96866">
        <ele>50</ele>
        <time>2018-05-11T14:02:31Z</time>
      </trkpt>
      <trkpt lat="50.6134" lon="2.96896">
        <ele>50</ele>
        <time>2018-05-11T14:02:35Z</time>
      </trkpt>
      <trkpt lat="50.6135" lon="2.96924">
        <ele>50.2</ele>
        <time>2018-05-11T14:02:39Z</time>
      </trkpt>
      <trkpt lat="50.6136" lon="2.96951">
        <ele>50</ele>
        <time>2018-05-11T14:02:43Z</time>
      </trkpt>
      <trkpt lat="50.61371" lon="2.96977">
        <ele>50.4</ele>
        <time>2018-05-11T14:02:47Z</time>
      </trkpt>
      <trkpt lat="50.61382" lon="2.96997">
        <ele>50</ele>
        <time>2018-05-11T14:02:51Z</time>
      </trkpt>
      <trkpt lat="50.61394" lon="2.97021">
        <ele>50</ele>
        <time>2018-05-11T14:02:55Z</time>
      </trkpt>
      <trkpt lat="50.61396" lon="2.97053">
        <ele>50.2</ele>
        <time>2018-05-11T14:02:59Z</time>
      </trkpt>
      <trkpt lat="50.61388" lon="2.97084">
        <ele>50.4</ele>
        <time>2018-05-11T14:03:03Z</time>
      </trkpt>
      <trkpt lat="50.61377" lon="2.97111">
        <ele>50</ele>
        <time>2018-05-11T14:03:07Z</time>
      </trkpt>
      <trkpt lat="50.61367" lon="2.97133">
        <ele>50.6</ele>
        <time>2018-05-11T14:03:11Z</time>
      </trkpt>
      <trkpt lat="50.61376" lon="2.97153">
        <ele>50.4</ele>
        <time>2018-05-11T14:03:15Z</time>
      </trkpt>
      <trkpt lat="50.61384" lon="2.9718">
        <ele>50.2</ele>
        <time>2018-05-11T14:03:19Z</time>
      </trkpt>
      <trkpt lat="50.61391" lon="2.97208">
        <ele>49.4</ele>
        <time>2018-05-11T14:03:23Z</time>
      </trkpt>
      <trkpt lat="50.61396" lon="2.97238">
        <ele>50.4</ele>
        <time>2018-05-11T14:03:27Z</time>
      </trkpt>
      <trkpt lat="50.61404" lon="2.97267">
        <ele>50</ele>
        <time>2018-05-11T14:03:31Z</time>
      </trkpt>
      <trkpt lat="50.61419" lon="2.97285">
        <ele>50</ele>
        <time>2018-05-11T14:03:35Z</time>
      </trkpt>
      <trkpt lat="50.61438" lon="2.97296">
        <ele>49.8</ele>
        <time>2018-05-11T14:03:39Z</time>
      </trkpt>
      <trkpt lat="50.61455" lon="2.97308">
        <ele>49.4</ele>
        <time>2018-05-11T14:03:43Z</time>
      </trkpt>
      <trkpt lat="50.61473" lon="2.97321">
        <ele>49.6</ele>
        <time>2018-05-11T14:03:47Z</time>
      </trkpt>
      <trkpt lat="50.61491" lon="2.97337">
        <ele>49.2</ele>
        <time>2018-05-11T14:03:51Z</time>
      </trkpt>
      <trkpt lat="50.61509" lon="2.97353">
        <ele>49.6</ele>
        <time>2018-05-11T14:03:55Z</time>
      </trkpt>
      <trkpt lat="50.61527" lon="2.9737">
        <ele>49.2</ele>
        <time>2018-05-11T14:03:59Z</time>
      </trkpt>
      <trkpt lat="50.61546" lon="2.97389">
        <ele>49</ele>
        <time>2018-05-11T14:04:03Z</time>
      </trkpt>
      <trkpt lat="50.61565" lon="2.97406">
        <ele>49.2</ele>
        <time>2018-05-11T14:04:07Z</time>
      </trkpt>
      <trkpt lat="50.61584" lon="2.97425">
        <ele>49.6</ele>
        <time>2018-05-11T14:04:11Z</time>
      </trkpt>
      <trkpt lat="50.61603" lon="2.97444">
        <ele>49.6</ele>
        <time>2018-05-11T14:04:15Z</time>
      </trkpt>
      <trkpt lat="50.61621" lon="2.97461">
        <ele>49.6</ele>
        <time>2018-05-11T14:04:19Z</time>
      </trkpt>
      <trkpt lat="50.61637" lon="2.97477">
        <ele>49.8</ele>
        <time>2018-05-11T14:04:23Z</time>
      </trkpt>
      <trkpt lat="50.61653" lon="2.97494">
        <ele>49.6</ele>
        <time>2018-05-11T14:04:27Z</time>
      </trkpt>
      <trkpt lat="50.6167" lon="2.97512">
        <ele>49.6</ele>
        <time>2018-05-11T14:04:31Z</time>
      </trkpt>
      <trkpt lat="50.61686" lon="2.97531">
        <ele>50</ele>
        <time>2018-05-11T14:04:35Z</time>
      </trkpt>
      <trkpt lat="50.61702" lon="2.97549">
        <ele>50.2</ele>
        <time>2018-05-11T14:04:39Z</time>
      </trkpt>
      <trkpt lat="50.61718" lon="2.97567">
        <ele>50.2</ele>
        <time>2018-05-11T14:04:43Z</time>
      </trkpt>
      <trkpt lat="50.61734" lon="2.97586">
        <ele>50.4</ele>
        <time>2018-05-11T14:04:47Z</time>
      </trkpt>
      <trkpt lat="50.6175" lon="2.97606">
        <ele>50.4</ele>
        <time>2018-05-11T14:04:51Z</time>
      </trkpt>
      <trkpt lat="50.61766" lon="2.97626">
        <ele>50.8</ele>
        <time>2018-05-11T14:04:55Z</time>
      </trkpt>
      <trkpt lat="50.61782" lon="2.97646">
        <ele>51</ele>
        <time>2018-05-11T14:04:59Z</time>
      </trkpt>
      <trkpt lat="50.61798" lon="2.97667">
        <ele>50.6</ele>
        <time>2018-05-11T14:05:03Z</time>
      </trkpt>
      <trkpt lat="50.61815" lon="2.97689">
        <ele>51</ele>
        <time>2018-05-11T14:05:07Z</time>
      </trkpt>
      <trkpt lat="50.61831" lon="2.97712">
        <ele>50.6</ele>
        <time>2018-05-11T14:05:11Z</time>
      </trkpt>
      <trkpt lat="50.61848" lon="2.97735">
        <ele>50.4</ele>
        <time>2018-05-11T14:05:15Z</time>
      </trkpt>
      <trkpt lat="50.61865" lon="2.97756">
        <ele>50.6</ele>
        <time>2018-05-11T14:05:19Z</time>
      </trkpt>
      <trkpt lat="50.6188" lon="2.97778">
        <ele>50.6</ele>
        <time>2018-05-11T14:05:23Z</time>
      </trkpt>
      <trkpt lat="50.61897" lon="2.97799">
        <ele>50.2</ele>
        <time>2018-05-11T14:05:27Z</time>
      </trkpt>
      <trkpt lat="50.61914" lon="2.9782">
        <ele>50.8</ele>
        <time>2018-05-11T14:05:31Z</time>
      </trkpt>
      <trkpt lat="50.61931" lon="2.97841">
        <ele>50.6</ele>
        <time>2018-05-11T14:05:35Z</time>
      </trkpt>
      <trkpt lat="50.61949" lon="2.97861">
        <ele>50.4</ele>
        <time>2018-05-11T14:05:39Z</time>
      </trkpt>
      <trkpt lat="50.61966" lon="2.97881">
        <ele>50.2</ele>
        <time>2018-05-11T14:05:43Z</time>
      </trkpt>
      <trkpt lat="50.61984" lon="2.979">
        <ele>50.6</ele>
        <time>2018-05-11T14:05:47Z</time>
      </trkpt>
      <trkpt lat="50.62002" lon="2.9792">
        <ele>50</ele>
        <time>2018-05-11T14:05:51Z</time>
      </trkpt>
      <trkpt lat="50.62021" lon="2.97941">
        <ele>50.2</ele>
        <time>2018-05-11T14:05:55Z</time>
      </trkpt>
      <trkpt lat="50.6204" lon="2.97961">
        <ele>50.2</ele>
        <time>2018-05-11T14:05:59Z</time>
      </trkpt>
      <trkpt lat="50.62059" lon="2.97982">
        <ele>50.2</ele>
        <time>2018-05-11T14:06:03Z</time>
      </trkpt>
      <trkpt lat="50.62078" lon="2.98003">
        <ele>49.6</ele>
        <time>2018-05-11T14:06:07Z</time>
      </trkpt>
      <trkpt lat="50.62097" lon="2.98024">
        <ele>49.6</ele>
        <time>2018-05-11T14:06:11Z</time>
      </trkpt>
      <trkpt lat="50.62115" lon="2.98045">
        <ele>49.8</ele>
        <time>2018-05-11T14:06:15Z</time>
      </trkpt>
      <trkpt lat="50.62133" lon="2.98064">
        <ele>49.8</ele>
        <time>2018-05-11T14:06:19Z</time>
      </trkpt>
      <trkpt lat="50.62151" lon="2.98084">
        <ele>50.4</ele>
        <time>2018-05-11T14:06:23Z</time>
      </trkpt>
      <trkpt lat="50.62168" lon="2.98103">
        <ele>51.2</ele>
        <time>2018-05-11T14:06:27Z</time>
      </trkpt>
      <trkpt lat="50.62183" lon="2.98121">
        <ele>52</ele>
        <time>2018-05-11T14:06:31Z</time>
      </trkpt>
      <trkpt lat="50.62198" lon="2.98139">
        <ele>52.8</ele>
        <time>2018-05-11T14:06:35Z</time>
      </trkpt>
      <trkpt lat="50.62211" lon="2.98155">
        <ele>53.4</ele>
        <time>2018-05-11T14:06:39Z</time>
      </trkpt>
      <trkpt lat="50.62224" lon="2.98172">
        <ele>53.8</ele>
        <time>2018-05-11T14:06:43Z</time>
      </trkpt>
      <trkpt lat="50.62238" lon="2.9819">
        <ele>54.8</ele>
        <time>2018-05-11T14:06:47Z</time>
      </trkpt>
      <trkpt lat="50.62252" lon="2.98205">
        <ele>55.4</ele>
        <time>2018-05-11T14:06:51Z</time>
      </trkpt>
      <trkpt lat="50.62264" lon="2.98221">
        <ele>56.2</ele>
        <time>2018-05-11T14:06:55Z</time>
      </trkpt>
      <trkpt lat="50.6227" lon="2.98239">
        <ele>56.4</ele>
        <time>2018-05-11T14:06:59Z</time>
      </trkpt>
      <trkpt lat="50.62263" lon="2.98262">
        <ele>56.8</ele>
        <time>2018-05-11T14:07:03Z</time>
      </trkpt>
      <trkpt lat="50.62253" lon="2.98285">
        <ele>56.4</ele>
        <time>2018-05-11T14:07:07Z</time>
      </trkpt>
      <trkpt lat="50.62241" lon="2.98308">
        <ele>56.4</ele>
        <time>2018-05-11T14:07:11Z</time>
      </trkpt>
      <trkpt lat="50.62229" lon="2.98331">
        <ele>56.2</ele>
        <time>2018-05-11T14:07:15Z</time>
      </trkpt>
      <trkpt lat="50.62224" lon="2.98359">
        <ele>55.8</ele>
        <time>2018-05-11T14:07:19Z</time>
      </trkpt>
      <trkpt lat="50.62224" lon="2.98391">
        <ele>54.8</ele>
        <time>2018-05-11T14:07:23Z</time>
      </trkpt>
      <trkpt lat="50.6223" lon="2.98425">
        <ele>54.2</ele>
        <time>2018-05-11T14:07:27Z</time>
      </trkpt>
      <trkpt lat="50.62239" lon="2.98458">
        <ele>53.2</ele>
        <time>2018-05-11T14:07:31Z</time>
      </trkpt>
      <trkpt lat="50.62248" lon="2.98492">
        <ele>53.2</ele>
        <time>2018-05-11T14:07:35Z</time>
      </trkpt>
      <trkpt lat="50.62258" lon="2.98525">
        <ele>52.2</ele>
        <time>2018-05-11T14:07:39Z</time>
      </trkpt>
      <trkpt lat="50.62268" lon="2.98559">
        <ele>51.4</ele>
        <time>2018-05-11T14:07:43Z</time>
      </trkpt>
      <trkpt lat="50.62279" lon="2.98593">
        <ele>51</ele>
        <time>2018-05-11T14:07:47Z</time>
      </trkpt>
      <trkpt lat="50.62289" lon="2.98625">
        <ele>50.2</ele>
        <time>2018-05-11T14:07:51Z</time>
      </trkpt>
      <trkpt lat="50.62297" lon="2.98653">
        <ele>50.4</ele>
        <time>2018-05-11T14:07:55Z</time>
      </trkpt>
      <trkpt lat="50.62306" lon="2.98684">
        <ele>50</ele>
        <time>2018-05-11T14:07:59Z</time>
      </trkpt>
      <trkpt lat="50.62317" lon="2.98714">
        <ele>50.4</ele>
        <time>2018-05-11T14:08:03Z</time>
      </trkpt>
      <trkpt lat="50.62332" lon="2.98736">
        <ele>49.6</ele>
        <time>2018-05-11T14:08:07Z</time>
      </trkpt>
      <trkpt lat="50.6235" lon="2.9875">
        <ele>49.6</ele>
        <time>2018-05-11T14:08:11Z</time>
      </trkpt>
      <trkpt lat="50.62369" lon="2.98763">
        <ele>49.6</ele>
        <time>2018-05-11T14:08:15Z</time>
      </trkpt>
      <trkpt lat="50.62388" lon="2.98777">
        <ele>49.6</ele>
        <time>2018-05-11T14:08:19Z</time>
      </trkpt>
      <trkpt lat="50.62407" lon="2.98791">
        <ele>49.2</ele>
        <time>2018-05-11T14:08:23Z</time>
      </trkpt>
      <trkpt lat="50.62425" lon="2.9881">
        <ele>49.8</ele>
        <time>2018-05-11T14:08:27Z</time>
      </trkpt>
      <trkpt lat="50.62442" lon="2.98829">
        <ele>49.2</ele>
        <time>2018-05-11T14:08:31Z</time>
      </trkpt>
      <trkpt lat="50.62455" lon="2.98848">
        <ele>49.6</ele>
        <time>2018-05-11T14:08:35Z</time>
      </trkpt>
      <trkpt lat="50.62468" lon="2.98867">
        <ele>49.6</ele>
        <time>2018-05-11T14:08:39Z</time>
      </trkpt>
      <trkpt lat="50.62481" lon="2.98888">
        <ele>49.6</ele>
        <time>2018-05-11T14:08:43Z</time>
      </trkpt>
      <trkpt lat="50.62495" lon="2.9891">
        <ele>49.2</ele>
        <time>2018-05-11T14:08:47Z</time>
      </trkpt>
      <trkpt lat="50.6251" lon="2.98932">
        <ele>49.6</ele>
        <time>2018-05-11T14:08:51Z</time>
      </trkpt>
      <trkpt lat="50.62525" lon="2.98956">
        <ele>49.8</ele>
        <time>2018-05-11T14:08:55Z</time>
      </trkpt>
      <trkpt lat="50.6254" lon="2.9898">
        <ele>49.6</ele>
        <time>2018-05-11T14:08:59Z</time>
      </trkpt>
      <trkpt lat="50.62555" lon="2.99004">
        <ele>49.6</ele>
        <time>2018-05-11T14:09:03Z</time>
      </trkpt>
      <trkpt lat="50.62571" lon="2.99028">
        <ele>49.6</ele>
        <time>2018-05-11T14:09:07Z</time>
      </trkpt>
      <trkpt lat="50.62586" lon="2.99052">
        <ele>49.8</ele>
        <time>2018-05-11T14:09:11Z</time>
      </trkpt>
      <trkpt lat="50.626" lon="2.99075">
        <ele>49.6</ele>
        <time>2018-05-11T14:09:15Z</time>
      </trkpt>
      <trkpt lat="50.62609" lon="2.99099">
        <ele>50.2</ele>
        <time>2018-05-11T14:09:19Z</time>
      </trkpt>
      <trkpt lat="50.62607" lon="2.99126">
        <ele>49.8</ele>
        <time>2018-05-11T14:09:23Z</time>
      </trkpt>
      <trkpt lat="50.62616" lon="2.9915">
        <ele>50</ele>
        <time>2018-05-11T14:09:27Z</time>
      </trkpt>
      <trkpt lat="50.62634" lon="2.99156">
        <ele>49.6</ele>
        <time>2018-05-11T14:09:31Z</time>
      </trkpt>
      <trkpt lat="50.62653" lon="2.99168">
        <ele>50</ele>
        <time>2018-05-11T14:09:35Z</time>
      </trkpt>
      <trkpt lat="50.62668" lon="2.9919">
        <ele>49.6</ele>
        <time>2018-05-11T14:09:39Z</time>
      </trkpt>
      <trkpt lat="50.6268" lon="2.99218">
        <ele>49.6</ele>
        <time>2018-05-11T14:09:43Z</time>
      </trkpt>
      <trkpt lat="50.62692" lon="2.99246">
        <ele>49.6</ele>
        <time>2018-05-11T14:09:47Z</time>
      </trkpt>
      <trkpt lat="50.62704" lon="2.99274">
        <ele>49.6</ele>
        <time>2018-05-11T14:09:51Z</time>
      </trkpt>
      <trkpt lat="50.62716" lon="2.99301">
        <ele>49</ele>
        <time>2018-05-11T14:09:55Z</time>
      </trkpt>
      <trkpt lat="50.62729" lon="2.9933">
        <ele>48.6</ele>
        <time>2018-05-11T14:09:59Z</time>
      </trkpt>
      <trkpt lat="50.62742" lon="2.9936">
        <ele>48.6</ele>
        <time>2018-05-11T14:10:03Z</time>
      </trkpt>
      <trkpt lat="50.62755" lon="2.9939">
        <ele>49.6</ele>
        <time>2018-05-11T14:10:07Z</time>
      </trkpt>
      <trkpt lat="50.62767" lon="2.9942">
        <ele>49</ele>
        <time>2018-05-11T14:10:11Z</time>
      </trkpt>
      <trkpt lat="50.62779" lon="2.99449">
        <ele>49.2</ele>
        <time>2018-05-11T14:10:15Z</time>
      </trkpt>
      <trkpt lat="50.6279" lon="2.99476">
        <ele>49.6</ele>
        <time>2018-05-11T14:10:19Z</time>
      </trkpt>
      <trkpt lat="50.62801" lon="2.99503">
        <ele>49.6</ele>
        <time>2018-05-11T14:10:23Z</time>
      </trkpt>
      <trkpt lat="50.62814" lon="2.99532">
        <ele>49.6</ele>
        <time>2018-05-11T14:10:27Z</time>
      </trkpt>
      <trkpt lat="50.62827" lon="2.99561">
        <ele>49.8</ele>
        <time>2018-05-11T14:10:31Z</time>
      </trkpt>
      <trkpt lat="50.62839" lon="2.99589">
        <ele>49.6</ele>
        <time>2018-05-11T14:10:35Z</time>
      </trkpt>
      <trkpt lat="50.6285" lon="2.99618">
        <ele>49.2</ele>
        <time>2018-05-11T14:10:39Z</time>
      </trkpt>
      <trkpt lat="50.62862" lon="2.99646">
        <ele>49.2</ele>
        <time>2018-05-11T14:10:43Z</time>
      </trkpt>
      <trkpt lat="50.62874" lon="2.99674">
        <ele>49.6</ele>
        <time>2018-05-11T14:10:47Z</time>
      </trkpt>
      <trkpt lat="50.62885" lon="2.99703">
        <ele>49.6</ele>
        <time>2018-05-11T14:10:51Z</time>
      </trkpt>
      <trkpt lat="50.62897" lon="2.99731">
        <ele>49.6</ele>
        <time>2018-05-11T14:10:55Z</time>
      </trkpt>
      <trkpt lat="50.62908" lon="2.99757">
        <ele>49.8</ele>
        <time>2018-05-11T14:10:59Z</time>
      </trkpt>
      <trkpt lat="50.6292" lon="2.99784">
        <ele>49.8</ele>
        <time>2018-05-11T14:11:03Z</time>
      </trkpt>
      <trkpt lat="50.62931" lon="2.99812">
        <ele>49.8</ele>
        <time>2018-05-11T14:11:07Z</time>
      </trkpt>
      <trkpt lat="50.62943" lon="2.9984">
        <ele>50</ele>
        <time>2018-05-11T14:11:11Z</time>
      </trkpt>
      <trkpt lat="50.62954" lon="2.99868">
        <ele>50</ele>
        <time>2018-05-11T14:11:15Z</time>
      </trkpt>
      <trkpt lat="50.62966" lon="2.99896">
        <ele>50.2</ele>
        <time>2018-05-11T14:11:19Z</time>
      </trkpt>
      <trkpt lat="50.62975" lon="2.9992">
        <ele>50</ele>
        <time>2018-05-11T14:11:23Z</time>
      </trkpt>
      <trkpt lat="50.62971" lon="2.99943">
        <ele>50.2</ele>
        <time>2018-05-11T14:11:27Z</time>
      </trkpt>
      <trkpt lat="50.62958" lon="2.99962">
        <ele>50.4</ele>
        <time>2018-05-11T14:11:31Z</time>
      </trkpt>
      <trkpt lat="50.62945" lon="2.99982">
        <ele>50.4</ele>
        <time>2018-05-11T14:11:35Z</time>
      </trkpt>
      <trkpt lat="50.62932" lon="3.00002">
        <ele>50.2</ele>
        <time>2018-05-11T14:11:39Z</time>
      </trkpt>
      <trkpt lat="50.62917" lon="3.00023">
        <ele>50.2</ele>
        <time>2018-05-11T14:11:43Z</time>
      </trkpt>
      <trkpt lat="50.62902" lon="3.00045">
        <ele>49.2</ele>
        <time>2018-05-11T14:11:47Z</time>
      </trkpt>
      <trkpt lat="50.6289" lon="3.00064">
        <ele>49.4</ele>
        <time>2018-05-11T14:11:51Z</time>
      </trkpt>
      <trkpt lat="50.6288" lon="3.00085">
        <ele>50.4</ele>
        <time>2018-05-11T14:11:55Z</time>
      </trkpt>
      <trkpt lat="50.62881" lon="3.00108">
        <ele>50.4</ele>
        <time>2018-05-11T14:11:59Z</time>
      </trkpt>
      <trkpt lat="50.62891" lon="3.00131">
        <ele>49.8</ele>
        <time>2018-05-11T14:12:03Z</time>
      </trkpt>
      <trkpt lat="50.62902" lon="3.00154">
        <ele>49.2</ele>
        <time>2018-05-11T14:12:07Z</time>
      </trkpt>
      <trkpt lat="50.62915" lon="3.00179">
        <ele>49</ele>
        <time>2018-05-11T14:12:11Z</time>
      </trkpt>
      <trkpt lat="50.62928" lon="3.00203">
        <ele>49.2</ele>
        <time>2018-05-11T14:12:15Z</time>
      </trkpt>
      <trkpt lat="50.6294" lon="3.00226">
        <ele>49</ele>
        <time>2018-05-11T14:12:19Z</time>
      </trkpt>
      <trkpt lat="50.62948" lon="3.00246">
        <ele>49</ele>
        <time>2018-05-11T14:12:23Z</time>
      </trkpt>
      <trkpt lat="50.62939" lon="3.00261">
        <ele>49.8</ele>
        <time>2018-05-11T14:12:27Z</time>
      </trkpt>
      <trkpt lat="50.62927" lon="3.00278">
        <ele>49.2</ele>
        <time>2018-05-11T14:12:31Z</time>
      </trkpt>
      <trkpt lat="50.62912" lon="3.00297">
        <ele>49.2</ele>
        <time>2018-05-11T14:12:35Z</time>
      </trkpt>
      <trkpt lat="50.62897" lon="3.00316">
        <ele>49.4</ele>
        <time>2018-05-11T14:12:39Z</time>
      </trkpt>
      <trkpt lat="50.6288" lon="3.00334">
        <ele>49.2</ele>
        <time>2018-05-11T14:12:43Z</time>
      </trkpt>
      <trkpt lat="50.62865" lon="3.00353">
        <ele>49.4</ele>
        <time>2018-05-11T14:12:47Z</time>
      </trkpt>
      <trkpt lat="50.62852" lon="3.00374">
        <ele>49.2</ele>
        <time>2018-05-11T14:12:51Z</time>
      </trkpt>
      <trkpt lat="50.62835" lon="3.00394">
        <ele>49.4</ele>
        <time>2018-05-11T14:12:55Z</time>
      </trkpt>
      <trkpt lat="50.62821" lon="3.00415">
        <ele>49</ele>
        <time>2018-05-11T14:12:59Z</time>
      </trkpt>
      <trkpt lat="50.62805" lon="3.00432">
        <ele>48.8</ele>
        <time>2018-05-11T14:13:03Z</time>
      </trkpt>
      <trkpt lat="50.6279" lon="3.0045">
        <ele>48.8</ele>
        <time>2018-05-11T14:13:07Z</time>
      </trkpt>
      <trkpt lat="50.62776" lon="3.00472">
        <ele>49</ele>
        <time>2018-05-11T14:13:11Z</time>
      </trkpt>
      <trkpt lat="50.62772" lon="3.005">
        <ele>48</ele>
        <time>2018-05-11T14:13:15Z</time>
      </trkpt>
      <trkpt lat="50.62772" lon="3.00532">
        <ele>48.4</ele>
        <time>2018-05-11T14:13:19Z</time>
      </trkpt>
      <trkpt lat="50.62772" lon="3.00562">
        <ele>49</ele>
        <time>2018-05-11T14:13:23Z</time>
      </trkpt>
      <trkpt lat="50.62772" lon="3.00593">
        <ele>48.6</ele>
        <time>2018-05-11T14:13:27Z</time>
      </trkpt>
      <trkpt lat="50.62773" lon="3.00624">
        <ele>48.8</ele>
        <time>2018-05-11T14:13:31Z</time>
      </trkpt>
      <trkpt lat="50.62771" lon="3.00657">
        <ele>48.4</ele>
        <time>2018-05-11T14:13:35Z</time>
      </trkpt>
      <trkpt lat="50.62772" lon="3.00691">
        <ele>48.6</ele>
        <time>2018-05-11T14:13:39Z</time>
      </trkpt>
      <trkpt lat="50.62773" lon="3.00723">
        <ele>49.2</ele>
        <time>2018-05-11T14:13:43Z</time>
      </trkpt>
      <trkpt lat="50.62772" lon="3.00757">
        <ele>48.8</ele>
        <time>2018-05-11T14:13:47Z</time>
      </trkpt>
      <trkpt lat="50.62773" lon="3.00789">
        <ele>48.6</ele>
        <time>2018-05-11T14:13:51Z</time>
      </trkpt>
      <trkpt lat="50.62773" lon="3.00823">
        <ele>48.8</ele>
        <time>2018-05-11T14:13:55Z</time>
      </trkpt>
      <trkpt lat="50.62773" lon="3.00856">
        <ele>48.2</ele>
        <time>2018-05-11T14:13:59Z</time>
      </trkpt>
      <trkpt lat="50.62772" lon="3.00888">
        <ele>48</ele>
        <time>2018-05-11T14:14:03Z</time>
      </trkpt>
      <trkpt lat="50.62771" lon="3.00919">
        <ele>47.6</ele>
        <time>2018-05-11T14:14:07Z</time>
      </trkpt>
      <trkpt lat="50.6277" lon="3.00947">
        <ele>47.6</ele>
        <time>2018-05-11T14:14:11Z</time>
      </trkpt>
      <trkpt lat="50.62774" lon="3.00971">
        <ele>47.6</ele>
        <time>2018-05-11T14:14:15Z</time>
      </trkpt>
      <trkpt lat="50.62775" lon="3.00999">
        <ele>47.6</ele>
        <time>2018-05-11T14:14:19Z</time>
      </trkpt>
      <trkpt lat="50.62775" lon="3.01023">
        <ele>47.4</ele>
        <time>2018-05-11T14:14:23Z</time>
      </trkpt>
      <trkpt lat="50.62773" lon="3.01044">
        <ele>47.4</ele>
        <time>2018-05-11T14:14:27Z</time>
      </trkpt>
      <trkpt lat="50.62772" lon="3.01065">
        <ele>47.4</ele>
        <time>2018-05-11T14:14:31Z</time>
      </trkpt>
      <trkpt lat="50.62774" lon="3.01085">
        <ele>47.6</ele>
        <time>2018-05-11T14:14:35Z</time>
      </trkpt>
      <trkpt lat="50.62773" lon="3.01101">
        <ele>47.2</ele>
        <time>2018-05-11T14:14:39Z</time>
      </trkpt>
      <trkpt lat="50.62772" lon="3.01119">
        <ele>47.8</ele>
        <time>2018-05-11T14:14:43Z</time>
      </trkpt>
      <trkpt lat="50.62773" lon="3.0114">
        <ele>47.8</ele>
        <time>2018-05-11T14:14:47Z</time>
      </trkpt>
      <trkpt lat="50.62771" lon="3.01162">
        <ele>47.6</ele>
        <time>2018-05-11T14:14:51Z</time>
      </trkpt>
      <trkpt lat="50.62771" lon="3.01181">
        <ele>47.4</ele>
        <time>2018-05-11T14:14:55Z</time>
      </trkpt>
      <trkpt lat="50.62772" lon="3.01204">
        <ele>47.4</ele>
        <time>2018-05-11T14:14:59Z</time>
      </trkpt>
      <trkpt lat="50.62773" lon="3.01228">
        <ele>47.4</ele>
        <time>2018-05-11T14:15:03Z</time>
      </trkpt>
      <trkpt lat="50.62773" lon="3.0125">
        <ele>47.8</ele>
        <time>2018-05-11T14:15:07Z</time>
      </trkpt>
      <trkpt lat="50.62772" lon="3.01281">
        <ele>47.6</ele>
        <time>2018-05-11T14:15:11Z</time>
      </trkpt>
      <trkpt lat="50.62773" lon="3.01309">
        <ele>47.2</ele>
        <time>2018-05-11T14:15:15Z</time>
      </trkpt>
      <trkpt lat="50.62771" lon="3.01336">
        <ele>47.6</ele>
        <time>2018-05-11T14:15:19Z</time>
      </trkpt>
      <trkpt lat="50.62763" lon="3.01358">
        <ele>47.6</ele>
        <time>2018-05-11T14:15:23Z</time>
      </trkpt>
      <trkpt lat="50.62755" lon="3.0138">
        <ele>47.4</ele>
        <time>2018-05-11T14:15:27Z</time>
      </trkpt>
      <trkpt lat="50.62746" lon="3.01397">
        <ele>47.8</ele>
        <time>2018-05-11T14:15:31Z</time>
      </trkpt>
      <trkpt lat="50.62741" lon="3.01416">
        <ele>47.2</ele>
        <time>2018-05-11T14:16:15Z</time>
      </trkpt>
      <trkpt lat="50.62738" lon="3.01424">
        <ele>47.2</ele>
        <time>2018-05-11T14:16:19Z</time>
      </trkpt>
      <trkpt lat="50.62733" lon="3.0144">
        <ele>47.2</ele>
        <time>2018-05-11T14:16:23Z</time>
      </trkpt>
      <trkpt lat="50.62727" lon="3.01456">
        <ele>47.2</ele>
        <time>2018-05-11T14:16:27Z</time>
      </trkpt>
      <trkpt lat="50.62723" lon="3.0147">
        <ele>47.6</ele>
        <time>2018-05-11T14:16:31Z</time>
      </trkpt>
      <trkpt lat="50.62719" lon="3.01483">
        <ele>48</ele>
        <time>2018-05-11T14:16:35Z</time>
      </trkpt>
      <trkpt lat="50.62712" lon="3.01492">
        <ele>47.4</ele>
        <time>2018-05-11T14:17:27Z</time>
      </trkpt>
      <trkpt lat="50.62708" lon="3.01504">
        <ele>48</ele>
        <time>2018-05-11T14:17:31Z</time>
      </trkpt>
      <trkpt lat="50.62708" lon="3.01525">
        <ele>48</ele>
        <time>2018-05-11T14:17:35Z</time>
      </trkpt>
      <trkpt lat="50.62718" lon="3.01542">
        <ele>47.6</ele>
        <time>2018-05-11T14:17:39Z</time>
      </trkpt>
      <trkpt lat="50.62728" lon="3.01558">
        <ele>47.6</ele>
        <time>2018-05-11T14:17:43Z</time>
      </trkpt>
      <trkpt lat="50.62739" lon="3.01574">
        <ele>47.8</ele>
        <time>2018-05-11T14:17:47Z</time>
      </trkpt>
      <trkpt lat="50.6275" lon="3.01591">
        <ele>47.6</ele>
        <time>2018-05-11T14:17:51Z</time>
      </trkpt>
      <trkpt lat="50.62762" lon="3.01608">
        <ele>47.2</ele>
        <time>2018-05-11T14:17:55Z</time>
      </trkpt>
      <trkpt lat="50.62773" lon="3.01626">
        <ele>47.6</ele>
        <time>2018-05-11T14:17:59Z</time>
      </trkpt>
      <trkpt lat="50.62785" lon="3.01645">
        <ele>46.8</ele>
        <time>2018-05-11T14:18:03Z</time>
      </trkpt>
      <trkpt lat="50.62796" lon="3.01664">
        <ele>46.8</ele>
        <time>2018-05-11T14:18:07Z</time>
      </trkpt>
      <trkpt lat="50.62804" lon="3.01683">
        <ele>46.6</ele>
        <time>2018-05-11T14:18:11Z</time>
      </trkpt>
      <trkpt lat="50.62813" lon="3.01698">
        <ele>47</ele>
        <time>2018-05-11T14:18:15Z</time>
      </trkpt>
      <trkpt lat="50.62824" lon="3.01713">
        <ele>47.4</ele>
        <time>2018-05-11T14:18:19Z</time>
      </trkpt>
      <trkpt lat="50.62835" lon="3.01728">
        <ele>48.6</ele>
        <time>2018-05-11T14:18:23Z</time>
      </trkpt>
      <trkpt lat="50.62844" lon="3.01743">
        <ele>47.6</ele>
        <time>2018-05-11T14:18:27Z</time>
      </trkpt>
      <trkpt lat="50.62856" lon="3.0176">
        <ele>47.4</ele>
        <time>2018-05-11T14:18:31Z</time>
      </trkpt>
      <trkpt lat="50.62867" lon="3.01777">
        <ele>47.8</ele>
        <time>2018-05-11T14:18:35Z</time>
      </trkpt>
      <trkpt lat="50.62878" lon="3.01794">
        <ele>48.6</ele>
        <time>2018-05-11T14:18:39Z</time>
      </trkpt>
      <trkpt lat="50.62887" lon="3.01811">
        <ele>48.4</ele>
        <time>2018-05-11T14:18:43Z</time>
      </trkpt>
      <trkpt lat="50.62896" lon="3.0183">
        <ele>48.2</ele>
        <time>2018-05-11T14:18:47Z</time>
      </trkpt>
      <trkpt lat="50.62907" lon="3.01845">
        <ele>47.6</ele>
        <time>2018-05-11T14:18:51Z</time>
      </trkpt>
      <trkpt lat="50.62917" lon="3.01858">
        <ele>48</ele>
        <time>2018-05-11T14:18:55Z</time>
      </trkpt>
      <trkpt lat="50.62926" lon="3.01872">
        <ele>47.6</ele>
        <time>2018-05-11T14:18:59Z</time>
      </trkpt>
      <trkpt lat="50.62936" lon="3.01887">
        <ele>47.6</ele>
        <time>2018-05-11T14:19:03Z</time>
      </trkpt>
      <trkpt lat="50.62945" lon="3.01903">
        <ele>47.4</ele>
        <time>2018-05-11T14:19:07Z</time>
      </trkpt>
      <trkpt lat="50.62952" lon="3.01916">
        <ele>47.6</ele>
        <time>2018-05-11T14:19:11Z</time>
      </trkpt>
      <trkpt lat="50.62957" lon="3.01924">
        <ele>48.4</ele>
        <time>2018-05-11T14:19:15Z</time>
      </trkpt>
      <trkpt lat="50.62961" lon="3.01932">
        <ele>48.6</ele>
        <time>2018-05-11T14:19:19Z</time>
      </trkpt>
      <trkpt lat="50.62969" lon="3.01942">
        <ele>47.8</ele>
        <time>2018-05-11T14:19:23Z</time>
      </trkpt>
      <trkpt lat="50.62982" lon="3.01961">
        <ele>48</ele>
        <time>2018-05-11T14:19:27Z</time>
      </trkpt>
      <trkpt lat="50.62992" lon="3.01978">
        <ele>47.8</ele>
        <time>2018-05-11T14:19:31Z</time>
      </trkpt>
      <trkpt lat="50.63002" lon="3.0199">
        <ele>48</ele>
        <time>2018-05-11T14:19:35Z</time>
      </trkpt>
      <trkpt lat="50.63005" lon="3.02005">
        <ele>47.6</ele>
        <time>2018-05-11T14:19:39Z</time>
      </trkpt>
      <trkpt lat="50.63" lon="3.02018">
        <ele>48</ele>
        <time>2018-05-11T14:19:43Z</time>
      </trkpt>
      <trkpt lat="50.62994" lon="3.0203">
        <ele>48</ele>
        <time>2018-05-11T14:19:47Z</time>
      </trkpt>
      <trkpt lat="50.62986" lon="3.02043">
        <ele>47.8</ele>
        <time>2018-05-11T14:19:51Z</time>
      </trkpt>
      <trkpt lat="50.62977" lon="3.02057">
        <ele>48.4</ele>
        <time>2018-05-11T14:19:55Z</time>
      </trkpt>
      <trkpt lat="50.62968" lon="3.02066">
        <ele>48</ele>
        <time>2018-05-11T14:19:59Z</time>
      </trkpt>
      <trkpt lat="50.62957" lon="3.02072">
        <ele>47.6</ele>
        <time>2018-05-11T14:20:03Z</time>
      </trkpt>
      <trkpt lat="50.62946" lon="3.02081">
        <ele>47.8</ele>
        <time>2018-05-11T14:20:07Z</time>
      </trkpt>
      <trkpt lat="50.62935" lon="3.02091">
        <ele>48.6</ele>
        <time>2018-05-11T14:20:11Z</time>
      </trkpt>
      <trkpt lat="50.62926" lon="3.02102">
        <ele>47.6</ele>
        <time>2018-05-11T14:20:15Z</time>
      </trkpt>
      <trkpt lat="50.62916" lon="3.02111">
        <ele>48</ele>
        <time>2018-05-11T14:20:19Z</time>
      </trkpt>
      <trkpt lat="50.62904" lon="3.02112">
        <ele>48</ele>
        <time>2018-05-11T14:20:23Z</time>
      </trkpt>
      <trkpt lat="50.62892" lon="3.02108">
        <ele>48.2</ele>
        <time>2018-05-11T14:20:27Z</time>
      </trkpt>
      <trkpt lat="50.62879" lon="3.02106">
        <ele>48.2</ele>
        <time>2018-05-11T14:20:31Z</time>
      </trkpt>
      <trkpt lat="50.62865" lon="3.02101">
        <ele>48.2</ele>
        <time>2018-05-11T14:20:35Z</time>
      </trkpt>
      <trkpt lat="50.6285" lon="3.02098">
        <ele>48</ele>
        <time>2018-05-11T14:20:39Z</time>
      </trkpt>
      <trkpt lat="50.62835" lon="3.02094">
        <ele>48.4</ele>
        <time>2018-05-11T14:20:43Z</time>
      </trkpt>
      <trkpt lat="50.6282" lon="3.02091">
        <ele>48.2</ele>
        <time>2018-05-11T14:20:47Z</time>
      </trkpt>
      <trkpt lat="50.62804" lon="3.02084">
        <ele>48.6</ele>
        <time>2018-05-11T14:20:51Z</time>
      </trkpt>
      <trkpt lat="50.6279" lon="3.02069">
        <ele>48</ele>
        <time>2018-05-11T14:20:55Z</time>
      </trkpt>
      <trkpt lat="50.62776" lon="3.02052">
        <ele>48.2</ele>
        <time>2018-05-11T14:20:59Z</time>
      </trkpt>
      <trkpt lat="50.6276" lon="3.02034">
        <ele>47.8</ele>
        <time>2018-05-11T14:21:03Z</time>
      </trkpt>
      <trkpt lat="50.62744" lon="3.02023">
        <ele>48.2</ele>
        <time>2018-05-11T14:21:07Z</time>
      </trkpt>
      <trkpt lat="50.62728" lon="3.02018">
        <ele>48.4</ele>
        <time>2018-05-11T14:21:11Z</time>
      </trkpt>
      <trkpt lat="50.62713" lon="3.02014">
        <ele>48.8</ele>
        <time>2018-05-11T14:21:15Z</time>
      </trkpt>
      <trkpt lat="50.62699" lon="3.0201">
        <ele>48.4</ele>
        <time>2018-05-11T14:21:19Z</time>
      </trkpt>
      <trkpt lat="50.62686" lon="3.02004">
        <ele>48.4</ele>
        <time>2018-05-11T14:21:23Z</time>
      </trkpt>
      <trkpt lat="50.62674" lon="3.01999">
        <ele>47.6</ele>
        <time>2018-05-11T14:21:27Z</time>
      </trkpt>
      <trkpt lat="50.62661" lon="3.0199">
        <ele>48</ele>
        <time>2018-05-11T14:21:31Z</time>
      </trkpt>
      <trkpt lat="50.62652" lon="3.0198">
        <ele>48</ele>
        <time>2018-05-11T14:21:35Z</time>
      </trkpt>
      <trkpt lat="50.62641" lon="3.01983">
        <ele>48.8</ele>
        <time>2018-05-11T14:21:39Z</time>
      </trkpt>
      <trkpt lat="50.6263" lon="3.01999">
        <ele>48.8</ele>
        <time>2018-05-11T14:21:43Z</time>
      </trkpt>
      <trkpt lat="50.62622" lon="3.02018">
        <ele>48.8</ele>
        <time>2018-05-11T14:21:47Z</time>
      </trkpt>
      <trkpt lat="50.62613" lon="3.02039">
        <ele>49</ele>
        <time>2018-05-11T14:21:51Z</time>
      </trkpt>
      <trkpt lat="50.62604" lon="3.02061">
        <ele>48.6</ele>
        <time>2018-05-11T14:21:55Z</time>
      </trkpt>
      <trkpt lat="50.626" lon="3.02087">
        <ele>48.6</ele>
        <time>2018-05-11T14:21:59Z</time>
      </trkpt>
      <trkpt lat="50.62604" lon="3.02113">
        <ele>48.4</ele>
        <time>2018-05-11T14:22:03Z</time>
      </trkpt>
      <trkpt lat="50.62608" lon="3.02139">
        <ele>48.6</ele>
        <time>2018-05-11T14:22:07Z</time>
      </trkpt>
      <trkpt lat="50.62614" lon="3.02167">
        <ele>48</ele>
        <time>2018-05-11T14:22:11Z</time>
      </trkpt>
      <trkpt lat="50.62619" lon="3.02194">
        <ele>49</ele>
        <time>2018-05-11T14:22:15Z</time>
      </trkpt>
      <trkpt lat="50.62623" lon="3.02221">
        <ele>49</ele>
        <time>2018-05-11T14:22:19Z</time>
      </trkpt>
      <trkpt lat="50.6263" lon="3.02247">
        <ele>49</ele>
        <time>2018-05-11T14:22:23Z</time>
      </trkpt>
      <trkpt lat="50.62638" lon="3.02272">
        <ele>49.6</ele>
        <time>2018-05-11T14:22:27Z</time>
      </trkpt>
      <trkpt lat="50.62645" lon="3.02298">
        <ele>50.2</ele>
        <time>2018-05-11T14:22:31Z</time>
      </trkpt>
      <trkpt lat="50.62651" lon="3.02324">
        <ele>49.6</ele>
        <time>2018-05-11T14:22:35Z</time>
      </trkpt>
      <trkpt lat="50.62656" lon="3.02352">
        <ele>49.8</ele>
        <time>2018-05-11T14:22:39Z</time>
      </trkpt>
      <trkpt lat="50.62662" lon="3.02381">
        <ele>50.4</ele>
        <time>2018-05-11T14:22:43Z</time>
      </trkpt>
      <trkpt lat="50.62669" lon="3.02407">
        <ele>49.8</ele>
        <time>2018-05-11T14:22:47Z</time>
      </trkpt>
      <trkpt lat="50.62676" lon="3.02433">
        <ele>48.6</ele>
        <time>2018-05-11T14:22:51Z</time>
      </trkpt>
      <trkpt lat="50.62685" lon="3.02467">
        <ele>48.8</ele>
        <time>2018-05-11T14:22:55Z</time>
      </trkpt>
      <trkpt lat="50.6269" lon="3.02497">
        <ele>48.6</ele>
        <time>2018-05-11T14:22:59Z</time>
      </trkpt>
      <trkpt lat="50.62698" lon="3.02523">
        <ele>48.6</ele>
        <time>2018-05-11T14:23:03Z</time>
      </trkpt>
      <trkpt lat="50.62708" lon="3.02543">
        <ele>48.4</ele>
        <time>2018-05-11T14:23:07Z</time>
      </trkpt>
      <trkpt lat="50.62715" lon="3.02564">
        <ele>48.8</ele>
        <time>2018-05-11T14:23:11Z</time>
      </trkpt>
      <trkpt lat="50.62722" lon="3.02585">
        <ele>48.8</ele>
        <time>2018-05-11T14:23:15Z</time>
      </trkpt>
      <trkpt lat="50.6273" lon="3.02608">
        <ele>48.6</ele>
        <time>2018-05-11T14:23:19Z</time>
      </trkpt>
      <trkpt lat="50.62742" lon="3.02627">
        <ele>48.4</ele>
        <time>2018-05-11T14:23:23Z</time>
      </trkpt>
      <trkpt lat="50.62751" lon="3.0265">
        <ele>49</ele>
        <time>2018-05-11T14:23:27Z</time>
      </trkpt>
      <trkpt lat="50.62761" lon="3.02674">
        <ele>48.8</ele>
        <time>2018-05-11T14:23:31Z</time>
      </trkpt>
      <trkpt lat="50.62772" lon="3.02695">
        <ele>48.4</ele>
        <time>2018-05-11T14:23:35Z</time>
      </trkpt>
      <trkpt lat="50.62782" lon="3.02713">
        <ele>48</ele>
        <time>2018-05-11T14:23:39Z</time>
      </trkpt>
      <trkpt lat="50.62794" lon="3.02736">
        <ele>48.2</ele>
        <time>2018-05-11T14:23:43Z</time>
      </trkpt>
      <trkpt lat="50.62806" lon="3.02756">
        <ele>48.6</ele>
        <time>2018-05-11T14:23:47Z</time>
      </trkpt>
      <trkpt lat="50.62819" lon="3.02775">
        <ele>48.4</ele>
        <time>2018-05-11T14:23:51Z</time>
      </trkpt>
      <trkpt lat="50.62831" lon="3.02792">
        <ele>48.4</ele>
        <time>2018-05-11T14:23:55Z</time>
      </trkpt>
      <trkpt lat="50.62845" lon="3.02813">
        <ele>49</ele>
        <time>2018-05-11T14:23:59Z</time>
      </trkpt>
      <trkpt lat="50.62856" lon="3.02837">
        <ele>47.8</ele>
        <time>2018-05-11T14:24:03Z</time>
      </trkpt>
      <trkpt lat="50.62873" lon="3.02855">
        <ele>47.6</ele>
        <time>2018-05-11T14:24:07Z</time>
      </trkpt>
      <trkpt lat="50.62888" lon="3.02874">
        <ele>48</ele>
        <time>2018-05-11T14:24:11Z</time>
      </trkpt>
      <trkpt lat="50.62902" lon="3.02893">
        <ele>48.4</ele>
        <time>2018-05-11T14:24:15Z</time>
      </trkpt>
      <trkpt lat="50.62912" lon="3.02911">
        <ele>48.8</ele>
        <time>2018-05-11T14:24:19Z</time>
      </trkpt>
      <trkpt lat="50.62927" lon="3.02932">
        <ele>48.6</ele>
        <time>2018-05-11T14:24:23Z</time>
      </trkpt>
      <trkpt lat="50.6294" lon="3.02949">
        <ele>48.4</ele>
        <time>2018-05-11T14:24:27Z</time>
      </trkpt>
      <trkpt lat="50.62954" lon="3.02967">
        <ele>47.6</ele>
        <time>2018-05-11T14:24:31Z</time>
      </trkpt>
      <trkpt lat="50.62968" lon="3.02983">
        <ele>48.6</ele>
        <time>2018-05-11T14:24:35Z</time>
      </trkpt>
      <trkpt lat="50.62977" lon="3.02995">
        <ele>48</ele>
        <time>2018-05-11T14:24:39Z</time>
      </trkpt>
      <trkpt lat="50.62988" lon="3.03009">
        <ele>48.4</ele>
        <time>2018-05-11T14:24:43Z</time>
      </trkpt>
      <trkpt lat="50.63006" lon="3.03029">
        <ele>48.4</ele>
        <time>2018-05-11T14:24:47Z</time>
      </trkpt>
      <trkpt lat="50.63021" lon="3.03046">
        <ele>48</ele>
        <time>2018-05-11T14:24:51Z</time>
      </trkpt>
      <trkpt lat="50.63036" lon="3.03061">
        <ele>47.4</ele>
        <time>2018-05-11T14:24:55Z</time>
      </trkpt>
      <trkpt lat="50.63049" lon="3.03073">
        <ele>47.4</ele>
        <time>2018-05-11T14:24:59Z</time>
      </trkpt>
      <trkpt lat="50.63063" lon="3.03088">
        <ele>47.4</ele>
        <time>2018-05-11T14:25:03Z</time>
      </trkpt>
      <trkpt lat="50.63075" lon="3.03102">
        <ele>48.2</ele>
        <time>2018-05-11T14:25:07Z</time>
      </trkpt>
      <trkpt lat="50.63085" lon="3.03113">
        <ele>48.2</ele>
        <time>2018-05-11T14:25:11Z</time>
      </trkpt>
      <trkpt lat="50.63094" lon="3.03124">
        <ele>49</ele>
        <time>2018-05-11T14:25:15Z</time>
      </trkpt>
      <trkpt lat="50.63105" lon="3.03132">
        <ele>49.6</ele>
        <time>2018-05-11T14:25:19Z</time>
      </trkpt>
      <trkpt lat="50.63116" lon="3.03145">
        <ele>49.8</ele>
        <time>2018-05-11T14:25:23Z</time>
      </trkpt>
      <trkpt lat="50.63126" lon="3.03159">
        <ele>50.6</ele>
        <time>2018-05-11T14:25:27Z</time>
      </trkpt>
      <trkpt lat="50.63137" lon="3.03173">
        <ele>51.2</ele>
        <time>2018-05-11T14:25:31Z</time>
      </trkpt>
      <trkpt lat="50.63146" lon="3.03187">
        <ele>51.4</ele>
        <time>2018-05-11T14:25:35Z</time>
      </trkpt>
      <trkpt lat="50.63155" lon="3.03201">
        <ele>52.6</ele>
        <time>2018-05-11T14:25:39Z</time>
      </trkpt>
      <trkpt lat="50.63164" lon="3.03216">
        <ele>53.6</ele>
        <time>2018-05-11T14:25:43Z</time>
      </trkpt>
      <trkpt lat="50.63168" lon="3.03235">
        <ele>54.2</ele>
        <time>2018-05-11T14:25:47Z</time>
      </trkpt>
      <trkpt lat="50.63168" lon="3.03251">
        <ele>54.4</ele>
        <time>2018-05-11T14:25:51Z</time>
      </trkpt>
      <trkpt lat="50.63161" lon="3.03264">
        <ele>54.8</ele>
        <time>2018-05-11T14:25:55Z</time>
      </trkpt>
      <trkpt lat="50.63154" lon="3.03278">
        <ele>54.8</ele>
        <time>2018-05-11T14:25:59Z</time>
      </trkpt>
      <trkpt lat="50.63146" lon="3.03294">
        <ele>54.6</ele>
        <time>2018-05-11T14:26:03Z</time>
      </trkpt>
      <trkpt lat="50.63137" lon="3.0331">
        <ele>54.2</ele>
        <time>2018-05-11T14:26:07Z</time>
      </trkpt>
      <trkpt lat="50.63127" lon="3.03327">
        <ele>53.8</ele>
        <time>2018-05-11T14:26:11Z</time>
      </trkpt>
      <trkpt lat="50.63115" lon="3.03346">
        <ele>53.6</ele>
        <time>2018-05-11T14:26:15Z</time>
      </trkpt>
      <trkpt lat="50.63102" lon="3.03369">
        <ele>52.2</ele>
        <time>2018-05-11T14:26:19Z</time>
      </trkpt>
      <trkpt lat="50.63087" lon="3.03396">
        <ele>51.4</ele>
        <time>2018-05-11T14:26:23Z</time>
      </trkpt>
      <trkpt lat="50.63075" lon="3.03419">
        <ele>50.4</ele>
        <time>2018-05-11T14:26:27Z</time>
      </trkpt>
      <trkpt lat="50.63063" lon="3.03437">
        <ele>50.4</ele>
        <time>2018-05-11T14:26:31Z</time>
      </trkpt>
      <trkpt lat="50.63053" lon="3.0345">
        <ele>49.8</ele>
        <time>2018-05-11T14:26:35Z</time>
      </trkpt>
      <trkpt lat="50.63046" lon="3.03456">
        <ele>50</ele>
        <time>2018-05-11T14:26:39Z</time>
      </trkpt>
      <trkpt lat="50.63041" lon="3.0347">
        <ele>50</ele>
        <time>2018-05-11T14:26:43Z</time>
      </trkpt>
      <trkpt lat="50.63038" lon="3.03478">
        <ele>49.6</ele>
        <time>2018-05-11T14:26:47Z</time>
      </trkpt>
      <trkpt lat="50.63036" lon="3.03484">
        <ele>49.2</ele>
        <time>2018-05-11T14:27:19Z</time>
      </trkpt>
      <trkpt lat="50.63029" lon="3.03494">
        <ele>48.6</ele>
        <time>2018-05-11T14:27:23Z</time>
      </trkpt>
      <trkpt lat="50.63023" lon="3.03508">
        <ele>48.6</ele>
        <time>2018-05-11T14:27:27Z</time>
      </trkpt>
      <trkpt lat="50.63016" lon="3.03525">
        <ele>48.6</ele>
        <time>2018-05-11T14:27:31Z</time>
      </trkpt>
      <trkpt lat="50.63006" lon="3.03542">
        <ele>48.4</ele>
        <time>2018-05-11T14:27:35Z</time>
      </trkpt>
      <trkpt lat="50.62995" lon="3.03558">
        <ele>48.6</ele>
        <time>2018-05-11T14:27:39Z</time>
      </trkpt>
      <trkpt lat="50.62983" lon="3.03573">
        <ele>48.6</ele>
        <time>2018-05-11T14:27:43Z</time>
      </trkpt>
      <trkpt lat="50.6297" lon="3.03589">
        <ele>48.6</ele>
        <time>2018-05-11T14:27:47Z</time>
      </trkpt>
      <trkpt lat="50.62957" lon="3.03608">
        <ele>49</ele>
        <time>2018-05-11T14:27:51Z</time>
      </trkpt>
      <trkpt lat="50.62944" lon="3.03628">
        <ele>48.6</ele>
        <time>2018-05-11T14:27:55Z</time>
      </trkpt>
      <trkpt lat="50.6293" lon="3.03643">
        <ele>49</ele>
        <time>2018-05-11T14:27:59Z</time>
      </trkpt>
      <trkpt lat="50.62917" lon="3.03657">
        <ele>48.2</ele>
        <time>2018-05-11T14:28:03Z</time>
      </trkpt>
      <trkpt lat="50.62905" lon="3.03674">
        <ele>48.6</ele>
        <time>2018-05-11T14:28:07Z</time>
      </trkpt>
      <trkpt lat="50.62891" lon="3.03693">
        <ele>48.6</ele>
        <time>2018-05-11T14:28:11Z</time>
      </trkpt>
      <trkpt lat="50.62876" lon="3.03711">
        <ele>48.6</ele>
        <time>2018-05-11T14:28:15Z</time>
      </trkpt>
      <trkpt lat="50.6286" lon="3.03727">
        <ele>48.4</ele>
        <time>2018-05-11T14:28:19Z</time>
      </trkpt>
      <trkpt lat="50.62846" lon="3.03746">
        <ele>48.8</ele>
        <time>2018-05-11T14:28:23Z</time>
      </trkpt>
      <trkpt lat="50.62831" lon="3.03763">
        <ele>48.6</ele>
        <time>2018-05-11T14:28:27Z</time>
      </trkpt>
      <trkpt lat="50.62818" lon="3.0378">
        <ele>48.6</ele>
        <time>2018-05-11T14:28:31Z</time>
      </trkpt>
      <trkpt lat="50.62806" lon="3.03798">
        <ele>48.6</ele>
        <time>2018-05-11T14:28:35Z</time>
      </trkpt>
      <trkpt lat="50.62795" lon="3.03816">
        <ele>48.6</ele>
        <time>2018-05-11T14:28:39Z</time>
      </trkpt>
      <trkpt lat="50.62782" lon="3.03833">
        <ele>48.6</ele>
        <time>2018-05-11T14:28:43Z</time>
      </trkpt>
      <trkpt lat="50.62769" lon="3.0385">
        <ele>48.4</ele>
        <time>2018-05-11T14:28:47Z</time>
      </trkpt>
      <trkpt lat="50.62759" lon="3.03865">
        <ele>48.4</ele>
        <time>2018-05-11T14:28:51Z</time>
      </trkpt>
      <trkpt lat="50.62751" lon="3.03876">
        <ele>48.4</ele>
        <time>2018-05-11T14:28:55Z</time>
      </trkpt>
      <trkpt lat="50.62743" lon="3.03888">
        <ele>48</ele>
        <time>2018-05-11T14:29:35Z</time>
      </trkpt>
      <trkpt lat="50.62736" lon="3.03895">
        <ele>48.4</ele>
        <time>2018-05-11T14:29:39Z</time>
      </trkpt>
      <trkpt lat="50.62722" lon="3.03907">
        <ele>48</ele>
        <time>2018-05-11T14:29:43Z</time>
      </trkpt>
      <trkpt lat="50.62708" lon="3.03923">
        <ele>49</ele>
        <time>2018-05-11T14:29:47Z</time>
      </trkpt>
      <trkpt lat="50.62695" lon="3.03938">
        <ele>48.8</ele>
        <time>2018-05-11T14:29:51Z</time>
      </trkpt>
      <trkpt lat="50.62682" lon="3.03955">
        <ele>48.2</ele>
        <time>2018-05-11T14:29:55Z</time>
      </trkpt>
      <trkpt lat="50.6267" lon="3.03973">
        <ele>48.2</ele>
        <time>2018-05-11T14:29:59Z</time>
      </trkpt>
      <trkpt lat="50.62656" lon="3.03989">
        <ele>48</ele>
        <time>2018-05-11T14:30:03Z</time>
      </trkpt>
      <trkpt lat="50.6264" lon="3.04002">
        <ele>48.8</ele>
        <time>2018-05-11T14:30:07Z</time>
      </trkpt>
      <trkpt lat="50.62623" lon="3.04021">
        <ele>48.6</ele>
        <time>2018-05-11T14:30:11Z</time>
      </trkpt>
      <trkpt lat="50.62604" lon="3.04043">
        <ele>48.8</ele>
        <time>2018-05-11T14:30:15Z</time>
      </trkpt>
      <trkpt lat="50.62589" lon="3.04064">
        <ele>48.8</ele>
        <time>2018-05-11T14:30:19Z</time>
      </trkpt>
      <trkpt lat="50.62572" lon="3.04085">
        <ele>48.8</ele>
        <time>2018-05-11T14:30:23Z</time>
      </trkpt>
      <trkpt lat="50.62557" lon="3.04104">
        <ele>48.8</ele>
        <time>2018-05-11T14:30:27Z</time>
      </trkpt>
      <trkpt lat="50.62541" lon="3.0412">
        <ele>49.6</ele>
        <time>2018-05-11T14:30:31Z</time>
      </trkpt>
      <trkpt lat="50.62525" lon="3.04138">
        <ele>50</ele>
        <time>2018-05-11T14:30:35Z</time>
      </trkpt>
      <trkpt lat="50.62511" lon="3.04155">
        <ele>50</ele>
        <time>2018-05-11T14:30:39Z</time>
      </trkpt>
      <trkpt lat="50.62496" lon="3.04172">
        <ele>50.4</ele>
        <time>2018-05-11T14:30:43Z</time>
      </trkpt>
      <trkpt lat="50.62481" lon="3.04191">
        <ele>50.4</ele>
        <time>2018-05-11T14:30:47Z</time>
      </trkpt>
      <trkpt lat="50.62466" lon="3.0421">
        <ele>50.8</ele>
        <time>2018-05-11T14:30:51Z</time>
      </trkpt>
      <trkpt lat="50.62451" lon="3.04229">
        <ele>51</ele>
        <time>2018-05-11T14:30:55Z</time>
      </trkpt>
      <trkpt lat="50.62436" lon="3.04246">
        <ele>52</ele>
        <time>2018-05-11T14:30:59Z</time>
      </trkpt>
      <trkpt lat="50.62421" lon="3.04266">
        <ele>51.4</ele>
        <time>2018-05-11T14:31:03Z</time>
      </trkpt>
      <trkpt lat="50.62408" lon="3.04283">
        <ele>52</ele>
        <time>2018-05-11T14:31:07Z</time>
      </trkpt>
      <trkpt lat="50.624" lon="3.04295">
        <ele>52</ele>
        <time>2018-05-11T14:31:11Z</time>
      </trkpt>
      <trkpt lat="50.6239" lon="3.04303">
        <ele>52.4</ele>
        <time>2018-05-11T14:31:55Z</time>
      </trkpt>
      <trkpt lat="50.62384" lon="3.0431">
        <ele>52.6</ele>
        <time>2018-05-11T14:31:59Z</time>
      </trkpt>
      <trkpt lat="50.62376" lon="3.04318">
        <ele>52.4</ele>
        <time>2018-05-11T14:32:03Z</time>
      </trkpt>
      <trkpt lat="50.62365" lon="3.04333">
        <ele>53.2</ele>
        <time>2018-05-11T14:32:07Z</time>
      </trkpt>
      <trkpt lat="50.62353" lon="3.04348">
        <ele>53</ele>
        <time>2018-05-11T14:32:11Z</time>
      </trkpt>
      <trkpt lat="50.6234" lon="3.04363">
        <ele>52.6</ele>
        <time>2018-05-11T14:32:15Z</time>
      </trkpt>
      <trkpt lat="50.62328" lon="3.0438">
        <ele>53.2</ele>
        <time>2018-05-11T14:32:19Z</time>
      </trkpt>
      <trkpt lat="50.62314" lon="3.04396">
        <ele>52.4</ele>
        <time>2018-05-11T14:32:23Z</time>
      </trkpt>
      <trkpt lat="50.62301" lon="3.04413">
        <ele>53</ele>
        <time>2018-05-11T14:32:27Z</time>
      </trkpt>
      <trkpt lat="50.62289" lon="3.0443">
        <ele>53.6</ele>
        <time>2018-05-11T14:32:31Z</time>
      </trkpt>
      <trkpt lat="50.62277" lon="3.04446">
        <ele>53.8</ele>
        <time>2018-05-11T14:32:35Z</time>
      </trkpt>
      <trkpt lat="50.62265" lon="3.04461">
        <ele>53.4</ele>
        <time>2018-05-11T14:32:39Z</time>
      </trkpt>
      <trkpt lat="50.62252" lon="3.0448">
        <ele>54</ele>
        <time>2018-05-11T14:32:43Z</time>
      </trkpt>
      <trkpt lat="50.62236" lon="3.04497">
        <ele>54.2</ele>
        <time>2018-05-11T14:32:47Z</time>
      </trkpt>
      <trkpt lat="50.62222" lon="3.04514">
        <ele>53.8</ele>
        <time>2018-05-11T14:32:51Z</time>
      </trkpt>
      <trkpt lat="50.62209" lon="3.04531">
        <ele>54.2</ele>
        <time>2018-05-11T14:32:55Z</time>
      </trkpt>
      <trkpt lat="50.62198" lon="3.04544">
        <ele>54.8</ele>
        <time>2018-05-11T14:32:59Z</time>
      </trkpt>
      <trkpt lat="50.62192" lon="3.04553">
        <ele>54.8</ele>
        <time>2018-05-11T14:33:03Z</time>
      </trkpt>
      <trkpt lat="50.62188" lon="3.04556">
        <ele>54.8</ele>
        <time>2018-05-11T14:33:19Z</time>
      </trkpt>
      <trkpt lat="50.62181" lon="3.04564">
        <ele>53.8</ele>
        <time>2018-05-11T14:33:23Z</time>
      </trkpt>
      <trkpt lat="50.62171" lon="3.04573">
        <ele>54.2</ele>
        <time>2018-05-11T14:33:27Z</time>
      </trkpt>
      <trkpt lat="50.6216" lon="3.04586">
        <ele>53.2</ele>
        <time>2018-05-11T14:33:31Z</time>
      </trkpt>
      <trkpt lat="50.62149" lon="3.04602">
        <ele>54.8</ele>
        <time>2018-05-11T14:33:35Z</time>
      </trkpt>
      <trkpt lat="50.62137" lon="3.04619">
        <ele>54.4</ele>
        <time>2018-05-11T14:33:39Z</time>
      </trkpt>
      <trkpt lat="50.62123" lon="3.04638">
        <ele>54.6</ele>
        <time>2018-05-11T14:33:43Z</time>
      </trkpt>
      <trkpt lat="50.62108" lon="3.04656">
        <ele>55</ele>
        <time>2018-05-11T14:33:47Z</time>
      </trkpt>
      <trkpt lat="50.62094" lon="3.04674">
        <ele>54.2</ele>
        <time>2018-05-11T14:33:51Z</time>
      </trkpt>
      <trkpt lat="50.6208" lon="3.04693">
        <ele>54.8</ele>
        <time>2018-05-11T14:33:55Z</time>
      </trkpt>
      <trkpt lat="50.62066" lon="3.04709">
        <ele>55</ele>
        <time>2018-05-11T14:33:59Z</time>
      </trkpt>
      <trkpt lat="50.62053" lon="3.04723">
        <ele>54.8</ele>
        <time>2018-05-11T14:34:03Z</time>
      </trkpt>
      <trkpt lat="50.6204" lon="3.04736">
        <ele>55.2</ele>
        <time>2018-05-11T14:34:07Z</time>
      </trkpt>
      <trkpt lat="50.62028" lon="3.04752">
        <ele>54.8</ele>
        <time>2018-05-11T14:34:11Z</time>
      </trkpt>
      <trkpt lat="50.62013" lon="3.04768">
        <ele>55.4</ele>
        <time>2018-05-11T14:34:15Z</time>
      </trkpt>
      <trkpt lat="50.61999" lon="3.04784">
        <ele>55</ele>
        <time>2018-05-11T14:34:19Z</time>
      </trkpt>
      <trkpt lat="50.61987" lon="3.04797">
        <ele>55.2</ele>
        <time>2018-05-11T14:34:23Z</time>
      </trkpt>
      <trkpt lat="50.61974" lon="3.04818">
        <ele>54.8</ele>
        <time>2018-05-11T14:34:27Z</time>
      </trkpt>
      <trkpt lat="50.61961" lon="3.04836">
        <ele>54.6</ele>
        <time>2018-05-11T14:34:31Z</time>
      </trkpt>
      <trkpt lat="50.61948" lon="3.04854">
        <ele>54.8</ele>
        <time>2018-05-11T14:34:35Z</time>
      </trkpt>
      <trkpt lat="50.61932" lon="3.04877">
        <ele>55.2</ele>
        <time>2018-05-11T14:34:39Z</time>
      </trkpt>
      <trkpt lat="50.61917" lon="3.04896">
        <ele>55.2</ele>
        <time>2018-05-11T14:34:43Z</time>
      </trkpt>
      <trkpt lat="50.61903" lon="3.04915">
        <ele>55.2</ele>
        <time>2018-05-11T14:34:47Z</time>
      </trkpt>
      <trkpt lat="50.61891" lon="3.04931">
        <ele>55.4</ele>
        <time>2018-05-11T14:34:51Z</time>
      </trkpt>
      <trkpt lat="50.6188" lon="3.04939">
        <ele>55</ele>
        <time>2018-05-11T14:34:55Z</time>
      </trkpt>
      <trkpt lat="50.6187" lon="3.04937">
        <ele>55.4</ele>
        <time>2018-05-11T14:34:59Z</time>
      </trkpt>
      <trkpt lat="50.61857" lon="3.04933">
        <ele>55.4</ele>
        <time>2018-05-11T14:35:03Z</time>
      </trkpt>
      <trkpt lat="50.61846" lon="3.04929">
        <ele>55.4</ele>
        <time>2018-05-11T14:35:07Z</time>
      </trkpt>
      <trkpt lat="50.61835" lon="3.04928">
        <ele>55.4</ele>
        <time>2018-05-11T14:35:11Z</time>
      </trkpt>
      <trkpt lat="50.61823" lon="3.0493">
        <ele>56.2</ele>
        <time>2018-05-11T14:35:15Z</time>
      </trkpt>
      <trkpt lat="50.61814" lon="3.04935">
        <ele>56.2</ele>
        <time>2018-05-11T14:35:19Z</time>
      </trkpt>
      <trkpt lat="50.61807" lon="3.04941">
        <ele>56.2</ele>
        <time>2018-05-11T14:35:23Z</time>
      </trkpt>
      <trkpt lat="50.61801" lon="3.04951">
        <ele>56.6</ele>
        <time>2018-05-11T14:35:27Z</time>
      </trkpt>
      <trkpt lat="50.61797" lon="3.04959">
        <ele>56.8</ele>
        <time>2018-05-11T14:35:31Z</time>
      </trkpt>
      <trkpt lat="50.61788" lon="3.04965">
        <ele>56.8</ele>
        <time>2018-05-11T14:35:35Z</time>
      </trkpt>
      <trkpt lat="50.61781" lon="3.04954">
        <ele>58.2</ele>
        <time>2018-05-11T14:35:39Z</time>
      </trkpt>
      <trkpt lat="50.61773" lon="3.04942">
        <ele>58.2</ele>
        <time>2018-05-11T14:35:43Z</time>
      </trkpt>
      <trkpt lat="50.61765" lon="3.04928">
        <ele>58.6</ele>
        <time>2018-05-11T14:35:47Z</time>
      </trkpt>
      <trkpt lat="50.61757" lon="3.04913">
        <ele>58.6</ele>
        <time>2018-05-11T14:35:51Z</time>
      </trkpt>
      <trkpt lat="50.6175" lon="3.04899">
        <ele>59</ele>
        <time>2018-05-11T14:35:55Z</time>
      </trkpt>
      <trkpt lat="50.61742" lon="3.04884">
        <ele>59.6</ele>
        <time>2018-05-11T14:35:59Z</time>
      </trkpt>
      <trkpt lat="50.61734" lon="3.04867">
        <ele>60.8</ele>
        <time>2018-05-11T14:36:03Z</time>
      </trkpt>
      <trkpt lat="50.61723" lon="3.04854">
        <ele>61</ele>
        <time>2018-05-11T14:36:07Z</time>
      </trkpt>
      <trkpt lat="50.61711" lon="3.04841">
        <ele>61.6</ele>
        <time>2018-05-11T14:36:11Z</time>
      </trkpt>
      <trkpt lat="50.61698" lon="3.04834">
        <ele>61.6</ele>
        <time>2018-05-11T14:36:15Z</time>
      </trkpt>
      <trkpt lat="50.61684" lon="3.04831">
        <ele>62.2</ele>
        <time>2018-05-11T14:36:19Z</time>
      </trkpt>
      <trkpt lat="50.6167" lon="3.04832">
        <ele>63</ele>
        <time>2018-05-11T14:36:23Z</time>
      </trkpt>
      <trkpt lat="50.61658" lon="3.04835">
        <ele>63.4</ele>
        <time>2018-05-11T14:36:27Z</time>
      </trkpt>
      <trkpt lat="50.61645" lon="3.04837">
        <ele>63.6</ele>
        <time>2018-05-11T14:36:31Z</time>
      </trkpt>
      <trkpt lat="50.61635" lon="3.04849">
        <ele>63.2</ele>
        <time>2018-05-11T14:36:35Z</time>
      </trkpt>
      <trkpt lat="50.61632" lon="3.0487">
        <ele>62.8</ele>
        <time>2018-05-11T14:36:39Z</time>
      </trkpt>
      <trkpt lat="50.6163" lon="3.04892">
        <ele>62.6</ele>
        <time>2018-05-11T14:36:43Z</time>
      </trkpt>
      <trkpt lat="50.61628" lon="3.04915">
        <ele>63</ele>
        <time>2018-05-11T14:36:47Z</time>
      </trkpt>
      <trkpt lat="50.61626" lon="3.0494">
        <ele>63.2</ele>
        <time>2018-05-11T14:36:51Z</time>
      </trkpt>
      <trkpt lat="50.61624" lon="3.04965">
        <ele>62.4</ele>
        <time>2018-05-11T14:36:55Z</time>
      </trkpt>
      <trkpt lat="50.61622" lon="3.04991">
        <ele>62.8</ele>
        <time>2018-05-11T14:36:59Z</time>
      </trkpt>
      <trkpt lat="50.6162" lon="3.05017">
        <ele>62.4</ele>
        <time>2018-05-11T14:37:03Z</time>
      </trkpt>
      <trkpt lat="50.61618" lon="3.0504">
        <ele>61.8</ele>
        <time>2018-05-11T14:37:07Z</time>
      </trkpt>
      <trkpt lat="50.61616" lon="3.05064">
        <ele>62.2</ele>
        <time>2018-05-11T14:37:11Z</time>
      </trkpt>
      <trkpt lat="50.61613" lon="3.05082">
        <ele>62</ele>
        <time>2018-05-11T14:37:15Z</time>
      </trkpt>
      <trkpt lat="50.6161" lon="3.05085">
        <ele>62.2</ele>
        <time>2018-05-11T14:37:19Z</time>
      </trkpt>
      <trkpt lat="50.61603" lon="3.05082">
        <ele>61.4</ele>
        <time>2018-05-11T14:37:23Z</time>
      </trkpt>
      <trkpt lat="50.61591" lon="3.0508">
        <ele>60.8</ele>
        <time>2018-05-11T14:37:27Z</time>
      </trkpt>
      <trkpt lat="50.61577" lon="3.05079">
        <ele>59.8</ele>
        <time>2018-05-11T14:37:31Z</time>
      </trkpt>
      <trkpt lat="50.6157" lon="3.05085">
        <ele>59.8</ele>
        <time>2018-05-11T14:37:35Z</time>
      </trkpt>
      <trkpt lat="50.61569" lon="3.05099">
        <ele>59.2</ele>
        <time>2018-05-11T14:37:39Z</time>
      </trkpt>
      <trkpt lat="50.61567" lon="3.05119">
        <ele>59.4</ele>
        <time>2018-05-11T14:37:43Z</time>
      </trkpt>
      <trkpt lat="50.61564" lon="3.05144">
        <ele>59.4</ele>
        <time>2018-05-11T14:37:47Z</time>
      </trkpt>
      <trkpt lat="50.61561" lon="3.05169">
        <ele>59.2</ele>
        <time>2018-05-11T14:37:51Z</time>
      </trkpt>
      <trkpt lat="50.6156" lon="3.05194">
        <ele>58.8</ele>
        <time>2018-05-11T14:37:55Z</time>
      </trkpt>
      <trkpt lat="50.61557" lon="3.05219">
        <ele>59.2</ele>
        <time>2018-05-11T14:37:59Z</time>
      </trkpt>
      <trkpt lat="50.61555" lon="3.05246">
        <ele>58.8</ele>
        <time>2018-05-11T14:38:03Z</time>
      </trkpt>
      <trkpt lat="50.61553" lon="3.05272">
        <ele>59</ele>
        <time>2018-05-11T14:38:07Z</time>
      </trkpt>
      <trkpt lat="50.61553" lon="3.05295">
        <ele>59.2</ele>
        <time>2018-05-11T14:38:11Z</time>
      </trkpt>
      <trkpt lat="50.6155" lon="3.05311">
        <ele>58.8</ele>
        <time>2018-05-11T14:38:15Z</time>
      </trkpt>
      <trkpt lat="50.61538" lon="3.05313">
        <ele>58.2</ele>
        <time>2018-05-11T14:38:19Z</time>
      </trkpt>
      <trkpt lat="50.61526" lon="3.05312">
        <ele>59.2</ele>
        <time>2018-05-11T14:38:23Z</time>
      </trkpt>
      <trkpt lat="50.61513" lon="3.0531">
        <ele>59</ele>
        <time>2018-05-11T14:38:27Z</time>
      </trkpt>
      <trkpt lat="50.61503" lon="3.05308">
        <ele>58.4</ele>
        <time>2018-05-11T14:38:31Z</time>
      </trkpt>
      <trkpt lat="50.61496" lon="3.05317">
        <ele>58.2</ele>
        <time>2018-05-11T14:38:35Z</time>
      </trkpt>
      <trkpt lat="50.61492" lon="3.05335">
        <ele>58.4</ele>
        <time>2018-05-11T14:38:39Z</time>
      </trkpt>
      <trkpt lat="50.61488" lon="3.05356">
        <ele>59</ele>
        <time>2018-05-11T14:38:43Z</time>
      </trkpt>
      <trkpt lat="50.61486" lon="3.05379">
        <ele>59.4</ele>
        <time>2018-05-11T14:38:47Z</time>
      </trkpt>
      <trkpt lat="50.61483" lon="3.05403">
        <ele>59.6</ele>
        <time>2018-05-11T14:38:51Z</time>
      </trkpt>
      <trkpt lat="50.61481" lon="3.05429">
        <ele>59.6</ele>
        <time>2018-05-11T14:38:55Z</time>
      </trkpt>
      <trkpt lat="50.61479" lon="3.05454">
        <ele>59.4</ele>
        <time>2018-05-11T14:38:59Z</time>
      </trkpt>
      <trkpt lat="50.61476" lon="3.05482">
        <ele>59.6</ele>
        <time>2018-05-11T14:39:03Z</time>
      </trkpt>
      <trkpt lat="50.61474" lon="3.05511">
        <ele>59.4</ele>
        <time>2018-05-11T14:39:07Z</time>
      </trkpt>
      <trkpt lat="50.61471" lon="3.0554">
        <ele>59</ele>
        <time>2018-05-11T14:39:11Z</time>
      </trkpt>
      <trkpt lat="50.61468" lon="3.05569">
        <ele>59.4</ele>
        <time>2018-05-11T14:39:15Z</time>
      </trkpt>
      <trkpt lat="50.61466" lon="3.05596">
        <ele>60</ele>
        <time>2018-05-11T14:39:19Z</time>
      </trkpt>
      <trkpt lat="50.61464" lon="3.05622">
        <ele>59.4</ele>
        <time>2018-05-11T14:39:23Z</time>
      </trkpt>
      <trkpt lat="50.61462" lon="3.05649">
        <ele>59.8</ele>
        <time>2018-05-11T14:39:27Z</time>
      </trkpt>
      <trkpt lat="50.61459" lon="3.05678">
        <ele>60</ele>
        <time>2018-05-11T14:39:31Z</time>
      </trkpt>
      <trkpt lat="50.61456" lon="3.05706">
        <ele>60.2</ele>
        <time>2018-05-11T14:39:35Z</time>
      </trkpt>
      <trkpt lat="50.61455" lon="3.05736">
        <ele>59.6</ele>
        <time>2018-05-11T14:39:39Z</time>
      </trkpt>
      <trkpt lat="50.61454" lon="3.05765">
        <ele>59.4</ele>
        <time>2018-05-11T14:39:43Z</time>
      </trkpt>
      <trkpt lat="50.61454" lon="3.05793">
        <ele>59.6</ele>
        <time>2018-05-11T14:39:47Z</time>
      </trkpt>
      <trkpt lat="50.61452" lon="3.05824">
        <ele>59.2</ele>
        <time>2018-05-11T14:39:51Z</time>
      </trkpt>
      <trkpt lat="50.61449" lon="3.05855">
        <ele>59.2</ele>
        <time>2018-05-11T14:39:55Z</time>
      </trkpt>
      <trkpt lat="50.61448" lon="3.05883">
        <ele>59.2</ele>
        <time>2018-05-11T14:39:59Z</time>
      </trkpt>
      <trkpt lat="50.61447" lon="3.05912">
        <ele>59</ele>
        <time>2018-05-11T14:40:03Z</time>
      </trkpt>
      <trkpt lat="50.61444" lon="3.05942">
        <ele>59.2</ele>
        <time>2018-05-11T14:40:07Z</time>
      </trkpt>
      <trkpt lat="50.6144" lon="3.05971">
        <ele>59.6</ele>
        <time>2018-05-11T14:40:11Z</time>
      </trkpt>
      <trkpt lat="50.61436" lon="3.05998">
        <ele>60</ele>
        <time>2018-05-11T14:40:15Z</time>
      </trkpt>
      <trkpt lat="50.61433" lon="3.06026">
        <ele>59.4</ele>
        <time>2018-05-11T14:40:19Z</time>
      </trkpt>
      <trkpt lat="50.6143" lon="3.06054">
        <ele>59.6</ele>
        <time>2018-05-11T14:40:23Z</time>
      </trkpt>
      <trkpt lat="50.61425" lon="3.06082">
        <ele>59.6</ele>
        <time>2018-05-11T14:40:27Z</time>
      </trkpt>
      <trkpt lat="50.61422" lon="3.06107">
        <ele>60.2</ele>
        <time>2018-05-11T14:40:31Z</time>
      </trkpt>
      <trkpt lat="50.61419" lon="3.06129">
        <ele>59.8</ele>
        <time>2018-05-11T14:40:35Z</time>
      </trkpt>
      <trkpt lat="50.61416" lon="3.06151">
        <ele>60</ele>
        <time>2018-05-11T14:40:39Z</time>
      </trkpt>
      <trkpt lat="50.61414" lon="3.06175">
        <ele>60.2</ele>
        <time>2018-05-11T14:40:43Z</time>
      </trkpt>
      <trkpt lat="50.61413" lon="3.06197">
        <ele>59.6</ele>
        <time>2018-05-11T14:40:47Z</time>
      </trkpt>
      <trkpt lat="50.61412" lon="3.06217">
        <ele>59.8</ele>
        <time>2018-05-11T14:40:51Z</time>
      </trkpt>
      <trkpt lat="50.61411" lon="3.06231">
        <ele>59.6</ele>
        <time>2018-05-11T14:40:55Z</time>
      </trkpt>
      <trkpt lat="50.61411" lon="3.06242">
        <ele>59.6</ele>
        <time>2018-05-11T14:40:59Z</time>
      </trkpt>
      <trkpt lat="50.61407" lon="3.06247">
        <ele>59.4</ele>
        <time>2018-05-11T14:41:03Z</time>
      </trkpt>
      <trkpt lat="50.61397" lon="3.06244">
        <ele>59.6</ele>
        <time>2018-05-11T14:41:07Z</time>
      </trkpt>
      <trkpt lat="50.61386" lon="3.06244">
        <ele>59.6</ele>
        <time>2018-05-11T14:41:11Z</time>
      </trkpt>
      <trkpt lat="50.61375" lon="3.06245">
        <ele>59.6</ele>
        <time>2018-05-11T14:41:15Z</time>
      </trkpt>
      <trkpt lat="50.61366" lon="3.06244">
        <ele>59.4</ele>
        <time>2018-05-11T14:41:19Z</time>
      </trkpt>
      <trkpt lat="50.61362" lon="3.06248">
        <ele>59.6</ele>
        <time>2018-05-11T14:41:27Z</time>
      </trkpt>
      <trkpt lat="50.61363" lon="3.06246">
        <ele>59.6</ele>
        <time>2018-05-11T14:41:31Z</time>
      </trkpt>
      <trkpt lat="50.61361" lon="3.06251">
        <ele>59.2</ele>
        <time>2018-05-11T14:41:39Z</time>
      </trkpt>
      <trkpt lat="50.61362" lon="3.06256">
        <ele>59.4</ele>
        <time>2018-05-11T14:41:43Z</time>
      </trkpt>
      <trkpt lat="50.61362" lon="3.06266">
        <ele>59.4</ele>
        <time>2018-05-11T14:41:47Z</time>
      </trkpt>
      <trkpt lat="50.61366" lon="3.06278">
        <ele>59.4</ele>
        <time>2018-05-11T14:41:51Z</time>
      </trkpt>
      <trkpt lat="50.61364" lon="3.06293">
        <ele>59.8</ele>
        <time>2018-05-11T14:41:55Z</time>
      </trkpt>
      <trkpt lat="50.6136" lon="3.0631">
        <ele>59.6</ele>
        <time>2018-05-11T14:41:59Z</time>
      </trkpt>
      <trkpt lat="50.61358" lon="3.06327">
        <ele>59.6</ele>
        <time>2018-05-11T14:42:03Z</time>
      </trkpt>
      <trkpt lat="50.61357" lon="3.06342">
        <ele>59.4</ele>
        <time>2018-05-11T14:42:07Z</time>
      </trkpt>
      <trkpt lat="50.61351" lon="3.06358">
        <ele>59.6</ele>
        <time>2018-05-11T14:42:11Z</time>
      </trkpt>
      <trkpt lat="50.61349" lon="3.06378">
        <ele>59.8</ele>
        <time>2018-05-11T14:42:15Z</time>
      </trkpt>
      <trkpt lat="50.61349" lon="3.06399">
        <ele>60.2</ele>
        <time>2018-05-11T14:42:19Z</time>
      </trkpt>
      <trkpt lat="50.61346" lon="3.06422">
        <ele>60.2</ele>
        <time>2018-05-11T14:42:23Z</time>
      </trkpt>
      <trkpt lat="50.61343" lon="3.06441">
        <ele>60</ele>
        <time>2018-05-11T14:42:27Z</time>
      </trkpt>
      <trkpt lat="50.61339" lon="3.06464">
        <ele>60.4</ele>
        <time>2018-05-11T14:42:31Z</time>
      </trkpt>
      <trkpt lat="50.61336" lon="3.06485">
        <ele>60.2</ele>
        <time>2018-05-11T14:42:35Z</time>
      </trkpt>
      <trkpt lat="50.61334" lon="3.06508">
        <ele>60.4</ele>
        <time>2018-05-11T14:42:39Z</time>
      </trkpt>
      <trkpt lat="50.61332" lon="3.06532">
        <ele>60.2</ele>
        <time>2018-05-11T14:42:43Z</time>
      </trkpt>
      <trkpt lat="50.61329" lon="3.06557">
        <ele>60.2</ele>
        <time>2018-05-11T14:42:47Z</time>
      </trkpt>
      <trkpt lat="50.61327" lon="3.06583">
        <ele>60.2</ele>
        <time>2018-05-11T14:42:51Z</time>
      </trkpt>
      <trkpt lat="50.61325" lon="3.06607">
        <ele>59.8</ele>
        <time>2018-05-11T14:42:55Z</time>
      </trkpt>
      <trkpt lat="50.61322" lon="3.06628">
        <ele>60</ele>
        <time>2018-05-11T14:42:59Z</time>
      </trkpt>
      <trkpt lat="50.6132" lon="3.06645">
        <ele>60.2</ele>
        <time>2018-05-11T14:43:03Z</time>
      </trkpt>
      <trkpt lat="50.6132" lon="3.06655">
        <ele>59.8</ele>
        <time>2018-05-11T14:43:07Z</time>
      </trkpt>
      <trkpt lat="50.61318" lon="3.06671">
        <ele>59.8</ele>
        <time>2018-05-11T14:43:11Z</time>
      </trkpt>
      <trkpt lat="50.61316" lon="3.06693">
        <ele>59.8</ele>
        <time>2018-05-11T14:43:15Z</time>
      </trkpt>
      <trkpt lat="50.61314" lon="3.06718">
        <ele>59.2</ele>
        <time>2018-05-11T14:43:19Z</time>
      </trkpt>
      <trkpt lat="50.61311" lon="3.06746">
        <ele>59.2</ele>
        <time>2018-05-11T14:43:23Z</time>
      </trkpt>
      <trkpt lat="50.61309" lon="3.06774">
        <ele>59.6</ele>
        <time>2018-05-11T14:43:27Z</time>
      </trkpt>
      <trkpt lat="50.61306" lon="3.06803">
        <ele>59.2</ele>
        <time>2018-05-11T14:43:31Z</time>
      </trkpt>
      <trkpt lat="50.61303" lon="3.06832">
        <ele>59.4</ele>
        <time>2018-05-11T14:43:35Z</time>
      </trkpt>
      <trkpt lat="50.613" lon="3.06861">
        <ele>59.4</ele>
        <time>2018-05-11T14:43:39Z</time>
      </trkpt>
      <trkpt lat="50.61297" lon="3.0689">
        <ele>59.2</ele>
        <time>2018-05-11T14:43:43Z</time>
      </trkpt>
      <trkpt lat="50.61292" lon="3.06917">
        <ele>59.4</ele>
        <time>2018-05-11T14:43:47Z</time>
      </trkpt>
      <trkpt lat="50.61289" lon="3.06945">
        <ele>59</ele>
        <time>2018-05-11T14:43:51Z</time>
      </trkpt>
      <trkpt lat="50.61286" lon="3.06971">
        <ele>60</ele>
        <time>2018-05-11T14:43:55Z</time>
      </trkpt>
      <trkpt lat="50.61282" lon="3.06998">
        <ele>60.4</ele>
        <time>2018-05-11T14:43:59Z</time>
      </trkpt>
      <trkpt lat="50.61278" lon="3.07028">
        <ele>59.6</ele>
        <time>2018-05-11T14:44:03Z</time>
      </trkpt>
      <trkpt lat="50.61273" lon="3.07056">
        <ele>59.4</ele>
        <time>2018-05-11T14:44:07Z</time>
      </trkpt>
      <trkpt lat="50.61267" lon="3.07086">
        <ele>59.8</ele>
        <time>2018-05-11T14:44:11Z</time>
      </trkpt>
      <trkpt lat="50.61261" lon="3.07116">
        <ele>59.8</ele>
        <time>2018-05-11T14:44:15Z</time>
      </trkpt>
      <trkpt lat="50.61256" lon="3.07147">
        <ele>60</ele>
        <time>2018-05-11T14:44:19Z</time>
      </trkpt>
      <trkpt lat="50.61252" lon="3.07176">
        <ele>59</ele>
        <time>2018-05-11T14:44:23Z</time>
      </trkpt>
      <trkpt lat="50.61247" lon="3.07205">
        <ele>59.4</ele>
        <time>2018-05-11T14:44:27Z</time>
      </trkpt>
      <trkpt lat="50.61243" lon="3.07234">
        <ele>59.4</ele>
        <time>2018-05-11T14:44:31Z</time>
      </trkpt>
      <trkpt lat="50.61239" lon="3.07265">
        <ele>59.2</ele>
        <time>2018-05-11T14:44:35Z</time>
      </trkpt>
      <trkpt lat="50.61235" lon="3.07294">
        <ele>59.2</ele>
        <time>2018-05-11T14:44:39Z</time>
      </trkpt>
      <trkpt lat="50.6123" lon="3.07321">
        <ele>59.2</ele>
        <time>2018-05-11T14:44:43Z</time>
      </trkpt>
      <trkpt lat="50.61226" lon="3.07347">
        <ele>59</ele>
        <time>2018-05-11T14:44:47Z</time>
      </trkpt>
      <trkpt lat="50.61223" lon="3.07374">
        <ele>59.4</ele>
        <time>2018-05-11T14:44:51Z</time>
      </trkpt>
      <trkpt lat="50.61222" lon="3.074">
        <ele>59.6</ele>
        <time>2018-05-11T14:44:55Z</time>
      </trkpt>
      <trkpt lat="50.61219" lon="3.07426">
        <ele>59.4</ele>
        <time>2018-05-11T14:44:59Z</time>
      </trkpt>
      <trkpt lat="50.61216" lon="3.07448">
        <ele>59.6</ele>
        <time>2018-05-11T14:45:03Z</time>
      </trkpt>
      <trkpt lat="50.61204" lon="3.07453">
        <ele>59.8</ele>
        <time>2018-05-11T14:45:07Z</time>
      </trkpt>
      <trkpt lat="50.61194" lon="3.07444">
        <ele>60</ele>
        <time>2018-05-11T14:45:11Z</time>
      </trkpt>
      <trkpt lat="50.61183" lon="3.07437">
        <ele>60</ele>
        <time>2018-05-11T14:45:15Z</time>
      </trkpt>
      <trkpt lat="50.61174" lon="3.07432">
        <ele>59.8</ele>
        <time>2018-05-11T14:45:19Z</time>
      </trkpt>
      <trkpt lat="50.61165" lon="3.07426">
        <ele>59.6</ele>
        <time>2018-05-11T14:45:23Z</time>
      </trkpt>
      <trkpt lat="50.61158" lon="3.07419">
        <ele>60</ele>
        <time>2018-05-11T14:45:27Z</time>
      </trkpt>
      <trkpt lat="50.61151" lon="3.07412">
        <ele>60</ele>
        <time>2018-05-11T14:45:31Z</time>
      </trkpt>
    </trkseg>
  </trk>
</gpx>